[[{"header":{"parameterUnit":"m.s-1","parameterCategory":1,"la1":30.6,"la2":29.2853,"lo1":-89.7004,"lo2":-87.6739,"dy":0.0162,"dx":0.0183,"nx":112,"ny":82,"refTime":"2024-06-29T06:00:00:Z","depth":0,"parameterNumber":2,"parameterNumberName":"U-component_of_WINDS"},"data":[0.0,0.0,0.0,0.0,0.0,0.0,0.0,0.0,0.0,0.0,0.0,0.0,0.0,0.0,0.0,0.0,0.0,0.0,0.0,0.0,0.0,0.0,0.0,0.0,0.0,0.0,0.0,0.0,0.0,0.0,0.0,0.0,0.0,0.0,0.0,0.0,0.0,0.0,0.0,0.0,0.0,0.0,0.0,0.0,0.0,0.0,0.0,0.0,0.0,0.0,0.0,0.0,0.0,0.0,0.0,0.0,0.0,0.0,0.0,0.0,0.0,0.0,0.0,0.0,0.0,0.0,0.0,0.0,0.0,0.0,0.0,0.0,0.0,0.0,0.0,0.0,0.0,0.0,0.0,0.0,0.0,0.0,0.0,0.0,0.0,0.0,0.0,0.0,0.0,0.0,-4.2345,-4.468,-4.5021,-4.478,-4.3999,-4.3441,-4.1864,-3.8891,0.0,0.0,0.0,0.0,0.0,0.0,0.0,0.0,0.0,0.0,0.0,0.0,0.0,0.0,0.0,0.0,0.0,0.0,0.0,0.0,0.0,0.0,0.0,0.0,0.0,0.0,0.0,0.0,0.0,0.0,0.0,0.0,0.0,0.0,0.0,0.0,0.0,0.0,0.0,0.0,0.0,0.0,0.0,0.0,0.0,0.0,0.0,0.0,0.0,0.0,0.0,0.0,0.0,0.0,0.0,0.0,0.0,0.0,0.0,0.0,0.0,0.0,0.0,0.0,0.0,0.0,0.0,0.0,0.0,0.0,0.0,0.0,0.0,0.0,0.0,0.0,0.0,0.0,0.0,0.0,0.0,0.0,0.0,0.0,0.0,0.0,0.0,0.0,0.0,0.0,0.0,0.0,0.0,0.0,0.0,0.0,0.0,0.0,0.0,0.0,0.0,0.0,0.0,0.0,-4.1026,-4.3849,-4.4185,-4.4026,-4.3597,-4.2283,-4.0655,-3.8817,0.0,0.0,0.0,0.0,0.0,0.0,0.0,0.0,0.0,0.0,0.0,0.0,0.0,0.0,0.0,0.0,0.0,0.0,0.0,0.0,0.0,0.0,0.0,0.0,0.0,0.0,0.0,0.0,0.0,0.0,0.0,0.0,0.0,0.0,0.0,0.0,0.0,0.0,0.0,0.0,0.0,0.0,0.0,0.0,0.0,0.0,0.0,0.0,0.0,0.0,0.0,0.0,0.0,0.0,0.0,0.0,0.0,0.0,0.0,0.0,0.0,0.0,0.0,0.0,0.0,0.0,0.0,0.0,0.0,0.0,0.0,0.0,0.0,0.0,0.0,0.0,0.0,0.0,0.0,0.0,0.0,0.0,0.0,0.0,0.0,0.0,0.0,0.0,0.0,0.0,0.0,0.0,0.0,0.0,0.0,0.0,0.0,0.0,0.0,0.0,0.0,0.0,0.0,-4.0621,-4.1547,-4.377,-4.3852,-4.3679,-4.3513,-4.2415,-4.0891,-3.8836,-3.7092,0.0,0.0,0.0,0.0,0.0,0.0,0.0,0.0,0.0,0.0,0.0,0.0,0.0,0.0,0.0,0.0,0.0,0.0,0.0,0.0,0.0,0.0,0.0,0.0,0.0,0.0,0.0,0.0,0.0,0.0,0.0,0.0,0.0,0.0,0.0,0.0,0.0,0.0,0.0,0.0,0.0,0.0,0.0,0.0,0.0,0.0,0.0,0.0,0.0,0.0,0.0,0.0,0.0,0.0,0.0,0.0,0.0,0.0,0.0,0.0,0.0,0.0,0.0,0.0,0.0,0.0,0.0,0.0,0.0,0.0,0.0,0.0,0.0,0.0,0.0,0.0,0.0,0.0,0.0,0.0,0.0,0.0,0.0,0.0,0.0,0.0,0.0,0.0,0.0,0.0,0.0,0.0,0.0,0.0,0.0,0.0,0.0,0.0,0.0,0.0,0.0,0.0,-4.174,-4.2519,-4.3751,-4.3646,-4.3423,-4.3222,-4.2304,-4.0781,-3.856,-3.5903,0.0,0.0,0.0,0.0,0.0,0.0,0.0,0.0,0.0,0.0,0.0,0.0,0.0,0.0,0.0,0.0,0.0,0.0,0.0,0.0,0.0,0.0,0.0,0.0,0.0,0.0,0.0,0.0,0.0,0.0,0.0,0.0,0.0,0.0,0.0,0.0,0.0,0.0,0.0,0.0,0.0,0.0,0.0,0.0,0.0,0.0,0.0,0.0,0.0,0.0,0.0,0.0,0.0,0.0,0.0,0.0,0.0,0.0,0.0,0.0,0.0,0.0,0.0,0.0,0.0,0.0,0.0,0.0,0.0,0.0,0.0,0.0,0.0,0.0,0.0,0.0,0.0,0.0,0.0,0.0,0.0,0.0,0.0,0.0,0.0,0.0,0.0,0.0,0.0,0.0,0.0,0.0,0.0,0.0,0.0,0.0,0.0,0.0,0.0,0.0,0.0,0.0,-4.1526,-4.3402,-4.3512,-4.3513,-4.3185,-4.2451,-4.0965,-3.9365,-3.7694,-3.4559,0.0,0.0,0.0,0.0,0.0,0.0,0.0,0.0,0.0,0.0,0.0,0.0,0.0,0.0,0.0,0.0,0.0,0.0,0.0,0.0,0.0,0.0,0.0,0.0,0.0,0.0,0.0,0.0,0.0,0.0,0.0,0.0,0.0,0.0,0.0,0.0,0.0,0.0,0.0,0.0,0.0,0.0,0.0,0.0,0.0,0.0,0.0,0.0,0.0,0.0,0.0,0.0,0.0,0.0,0.0,0.0,0.0,0.0,0.0,0.0,0.0,0.0,0.0,0.0,0.0,0.0,0.0,0.0,0.0,0.0,0.0,0.0,0.0,0.0,0.0,0.0,0.0,0.0,0.0,0.0,0.0,0.0,0.0,0.0,0.0,0.0,0.0,0.0,0.0,0.0,0.0,0.0,0.0,0.0,0.0,0.0,0.0,0.0,0.0,0.0,0.0,0.0,-4.0194,-4.1625,-4.2635,-4.2745,-4.2433,-4.1625,-4.0543,-3.9218,-3.7603,0.0,0.0,0.0,0.0,0.0,0.0,0.0,0.0,0.0,0.0,0.0,0.0,0.0,0.0,0.0,0.0,0.0,0.0,0.0,0.0,0.0,0.0,0.0,0.0,0.0,0.0,0.0,0.0,0.0,0.0,0.0,0.0,0.0,0.0,0.0,0.0,0.0,0.0,0.0,0.0,0.0,0.0,0.0,0.0,0.0,0.0,0.0,0.0,0.0,0.0,0.0,0.0,0.0,0.0,0.0,0.0,0.0,0.0,0.0,0.0,0.0,0.0,0.0,0.0,0.0,0.0,0.0,0.0,0.0,0.0,0.0,0.0,0.0,0.0,0.0,0.0,0.0,0.0,0.0,0.0,0.0,0.0,0.0,0.0,0.0,0.0,0.0,0.0,0.0,0.0,0.0,0.0,0.0,0.0,0.0,0.0,0.0,0.0,0.0,0.0,0.0,0.0,-3.8065,-3.946,-4.0708,-4.1809,-4.1919,-4.1589,-4.0799,-3.9753,-3.8432,-3.6798,0.0,0.0,0.0,0.0,0.0,0.0,0.0,0.0,0.0,0.0,0.0,0.0,0.0,0.0,0.0,0.0,0.0,0.0,0.0,0.0,0.0,0.0,0.0,0.0,0.0,0.0,0.0,0.0,0.0,0.0,0.0,0.0,0.0,0.0,0.0,0.0,0.0,0.0,0.0,0.0,0.0,0.0,0.0,0.0,0.0,0.0,0.0,0.0,0.0,0.0,0.0,0.0,0.0,0.0,0.0,0.0,0.0,0.0,0.0,0.0,0.0,0.0,0.0,0.0,0.0,0.0,0.0,0.0,0.0,0.0,0.0,0.0,0.0,0.0,0.0,0.0,0.0,0.0,0.0,0.0,0.0,0.0,0.0,0.0,0.0,0.0,0.0,0.0,0.0,0.0,0.0,0.0,0.0,0.0,0.0,0.0,0.0,0.0,0.0,0.0,0.0,0.0,-3.7382,-3.9588,-4.1077,-4.1077,-4.1077,-4.0763,-3.9937,-3.8429,-3.678,0.0,0.0,0.0,0.0,0.0,0.0,0.0,0.0,0.0,0.0,0.0,0.0,0.0,0.0,0.0,0.0,0.0,0.0,0.0,0.0,0.0,0.0,0.0,0.0,0.0,0.0,0.0,0.0,0.0,0.0,0.0,0.0,0.0,0.0,0.0,0.0,0.0,0.0,0.0,0.0,0.0,0.0,0.0,0.0,0.0,0.0,0.0,0.0,0.0,0.0,0.0,0.0,0.0,0.0,0.0,0.0,0.0,0.0,0.0,0.0,0.0,0.0,0.0,0.0,0.0,0.0,0.0,0.0,0.0,0.0,0.0,0.0,0.0,0.0,0.0,0.0,0.0,0.0,0.0,0.0,0.0,0.0,0.0,0.0,0.0,0.0,0.0,0.0,0.0,0.0,0.0,0.0,0.0,0.0,0.0,0.0,0.0,0.0,0.0,0.0,0.0,0.0,0.0,-3.6541,-3.8762,-4.0249,-4.0249,-4.0249,-3.9937,-3.9129,-3.8098,-3.678,-3.5114,0.0,0.0,0.0,0.0,0.0,0.0,0.0,0.0,0.0,0.0,0.0,0.0,0.0,0.0,0.0,0.0,0.0,0.0,0.0,0.0,0.0,0.0,0.0,0.0,0.0,0.0,0.0,0.0,0.0,0.0,0.0,0.0,0.0,0.0,0.0,0.0,0.0,0.0,0.0,0.0,0.0,0.0,0.0,0.0,0.0,0.0,0.0,0.0,0.0,0.0,0.0,0.0,0.0,0.0,0.0,0.0,0.0,0.0,0.0,0.0,0.0,0.0,0.0,0.0,0.0,0.0,0.0,0.0,0.0,0.0,0.0,0.0,0.0,0.0,0.0,0.0,0.0,0.0,0.0,0.0,0.0,0.0,0.0,0.0,0.0,0.0,0.0,0.0,0.0,0.0,0.0,0.0,0.0,0.0,0.0,0.0,0.0,0.0,0.0,0.0,0.0,0.0,-3.5679,-3.7918,-3.9423,-3.9423,-3.9423,-3.9239,-3.8744,-3.7661,-3.6303,-3.4619,0.0,0.0,0.0,0.0,0.0,0.0,0.0,0.0,0.0,0.0,0.0,0.0,0.0,0.0,0.0,0.0,0.0,0.0,0.0,0.0,0.0,0.0,0.0,0.0,0.0,0.0,0.0,0.0,0.0,0.0,0.0,0.0,0.0,0.0,0.0,0.0,0.0,0.0,0.0,0.0,0.0,0.0,0.0,0.0,0.0,0.0,0.0,0.0,0.0,0.0,0.0,0.0,0.0,0.0,0.0,0.0,0.0,0.0,0.0,0.0,0.0,0.0,0.0,0.0,0.0,0.0,0.0,0.0,0.0,0.0,0.0,0.0,0.0,0.0,0.0,0.0,0.0,0.0,0.0,0.0,0.0,0.0,0.0,0.0,0.0,0.0,0.0,0.0,0.0,0.0,0.0,0.0,0.0,0.0,0.0,0.0,0.0,0.0,0.0,0.0,0.0,0.0,-3.4784,-3.6986,-3.8505,-3.8579,-3.8524,-3.8487,-3.8487,-3.7074,-3.5495,-3.3899,0.0,0.0,0.0,0.0,0.0,0.0,0.0,0.0,0.0,0.0,0.0,0.0,0.0,0.0,0.0,0.0,0.0,0.0,0.0,0.0,0.0,0.0,0.0,0.0,0.0,0.0,0.0,0.0,0.0,0.0,0.0,0.0,0.0,0.0,0.0,0.0,0.0,0.0,0.0,0.0,0.0,0.0,0.0,0.0,0.0,0.0,0.0,0.0,0.0,0.0,0.0,0.0,0.0,0.0,0.0,0.0,0.0,0.0,0.0,0.0,-3.8905,0.0,0.0,0.0,0.0,0.0,0.0,0.0,0.0,0.0,0.0,0.0,0.0,0.0,0.0,0.0,0.0,0.0,0.0,0.0,0.0,0.0,0.0,0.0,0.0,0.0,0.0,0.0,0.0,0.0,0.0,0.0,0.0,0.0,0.0,0.0,0.0,0.0,0.0,0.0,0.0,0.0,-3.3954,-3.5661,-3.7037,-3.7694,-3.7184,-3.6798,-3.6798,-3.5866,-3.4839,-3.3862,-3.2296,0.0,0.0,0.0,0.0,0.0,0.0,0.0,0.0,0.0,0.0,0.0,0.0,0.0,0.0,0.0,0.0,0.0,0.0,0.0,0.0,0.0,0.0,0.0,0.0,0.0,0.0,0.0,0.0,0.0,0.0,0.0,0.0,0.0,0.0,0.0,0.0,0.0,0.0,0.0,0.0,0.0,0.0,0.0,0.0,0.0,0.0,0.0,0.0,0.0,0.0,0.0,0.0,0.0,0.0,0.0,0.0,0.0,0.0,0.0,0.0,-3.8965,0.0,0.0,0.0,0.0,0.0,0.0,0.0,0.0,0.0,0.0,0.0,0.0,0.0,0.0,0.0,0.0,0.0,0.0,0.0,0.0,0.0,0.0,0.0,0.0,0.0,0.0,0.0,0.0,0.0,0.0,0.0,0.0,0.0,0.0,0.0,0.0,0.0,0.0,0.0,0.0,-3.3697,-3.5257,-3.645,-3.6886,-3.6556,-3.6303,-3.6303,-3.55,-3.4656,-3.3844,-3.2296,0.0,0.0,0.0,0.0,0.0,0.0,0.0,0.0,0.0,0.0,0.0,0.0,0.0,0.0,0.0,0.0,0.0,0.0,0.0,0.0,0.0,0.0,0.0,0.0,0.0,0.0,0.0,0.0,0.0,0.0,0.0,0.0,0.0,0.0,0.0,0.0,0.0,0.0,0.0,0.0,0.0,0.0,0.0,0.0,0.0,0.0,0.0,0.0,0.0,0.0,0.0,0.0,0.0,-4.373,-4.4141,-4.4141,-4.4004,-4.3848,-4.3574,-4.1484,-4.0391,-4.0039,-3.8989,0.0,0.0,0.0,0.0,0.0,0.0,0.0,0.0,0.0,0.0,0.0,0.0,0.0,0.0,0.0,0.0,0.0,0.0,0.0,0.0,0.0,0.0,0.0,0.0,-3.8988,-3.8931,0.0,0.0,0.0,0.0,0.0,0.0,0.0,0.0,0.0,0.0,0.0,0.0,-3.3678,-3.5,-3.5917,-3.6064,-3.5954,-3.5862,-3.5862,-3.5188,-3.4509,-3.3844,-3.2412,-3.1311,0.0,0.0,0.0,0.0,0.0,0.0,0.0,0.0,0.0,0.0,0.0,0.0,0.0,0.0,0.0,0.0,0.0,0.0,0.0,0.0,0.0,0.0,0.0,0.0,0.0,0.0,0.0,0.0,0.0,0.0,0.0,0.0,-3.3029,-3.3974,0.0,0.0,0.0,0.0,0.0,0.0,0.0,0.0,0.0,0.0,0.0,0.0,0.0,-4.1738,-4.3183,-4.418,-4.4668,-4.4668,-4.5547,-4.5957,-4.5937,-4.5176,-4.4414,-4.3672,-4.334,0.0,-4.0957,-3.9939,0.0,0.0,0.0,0.0,0.0,0.0,0.0,0.0,0.0,0.0,0.0,0.0,0.0,0.0,0.0,0.0,0.0,0.0,0.0,0.0,0.0,0.0,-4.0035,-4.015,-4.0265,-4.0246,0.0,-3.8104,-3.6308,-3.5481,-3.4466,0.0,0.0,0.0,0.0,0.0,0.0,0.0,-3.3605,-3.399,-3.4394,-3.5096,-3.4559,-3.4137,-3.4137,-3.4027,-3.3917,-3.3807,-3.2963,-3.2381,-3.2289,-3.0852,0.0,0.0,0.0,0.0,0.0,0.0,0.0,0.0,0.0,0.0,0.0,0.0,0.0,0.0,0.0,0.0,0.0,0.0,0.0,0.0,0.0,0.0,0.0,0.0,0.0,0.0,0.0,0.0,0.0,-3.26,-3.3861,-3.4395,-3.4902,-3.5069,0.0,0.0,0.0,0.0,0.0,0.0,0.0,0.0,0.0,-4.1816,-4.2344,-4.3183,-4.4414,-4.5293,-4.5723,-4.5742,-4.6113,-4.6308,-4.6289,-4.5898,-4.5527,-4.5137,-4.4648,-4.4004,-4.3183,-4.1233,-3.9663,-3.8463,0.0,0.0,0.0,0.0,-3.7199,-3.745,-3.7584,-3.7546,0.0,0.0,0.0,0.0,0.0,0.0,0.0,0.0,0.0,0.0,0.0,0.0,0.0,-3.9708,-4.0169,-4.0496,-4.0496,-3.9265,-3.7911,0.0,-3.6377,-3.5147,-3.2627,0.0,0.0,0.0,0.0,-3.2549,-3.3864,-3.3889,-3.3935,-3.4302,-3.4009,-3.3807,-3.3807,-3.3807,-3.3807,-3.3807,-3.3041,-3.2601,-3.2601,-3.1494,-3.065,0.0,0.0,0.0,0.0,0.0,0.0,0.0,0.0,0.0,0.0,0.0,0.0,0.0,0.0,0.0,0.0,0.0,0.0,0.0,0.0,0.0,0.0,0.0,0.0,0.0,0.0,0.0,0.0,-3.3776,-3.4986,-3.5376,-3.6184,-3.6426,0.0,0.0,0.0,0.0,0.0,0.0,-4.0488,-4.0742,-4.1543,-4.3027,-4.3691,-4.4453,-4.5312,-4.5976,-4.6308,-4.6308,-4.6308,-4.6308,-4.6308,-4.6308,-4.6172,-4.5937,-4.5527,-4.4941,-4.418,-4.2178,-4.0837,-3.9946,-3.9026,-3.8482,-3.8215,-3.8218,-3.8258,-3.8425,-3.8837,-3.8681,-3.818,-3.7315,0.0,-3.5519,-3.4026,0.0,0.0,0.0,0.0,-3.6,-3.6808,-3.7507,-3.8219,-3.9092,-3.9592,-3.9919,-4.015,-3.9554,-3.8777,0.0,-3.7662,-3.6426,-3.3447,0.0,0.0,0.0,0.0,-3.2987,-3.4059,-3.3961,-3.3807,-3.3807,-3.3807,-3.3807,-3.3807,-3.3807,-3.3807,-3.3807,-3.3238,-3.2913,-3.2913,-3.2137,-3.1421,-3.0834,0.0,0.0,0.0,0.0,0.0,0.0,0.0,0.0,0.0,0.0,0.0,0.0,0.0,0.0,0.0,0.0,0.0,0.0,0.0,0.0,0.0,0.0,0.0,0.0,0.0,0.0,0.0,0.0,0.0,-3.7802,-3.8801,0.0,0.0,0.0,0.0,-3.9648,-4.0547,-4.1426,-4.2226,-4.3066,-4.3926,-4.4844,-4.4902,-4.5351,-4.623,-4.6289,-4.6308,-4.6308,-4.6308,-4.6308,-4.6308,-4.6308,-4.5859,-4.5117,-4.5898,-4.4824,-4.2519,-4.2383,-4.1772,-4.0847,-3.9966,-3.9073,-3.8291,-3.8215,-3.8681,-3.9209,-3.8367,-3.8584,-3.9092,-3.8219,-3.7353,-3.6481,-3.5635,-3.5404,0.0,0.0,-3.6615,-3.6846,-3.7719,-3.7969,-3.8219,-3.9092,-3.87,-3.8354,-3.9188,-3.8681,-3.8046,0.0,-3.7327,-3.635,-3.5168,0.0,-3.3647,-3.4439,-3.3441,-3.2987,-3.4059,-3.3961,-3.3807,-3.3807,-3.3807,-3.3807,-3.3807,-3.3807,-3.3807,-3.3807,-3.3752,-3.3733,-3.3733,-3.2981,-3.2509,-3.2472,-3.098,0.0,0.0,0.0,0.0,0.0,0.0,0.0,0.0,0.0,0.0,0.0,0.0,0.0,0.0,0.0,0.0,0.0,0.0,0.0,0.0,0.0,0.0,0.0,0.0,0.0,0.0,0.0,0.0,-3.8766,-3.9758,0.0,-4.0082,-4.0615,-4.1122,-4.1484,-4.2324,-4.3183,-4.4023,-4.4902,-4.5762,-4.6641,-4.7226,-4.7383,-4.7148,-4.7148,-4.6855,-4.6308,-4.6308,-4.6308,-4.6308,-4.6308,-4.6133,-4.5859,-4.6172,-4.5449,-4.4023,-4.3476,-4.2402,-4.1109,-4.0797,-4.0409,-4.0031,-4.0003,-4.0103,-4.0194,-3.9844,-3.9886,-3.9842,-3.845,-3.7065,-3.5865,-3.5596,-3.55,-3.5558,-3.5846,-3.5923,-3.6,-3.6308,-3.6769,-3.7238,-3.7546,-3.7815,-3.8084,-3.8392,-3.7777,-3.7161,-3.7161,-3.6904,-3.6181,-3.4533,-3.4244,-3.4148,-3.3903,-3.3582,-3.3558,-3.4134,-3.3961,-3.3807,-3.3807,-3.3807,-3.3807,-3.3807,-3.3807,-3.3587,-3.3073,-3.3036,-3.2797,-3.2265,-3.2485,-3.2106,-3.1091,-3.15,-3.0968,0.0,0.0,0.0,0.0,0.0,0.0,0.0,0.0,0.0,0.0,0.0,0.0,0.0,0.0,0.0,0.0,0.0,0.0,0.0,0.0,0.0,0.0,0.0,0.0,0.0,-3.6865,-3.8033,-3.9243,-4.0428,-4.1086,-4.0958,-4.203,-4.2879,-4.3196,-4.3788,-4.4512,-4.5391,-4.6269,-4.6992,-4.7578,-4.8457,-4.8476,-4.7617,-4.7598,-4.7168,-4.6308,-4.6308,-4.6308,-4.6308,-4.6308,-4.6308,-4.6308,-4.6308,-4.5644,-4.4512,-4.3945,-4.2715,-4.1191,-4.1191,-4.1149,-4.1055,-4.1021,-4.0919,-4.0791,-4.0713,-4.0243,-3.9477,-3.8354,-3.7046,-3.5904,-3.5904,-3.5904,-3.5904,-3.5904,-3.5712,-3.55,-3.55,-3.5904,-3.6365,-3.6635,-3.6923,-3.7238,-3.7507,-3.6885,-3.6308,-3.6308,-3.6308,-3.5895,-3.4596,-3.4636,-3.4643,-3.4055,-3.4046,-3.4136,-3.4188,-3.4043,-3.3902,-3.3802,-3.3807,-3.3807,-3.3807,-3.3807,-3.3568,-3.3041,-3.2748,-3.2362,-3.1825,-3.2063,-3.1696,-3.0632,-3.1659,-3.1421,-2.9812,0.0,0.0,0.0,0.0,0.0,0.0,0.0,0.0,0.0,0.0,0.0,0.0,0.0,0.0,0.0,0.0,0.0,0.0,0.0,0.0,0.0,0.0,0.0,-3.6673,-3.8238,-3.9343,-3.945,-4.097,-4.1712,-4.0997,-4.2545,-4.3936,-4.4779,-4.4935,-4.5371,-4.625,-4.7148,-4.7637,-4.7637,-4.8496,-4.8516,-4.7656,-4.7617,-4.7168,-4.6308,-4.6308,-4.6308,-4.6308,-4.6308,-4.6308,-4.6308,-4.6269,-4.5293,-4.3691,-4.3672,-4.2695,-4.1191,-4.1191,-4.1191,-4.1172,-4.1054,-4.0996,-4.0979,-4.0762,-3.9515,-3.8015,-3.8007,-3.7392,-3.6654,-3.6654,-3.6654,-3.6654,-3.6654,-3.6096,-3.55,-3.55,-3.55,-3.5692,-3.6481,-3.6077,-3.5712,-3.6481,-3.6058,-3.55,-3.55,-3.55,-3.55,-3.55,-3.5281,-3.5105,-3.5105,-3.4879,0.0,-3.4265,-3.4211,-3.4111,-3.3842,-3.3802,-3.382,-3.3807,-3.3807,-3.377,-3.3733,-3.2986,-3.2546,-3.2528,-3.1806,-3.1415,-3.1452,-3.1427,-3.1409,-3.1409,0.0,0.0,0.0,0.0,0.0,0.0,0.0,0.0,0.0,0.0,0.0,0.0,0.0,0.0,0.0,0.0,0.0,0.0,0.0,0.0,0.0,-3.5949,-3.7603,-3.8469,-3.8996,-3.9761,-4.0992,-4.1566,-4.2283,-4.3379,-4.346,-4.4082,-4.5638,-4.5287,-4.5371,-4.625,-4.7734,-4.8535,-4.8535,-4.9394,-4.9414,-4.8555,-4.793,-4.7168,-4.6308,-4.6308,-4.6308,-4.6308,-4.6308,-4.6308,-4.6269,-4.5625,-4.4726,-4.3652,-4.3027,-4.2148,-4.1191,-4.1191,-4.1191,-4.1191,-4.1151,-4.1081,-4.0979,-4.0762,-3.9576,-3.8136,-3.8038,-3.7026,-3.5827,-3.5827,-3.5827,-3.5827,-3.5827,-3.5673,-3.55,-3.55,-3.55,-3.5558,-3.5788,-3.5654,-3.5558,-3.5788,-3.5654,-3.55,-3.55,-3.55,-3.55,-3.55,-3.5281,-3.5105,-3.5105,-3.4879,0.0,-3.4572,-3.4561,-3.4442,-3.4123,-3.4086,-3.4006,-3.3815,-3.3807,-3.3293,-3.2118,-3.1843,-3.1476,-3.0876,-3.1201,-3.1659,-3.2265,-3.1885,-3.1689,0.0,0.0,0.0,0.0,0.0,0.0,0.0,0.0,0.0,0.0,0.0,0.0,0.0,0.0,0.0,0.0,0.0,0.0,0.0,0.0,0.0,0.0,-3.7334,-3.8834,-3.9688,-3.9804,-4.0169,-4.1143,-4.1585,-4.221,-4.3282,-4.3676,-4.432,-4.5439,-4.548,-4.5719,-4.6269,-4.7617,-4.8359,-4.8359,-4.9199,-4.9238,-4.8359,-4.7851,-4.7168,-4.6308,-4.6308,-4.6308,-4.6308,-4.6308,-4.6308,0.0,-4.5371,-4.4512,-4.3633,-4.2754,-4.1933,0.0,0.0,0.0,0.0,0.0,-4.0872,-4.0435,-4.0282,-3.9116,-3.7627,-3.7493,-3.6558,-3.55,-3.55,-3.55,-3.55,-3.55,-3.55,-3.55,-3.55,-3.55,-3.55,-3.55,-3.55,-3.55,-3.55,-3.55,-3.55,-3.55,0.0,0.0,-3.55,-3.5369,-3.5223,-3.5113,-3.507,-3.4954,-3.4724,-3.4812,-3.4754,-3.4434,-3.4412,-3.4353,-3.4196,-3.4184,0.0,0.0,0.0,-3.1883,-3.1075,-3.1503,0.0,0.0,0.0,0.0,0.0,0.0,0.0,0.0,-3.2642,-3.265,0.0,0.0,0.0,0.0,0.0,0.0,0.0,0.0,0.0,0.0,0.0,0.0,0.0,0.0,0.0,0.0,-3.8815,-3.9688,-4.04,-4.0496,-4.0496,-4.0496,-4.1181,-4.1739,-4.1923,-4.3315,-4.4391,-4.4792,-4.552,-4.6051,-4.6268,0.0,0.0,0.0,0.0,-4.8379,-4.7617,-4.75,-4.707,-4.6308,-4.6308,-4.6308,-4.6308,-4.6191,-4.6152,-4.6094,-4.5137,-4.4277,-4.3496,-4.2617,-4.1836,-4.1191,-4.1191,-4.1191,-4.1191,-4.1094,-4.0483,0.0,0.0,0.0,0.0,-3.6768,-3.6175,-3.55,-3.55,-3.55,-3.55,-3.55,-3.55,-3.55,-3.55,-3.55,-3.55,-3.55,-3.55,-3.55,-3.55,-3.5423,-3.5346,-3.5346,-3.5269,-3.5212,-3.5212,-3.5365,-3.5424,-3.519,-3.5354,0.0,-3.4841,-3.499,-3.5034,-3.4764,0.0,0.0,-3.4694,-3.4619,-3.4543,-3.4543,-3.3837,-3.3072,-3.2354,-3.243,-3.2779,-3.3393,-3.3535,-3.3913,-3.4593,-3.4706,-3.4754,-3.4755,-3.2956,-3.2788,0.0,0.0,0.0,0.0,0.0,0.0,0.0,0.0,0.0,0.0,0.0,0.0,0.0,0.0,0.0,-3.795,-3.9284,-4.0323,-4.0477,-4.0496,-4.0496,-4.0496,-4.065,-4.1296,-4.272,-4.2625,-4.3349,-4.5421,-4.5246,-4.5371,-4.6105,-4.7067,-4.7598,-4.7598,-4.7754,-4.7773,-4.7598,-4.6894,-4.6465,-4.6308,0.0,0.0,-4.6289,-4.5566,-4.5254,-4.5156,-4.3594,-4.2812,-4.2598,-4.1777,-4.1348,-4.1191,-4.1191,-4.1191,-4.1113,-4.041,-4.0039,-3.9743,-3.8928,-3.7912,-3.6969,-3.6894,-3.6234,-3.55,-3.55,-3.55,0.0,-3.55,-3.55,-3.55,-3.55,-3.55,-3.55,-3.55,-3.55,-3.55,-3.55,-3.4949,-3.4449,-3.4449,-3.3872,-3.341,-3.341,-3.4577,-3.5486,-3.5432,-3.5479,-3.5453,-3.5361,-3.5383,-3.5312,-3.5062,-3.5016,-3.4935,-3.4714,-3.4051,-3.3647,-3.3648,-3.3488,-3.3337,-3.3167,-3.3846,-3.3959,-3.3412,-3.429,-3.452,-3.3985,-3.4683,-3.513,-3.5327,-3.4529,-3.4396,0.0,0.0,0.0,0.0,0.0,0.0,0.0,0.0,0.0,0.0,0.0,-3.5103,-3.5949,0.0,-3.8777,-3.9181,-3.9958,-4.0496,-4.0496,-4.0496,-4.0496,-4.0496,-4.0496,-4.0843,-4.17,-4.2256,-4.3083,-4.4402,-4.5034,-4.5565,-4.6069,-4.6635,-4.6953,-4.6953,-4.6953,-4.6953,-4.6953,-4.6523,-4.6308,-4.6289,-4.5859,-4.5644,-4.5625,-4.4746,-4.4355,-4.4277,-4.2969,-4.2402,-4.2344,-4.1523,-4.1191,-4.1152,-4.0723,-4.0547,-4.0449,-3.957,-3.8965,-3.8515,-3.7986,-3.7155,-3.6335,-3.6275,-3.5911,-3.55,-3.55,-3.55,-3.55,-3.55,-3.55,-3.55,-3.55,-3.55,-3.55,-3.55,-3.55,-3.5385,-3.4949,-3.4507,-3.4071,-3.3622,-3.3199,-3.2891,-3.2891,-3.3622,-3.4192,-3.4192,-3.4192,-3.4192,-3.4192,-3.4192,-3.4139,-3.4009,-3.3994,-3.393,-3.3808,-3.38,-3.3808,-3.3805,-3.4206,-3.4454,-3.4454,-3.4865,-3.4895,-3.4454,-3.5009,-3.5094,-3.4649,-3.5094,-3.5369,-3.5493,-3.5223,-3.5182,0.0,0.0,0.0,0.0,0.0,0.0,0.0,-3.1948,-3.2564,-3.3917,-3.5141,-3.6404,-3.7757,-3.8834,-3.9746,-4.04,-4.0496,-4.0496,-4.0496,-4.0496,-4.0496,-4.0496,-4.0496,-4.0573,-4.0746,-4.2027,-4.3004,-4.3382,-4.478,-4.5745,-4.6047,-4.6198,-4.6269,-4.6308,-4.6308,-4.6308,-4.6308,-4.6308,-4.6211,-4.6035,-4.5332,-4.4902,-4.4726,-4.3848,-4.3457,-4.3398,-4.2539,-4.2168,-4.2129,-4.1465,-4.1094,-4.0859,-3.998,-3.9531,-3.9316,-3.8613,-3.7891,-3.7265,-3.7038,-3.6432,-3.5736,-3.5648,-3.5571,-3.5528,-3.5494,-3.55,-3.55,-3.55,-3.55,-3.55,-3.55,-3.55,-3.55,-3.55,-3.5365,-3.5064,-3.4359,-3.3936,-3.3506,-3.2795,-3.2526,-3.241,-3.241,-3.241,-3.2526,-3.2852,-3.2891,-3.2891,-3.2891,-3.2891,-3.2891,-3.2891,-3.2891,-3.2833,-3.2679,-3.3449,-3.3878,-3.3725,-3.468,-3.525,-3.525,-3.5404,-3.55,-3.55,-3.55,-3.55,-3.55,-3.55,-3.55,-3.55,-3.55,-3.55,-2.9773,-2.9901,-3.0096,-3.0349,-3.0981,-3.1583,0.0,-3.2852,-3.3975,-3.4167,-3.6084,-3.7777,-3.7969,-3.9304,-4.04,-4.0496,-4.0496,-4.0496,-4.0496,-4.0496,-4.0496,-4.0496,-4.0496,-4.0804,-4.1585,-4.1827,-4.2574,-4.4061,-4.4471,-4.5027,-4.5873,-4.6045,-4.6175,-4.6308,-4.6308,-4.6308,-4.6308,-4.6308,-4.5918,-4.5137,-4.5058,-4.459,-4.3828,-4.2949,-4.2558,-4.25,-4.1699,-4.1328,-4.1328,-4.123,-4.0742,-3.9961,-3.9082,-3.8262,-3.7578,-3.748,-3.7383,-3.7187,-3.6406,-3.6025,-3.5867,-3.5736,-3.5633,-3.5582,-3.5509,-3.55,-3.55,-3.55,-3.55,-3.55,-3.55,-3.55,-3.55,-3.55,-3.4911,-3.4321,-3.4225,-3.3026,-3.1948,-3.1852,-3.1212,-3.0673,-3.0673,-3.0673,-3.1173,-3.2679,-3.2891,-3.2891,-3.2891,-3.2891,-3.2891,-3.2891,-3.2891,-3.2602,-3.1891,-3.2583,-3.2737,-3.2025,-3.3468,-3.4359,-3.4359,-3.5084,-3.55,-3.55,-3.55,-3.55,-3.55,-3.55,-3.55,-3.55,-3.55,-3.55,-2.9661,-2.9939,-3.0068,-3.0323,-3.0561,-3.0879,-3.1539,-3.2128,-3.2934,-3.442,-3.5568,-3.6763,-3.8246,-3.9097,-3.9772,-4.0404,-4.0496,-4.0496,-4.0496,-4.0092,-3.9977,-4.0439,-4.0092,-4.0131,-4.095,-4.1508,-4.2077,-4.2797,-4.3399,-4.3922,-4.4314,-4.5017,-4.5439,-4.5476,-4.6014,-4.6308,-4.6308,-4.6308,-4.5859,-4.498,-4.4492,-4.3789,-4.293,-4.207,-4.1699,-4.168,-4.1348,-4.1191,-4.1152,-4.0644,-4.0234,-3.9766,-3.8379,-3.7617,-3.7246,-3.6738,-3.6543,-3.6484,-3.6133,-3.597,-3.5898,-3.5838,-3.5721,-3.56,-3.5574,-3.5528,-3.55,-3.55,-3.55,-3.55,-3.55,-3.55,-3.5365,-3.4853,-3.4468,-3.3936,-3.2949,-3.2199,-3.1545,-3.1038,-3.0654,-3.0404,-3.0404,-3.0404,-3.0635,-3.1346,-3.1442,-3.1442,-3.1442,-3.1442,-3.1442,-3.1442,-3.1442,-3.1308,-3.0962,-3.1718,-3.2064,-3.1718,-3.2795,-3.343,-3.343,-3.3795,-3.3987,-3.3987,-3.4487,-3.4737,-3.4737,-3.525,-3.55,-3.55,-3.55,-3.55,-2.9623,-2.9924,-2.9988,-3.0235,-3.0315,-3.0565,-3.1411,-3.1568,-3.2094,-3.4009,-3.4719,-3.5559,-3.7395,-3.8384,-3.9153,-3.9931,-4.0311,-4.0496,-4.0496,-3.9996,-3.9842,-4.0439,-3.9996,-3.9861,-4.0439,-4.1066,-4.1546,-4.1769,-4.2423,-4.2931,-4.3188,-4.402,-4.4497,-4.4534,-4.521,-4.5586,-4.5586,-4.5586,-4.5156,-4.4277,-4.3633,-4.2891,-4.2051,-4.1465,-4.1191,-4.1191,-4.0957,-4.084,-4.0762,-3.9902,-3.9394,-3.9062,-3.7793,-3.7148,-3.6855,-3.623,-3.5996,-3.5996,-3.5996,-3.5973,-3.5917,-3.5907,-3.5803,-3.5685,-3.5635,-3.5588,-3.5534,-3.5534,-3.5521,-3.55,-3.55,-3.5327,-3.4988,-3.4359,-3.3859,-3.3179,-3.1968,-3.1506,-3.1154,-3.0519,-3.0404,-3.0404,-3.0404,-3.0404,-3.0404,-3.0404,-3.0404,-3.0404,-3.0404,-3.0404,-3.0404,-3.0404,-3.0404,-3.0404,-3.0404,-3.0981,-3.1346,-3.1346,-3.2102,-3.2564,-3.2564,-3.2776,-3.2891,-3.2891,-3.3526,-3.384,-3.384,-3.4718,-3.5135,-3.5154,-3.5385,-3.55,-2.956,-2.9713,-2.9765,-2.9962,-3.0643,-3.126,-3.1306,-3.1754,-3.2275,-3.261,-3.3758,-3.4735,-3.4811,-3.7053,-3.8907,-3.8936,-3.9819,-4.0496,-4.0496,-4.0477,-4.0477,-4.0496,-4.0477,-4.0477,-4.0496,-4.0516,-4.0893,-4.1731,-4.1835,-4.2244,-4.3143,-4.337,-4.352,-4.3632,-4.3726,-4.3789,-4.3789,-4.3789,-4.334,-4.248,-4.2441,-4.2012,-4.123,-4.1211,-4.1191,-4.1152,-4.0312,-3.9941,-3.9863,-3.9004,-3.8144,-3.7363,-3.7324,-3.6777,-3.6035,-3.6016,-3.5996,-3.5996,-3.5996,-3.5996,-3.5995,-3.5916,-3.59,-3.5869,-3.5746,-3.5646,-3.56,-3.56,-3.5552,-3.55,-3.55,-3.4872,-3.4225,-3.4205,-3.2949,-3.1756,-3.1718,-3.1038,-3.0423,-3.0404,-3.0404,-3.0404,-3.0404,-3.0404,-3.0404,-3.0404,-3.0404,-3.0404,-3.0404,-3.0404,-3.0404,-3.0404,-3.0404,-3.0404,-3.0404,-3.0423,-3.0442,-3.0442,-3.125,-3.1737,-3.1737,-3.2487,-3.2891,-3.2891,-3.2929,-3.2949,-3.2949,-3.3814,-3.4244,-3.4263,-3.5122,-3.55,-2.9616,-2.9796,-2.9916,-2.9984,-3.0117,-3.024,-3.024,-3.0301,-3.0526,-3.1129,-3.1643,-3.2472,-3.4124,-3.5838,-3.7405,-3.8698,-3.9791,-4.0496,-4.0496,-4.0035,-3.99,-4.0439,-4.0035,-3.9919,-4.0458,-4.0496,0.0,-4.0912,-4.0931,-4.1085,-4.1391,-4.2084,-4.2519,-4.2607,-4.3261,-4.3664,-4.3691,-4.3691,-4.3262,-4.2383,-4.1855,-4.1465,-4.1172,-4.0605,-4.0332,-4.0293,-3.9414,-3.9043,-3.8965,-3.8105,-3.7559,-3.7246,-3.666,-3.6269,-3.5996,-3.5996,-3.5996,-3.5996,-3.5996,-3.5996,-3.5996,-3.5974,-3.5942,-3.59,-3.5843,-3.5749,-3.5659,-3.5616,-3.5574,-3.557,-3.5515,-3.4853,-3.4052,-3.3468,-3.2506,-3.1545,-3.0962,-3.0615,-3.0404,-3.0404,-3.0404,-3.0404,-3.0404,-3.0404,-3.0404,-3.0404,-3.0404,-3.0404,-3.0404,-3.0404,-3.0404,-3.0404,-3.0404,-3.0404,-3.0404,-3.0404,-3.0404,-3.0404,-3.0673,-3.0846,-3.0846,-3.1096,-3.1231,-3.1231,-3.1814,-3.2102,-3.2102,-3.2929,-3.3333,-3.3353,-3.4237,-3.4641,-2.9523,-2.9687,-2.978,-2.978,-2.9687,-2.9598,-2.9598,-2.9415,-2.9426,-3.0033,-3.0323,-3.1028,-3.2917,-3.4435,-3.5993,-3.7825,-3.9127,-4.0027,-4.0317,-3.9988,-4.0035,-4.0873,-4.0508,-4.0527,-4.1362,-4.1439,-4.117,-4.0554,-4.0785,-4.0843,-4.0516,-4.1164,-4.1549,-4.1597,-4.2301,-4.269,-4.2729,-4.2773,-4.2539,-4.1953,-4.1445,-4.1035,-4.0723,-4.0156,-3.9726,-3.9394,-3.8516,-3.8144,-3.8066,-3.7187,-3.6836,-3.6777,-3.6211,-3.5996,-3.5996,-3.5996,-3.5996,-3.5996,-3.5996,-3.5996,-3.5996,-3.5996,-3.5973,-3.5921,-3.5907,-3.5805,-3.5686,-3.5626,-3.5574,-3.5486,-3.513,-3.4391,-3.3526,-3.2679,-3.1833,-3.1077,-3.0519,-3.0404,-3.0404,-3.0404,-3.0404,-3.0404,-3.0404,-3.0404,-3.0404,-3.0404,-3.0404,-3.0404,-3.0404,-3.0404,-3.0404,-3.0404,-3.0404,-3.0404,-3.0404,-3.0404,-3.0404,-3.0404,-3.0404,-3.0404,-3.0404,-3.0404,-3.0404,-3.0404,-3.0942,-3.1231,-3.1231,-3.2064,-3.2468,-3.2487,-3.3333,-3.3898,-2.933,-2.9423,-2.9443,-2.9412,-2.9402,-2.9402,-2.9382,-2.9171,-2.9067,-2.933,-2.978,-3.0375,-3.1195,-3.2956,-3.4806,-3.6385,-3.7942,-3.9242,-3.9986,-4.0339,-4.0804,-4.1643,-4.1769,-4.2124,-4.2951,-4.3104,-4.245,-4.0766,0.0,-4.145,-4.0612,-4.0642,-4.0692,-4.0697,-4.0893,-4.099,-4.0996,-4.1129,-4.1191,-4.1191,-4.1152,-4.0703,-3.9902,-3.9805,-3.9316,-3.8476,-3.7617,-3.7226,-3.7168,-3.6348,-3.5996,-3.5996,-3.5996,-3.5996,-3.5996,-3.5996,-3.5996,-3.5996,-3.5996,-3.5996,-3.5996,-3.5996,-3.5996,-3.5995,-3.5914,-3.5807,-3.5693,-3.5631,-3.5525,-3.5244,-3.4417,-3.3526,-3.2641,-3.1891,-3.1019,-3.0404,-3.0404,-3.0404,-3.0404,-3.0404,-3.0404,-3.0404,-3.0404,-3.0404,-3.0404,-3.0404,-3.0404,-3.0404,-3.0404,-3.0404,-3.0404,-3.0404,-3.0404,-3.0404,-3.0404,-3.0404,-3.0404,-3.0404,-3.0404,-3.0404,-3.0404,-3.0404,-3.0404,-3.0404,-3.0404,-3.0404,-3.0404,-3.1231,-3.1641,-3.166,-3.2468,-3.3276,-2.9424,-2.9626,-2.979,-2.9465,-2.9402,-2.9351,-2.9156,-2.9044,-2.9028,-2.9089,-2.9209,-2.9537,-3.0356,-3.2585,-3.4631,-3.5645,-3.8056,-3.9862,-4.0062,-4.0339,-4.0573,-4.0804,-4.1393,-4.1885,-4.2104,-4.3258,-4.3566,0.0,-4.2047,-4.1692,-4.1489,-4.0889,-4.0589,-4.0692,-4.0751,-4.0856,-4.0994,-4.1129,-4.1191,-4.1191,-4.0547,-4.0117,-3.9863,-3.8555,-3.7832,-3.7578,-3.6719,-3.6328,-3.6309,-3.6094,-3.5996,-3.5996,-3.5996,-3.5996,-3.5996,-3.5996,-3.5996,-3.5996,-3.5996,-3.5996,-3.5996,-3.5996,-3.5996,-3.5995,-3.5914,-3.5875,-3.5802,-3.5654,-3.512,-3.4544,-3.4276,-3.3103,-3.1948,-3.1756,-3.1019,-3.0404,-3.0404,-3.0404,-3.0404,-3.0404,-3.0404,-3.0404,-3.0404,-3.0404,-3.0404,-3.0404,-3.0404,-3.0404,-3.0404,-3.0404,-3.0404,-3.0404,-3.0404,-3.0404,-3.0404,-3.0404,-3.0404,-3.0404,-3.0404,-3.0404,-3.0404,-3.0404,-3.0404,-3.0404,-3.0404,-3.0404,-3.0404,-3.0615,-3.0731,-3.075,-3.1621,-3.2122,-2.9394,-2.9561,-2.9678,-2.9464,-2.9402,-2.933,-2.9055,-2.9005,-2.9005,-2.9005,-2.9005,-2.9244,-3.0063,-3.2047,-3.3926,-3.508,-3.7446,-3.9429,-4.0336,-4.0387,-4.0652,-4.1538,-4.1739,-4.1942,-4.2335,-4.322,-4.3585,-4.3124,-4.2643,-4.22,-4.1808,-4.0969,-4.0523,-4.061,-4.0661,-4.0795,-4.0994,-4.1078,-4.1149,-4.1191,-4.0312,-3.9707,-3.9277,-3.793,-3.709,-3.6699,0.0,-3.5996,-3.5996,-3.5996,-3.5996,-3.5996,-3.5996,-3.5996,-3.5996,-3.5996,-3.5996,-3.5996,-3.5996,-3.5996,-3.5996,-3.5996,-3.5996,-3.5995,-3.5914,-3.5901,-3.586,-3.5663,-3.4972,-3.4206,-3.3749,-3.266,-3.1602,-3.1212,-3.075,-3.0404,-3.0404,-3.0404,-3.0404,-3.0404,-3.0404,-3.0404,-3.0404,-3.0404,-3.0404,-3.0404,-3.0404,-3.0404,-3.0404,-3.0404,-3.0404,-3.0404,-3.0404,-3.0404,-3.0404,-3.0404,-3.0404,-3.0404,-3.0404,-3.0404,-3.0404,-3.0404,-3.0404,-3.0404,-3.0404,-3.0404,-3.0404,-3.0404,-3.0404,-3.0404,-3.0904,-3.1327,-2.9341,-2.9402,-2.9402,-2.9402,-2.9372,-2.9289,-2.9044,-2.9005,-2.9005,-2.9005,-2.9005,-2.9244,-3.0063,-3.1531,-3.3133,-3.4747,-3.6623,-3.8602,-4.0618,-4.0433,-4.0807,-4.2695,-4.2258,-4.2104,-4.2854,-4.3028,-4.3104,-4.3104,-4.2989,-4.2604,-4.1846,-4.0969,-4.0496,-4.0496,-4.052,-4.0607,-4.0796,-4.0697,-4.0704,-4.082,-3.9961,-3.916,-3.8398,-3.7519,-3.6719,-3.5996,0.0,0.0,-3.5996,-3.5996,-3.5996,-3.5996,-3.5996,-3.5996,-3.5996,-3.5996,-3.5996,-3.5996,-3.5996,-3.5996,-3.5996,-3.5996,-3.5996,-3.5995,-3.5914,-3.5823,-3.5687,-3.5506,-3.4744,-3.3786,-3.2964,-3.2152,-3.1357,-3.0583,-3.0404,-3.0404,-3.0404,-3.0404,-3.0404,-3.0404,-3.0404,-3.0404,-3.0404,-3.0404,-3.0404,-3.0404,-3.0404,-3.0404,-3.0404,-3.0404,-3.0404,-3.0404,-3.0404,-3.0404,-3.0404,-3.0404,-3.0404,-3.0404,-3.0404,-3.0404,-3.0404,-3.0404,-3.0404,-3.0404,-3.0404,-3.0404,-3.0404,-3.0404,-3.0404,-3.0404,-3.0404,-3.0808,-2.9392,-2.9402,-2.9402,-2.9402,-2.9225,-2.9055,-2.9017,-2.9005,-2.9005,-2.9005,-2.9005,-2.9244,-3.0063,-3.1531,-3.3133,-3.4747,-3.6623,-3.8602,-4.0618,-4.0433,-4.0577,-4.186,-4.1885,-4.1865,-4.2,-4.2681,-4.3104,-4.3104,-4.2431,-4.1962,-4.1808,-4.0969,-4.0496,-4.0496,-3.9928,-3.9633,-3.9685,-3.9132,-3.8857,-3.8884,-3.8103,-3.7676,-3.75,-3.6621,-3.6133,-3.5996,0.0,0.0,-3.5996,-3.5996,-3.5996,-3.5996,-3.5996,-3.5996,-3.5996,-3.5996,-3.5996,-3.5996,-3.5996,-3.5996,-3.5996,-3.5996,-3.5996,-3.5995,-3.5914,-3.5394,-3.4813,-3.4711,-3.3533,-3.2264,-3.2043,-3.1357,-3.0651,-3.0452,-3.0404,-3.0404,-3.0404,-3.0404,-3.0404,-3.0404,-3.0404,-3.0404,-3.0404,-3.0404,-3.0404,-3.0404,-3.0404,-3.0404,-3.0404,-3.0404,-3.0404,-3.0404,-3.0404,-3.0404,-3.0404,-3.0404,-3.0404,-3.0404,-3.0404,-3.0404,-3.0404,-3.0404,-3.0404,-3.0404,-3.0404,-3.0404,-3.0404,-3.0404,-3.0404,-3.0404,-3.0404,-3.0481,-2.9361,-2.9483,-2.957,-2.957,-2.9456,-2.9345,-2.9235,-2.91,-2.9005,-2.9005,-2.9005,-2.9244,-3.0063,-3.1531,-3.2986,-3.4179,-3.6238,-3.8431,-4.0599,-4.0295,-4.0508,-4.2275,-4.1681,-4.1123,-4.1123,-4.1489,-4.1739,-4.1739,-4.1354,-4.1316,-4.1769,-4.0969,-4.0304,-3.99,-3.9525,-3.9155,-3.8778,-3.8458,-3.8341,-3.8385,-3.7544,-3.7183,-3.7217,-3.6358,-3.5948,-3.5948,-3.5976,0.0,-3.5996,-3.5996,-3.5996,-3.5996,-3.5996,-3.5996,-3.5996,-3.5996,-3.5996,-3.5996,-3.5996,-3.5996,-3.5996,-3.5996,-3.5684,-3.5234,-3.4741,-3.4307,-3.395,-3.3884,-3.2954,-3.1948,-3.1863,-3.122,-3.0537,-3.0477,-3.0442,-3.0442,-3.0442,-3.0442,-3.0441,-3.0421,-3.0404,-3.0404,-3.0404,-3.0404,-3.0404,-3.0404,-3.0404,-3.0404,-3.0404,-3.0404,-3.0404,-3.0404,-3.0404,-3.0404,-3.0404,-3.0404,-3.0404,-3.0404,-3.0404,-3.0404,-3.0404,-3.0404,-3.0404,-3.0404,-3.0404,-3.0404,-3.0404,-3.0404,-3.0404,-3.0404,-3.0404,-3.0404,-2.9384,-2.9513,-2.9588,-2.972,-2.9705,-2.9598,-2.9434,-2.9235,-2.9067,-2.9017,-2.9005,-2.9299,-3.0283,-3.1494,-3.2711,-3.388,-3.5844,-3.8007,-4.0239,-4.0014,-4.0379,-4.2474,-4.1407,-4.0496,-4.0496,-4.0496,-4.0496,-4.0496,-4.0496,0.0,-4.1489,-4.07,-3.9958,-3.9323,-3.8938,-3.8451,-3.7881,-3.7721,-3.7698,-3.7783,-3.7079,-3.6776,-3.6863,-3.6179,-3.5873,-3.5903,-3.597,0.0,0.0,-3.5996,-3.5996,-3.5996,-3.5996,-3.5996,-3.5996,-3.5996,-3.5996,-3.5976,-3.5781,-3.5723,-3.5664,-3.5293,-3.4961,-3.457,-3.3887,-3.3437,-3.3124,-3.309,-3.2441,-3.1753,-3.1656,-3.1131,-3.0592,-3.0541,-3.0517,-3.0517,-3.0517,-3.0517,-3.0507,-3.0442,-3.0441,-3.043,-3.0422,-3.0417,-3.0425,-3.041,-3.0404,-3.0404,-3.0404,-3.0404,-3.0404,-3.0404,-3.0404,-3.0404,-3.0404,-3.0404,-3.0404,-3.0404,-3.0404,-3.0404,-3.0404,-3.0404,-3.0404,-3.0404,-3.0404,-3.0404,-3.0404,-3.0404,-3.0404,-3.0404,-3.0404,-3.0404,-2.9542,-2.9367,-2.9209,-2.9818,-2.9705,-2.9414,-2.9412,-2.9382,-2.9289,-2.9044,-2.9005,-2.9464,-3.0999,-3.1415,-3.2247,-3.4527,-3.5752,-3.71,-3.9072,-3.9501,-4.0056,-4.1312,-4.0893,-4.0496,-4.0496,-4.0496,-4.0496,-4.0496,-4.0496,0.0,-4.0631,-3.9861,-3.9381,-3.9304,-3.7757,-3.6918,-3.6836,-3.6159,-3.5858,-3.5863,-3.5823,-3.5827,-3.5833,-3.5756,-3.5775,-3.5901,-3.5907,0.0,0.0,-3.5996,-3.5996,-3.5996,-3.5996,-3.5996,-3.5996,-3.5996,-3.5996,-3.5898,-3.5098,-3.4824,-3.457,-3.3047,-3.3516,-3.4687,-3.4609,-3.3516,-3.2305,-3.2304,-3.1679,-3.0975,-3.0836,-3.0747,-3.0677,-3.0611,-3.0594,-3.0594,-3.0594,-3.0594,-3.0591,-3.0581,-3.0581,-3.0554,-3.0503,-3.0485,-3.0463,-3.0408,-3.0404,-3.0404,-3.0404,-3.0404,-3.0404,-3.0404,-3.0404,-3.0404,-3.0404,-3.0404,-3.0404,-3.0404,-3.0404,-3.0404,-3.0404,-3.0404,-3.0404,-3.0404,-3.0404,-3.0404,-3.0404,-3.0404,-3.0404,-3.0404,-3.0404,-3.0404,-2.9652,-2.9561,-2.9514,-2.9897,-2.9696,-2.9424,-2.9542,-2.9355,-2.9134,-2.9028,-2.939,-3.0081,-3.1195,-3.1788,-3.2761,-3.4692,-3.572,-3.6975,-3.8939,-3.9257,-3.9799,-4.1147,-4.0673,-4.033,-4.0481,-4.0496,-4.0496,-4.0496,-4.0496,0.0,-3.9804,-3.9477,-3.9073,-3.8527,-3.7334,-3.6462,-3.5981,-3.5689,-3.5556,-3.5611,-3.5599,-3.5591,-3.5648,-3.5648,-3.5674,-3.5737,-3.5853,0.0,0.0,-3.5975,-3.5996,-3.5996,-3.5996,-3.5996,-3.5937,-3.541,-3.5215,-3.5098,-3.4219,-3.3926,-3.3809,-3.3144,-3.3047,-3.3105,-3.2578,-3.1953,-3.1426,-3.1426,-3.1172,-3.0898,-3.0837,-3.0768,-3.0716,-3.0761,-3.0726,-3.0667,-3.0667,-3.0667,-3.0657,-3.0614,-3.0603,-3.0594,-3.0561,-3.0554,-3.0559,-3.0517,-3.0528,-3.0507,-3.0472,-3.0462,-3.0462,-3.0462,-3.0422,-3.0404,-3.0404,-3.0404,-3.0404,-3.0404,-3.0404,-3.0404,-3.0404,-3.0404,-3.0404,-3.0404,-3.0404,-3.0404,-3.0404,-3.0404,-3.0404,-3.0404,-3.0404,-3.0404,-2.9705,-2.9705,-2.9756,-2.9954,-2.9729,-2.9532,-2.967,-2.9387,-2.9163,-2.9322,-2.9812,-3.0522,-3.1549,-3.2228,-3.3041,-3.4417,-3.5587,-3.6785,-3.8145,-3.8984,-3.9844,-4.087,-4.0593,-4.0384,-4.0576,-4.0464,-4.0406,-4.0489,-4.0285,0.0,-3.9323,-3.8815,-3.8257,-3.7623,-3.6788,-3.6077,-3.5519,-3.55,-3.5528,-3.556,-3.5522,-3.5528,-3.5566,-3.5566,-3.5588,-3.5601,0.0,0.0,0.0,-3.5926,-3.5817,-3.5583,-3.5605,-3.5469,-3.5156,-3.4531,-3.4316,-3.4199,-3.334,-3.3047,-3.3008,-3.2734,-3.2285,-3.1699,-3.1094,-3.0898,-3.0898,-3.0898,-3.0898,-3.0898,-3.0898,-3.0836,-3.0771,-3.0879,-3.0836,-3.0768,-3.0768,-3.0768,-3.0742,-3.0691,-3.0683,-3.0678,-3.0641,-3.0638,-3.0611,-3.0609,-3.0603,-3.0584,-3.0537,-3.0529,-3.0529,-3.0529,-3.0491,-3.0456,-3.0439,-3.0433,-3.0417,-3.0404,-3.0404,-3.0408,-3.0433,-3.0433,-3.0436,-3.0452,-3.0436,-3.0436,-3.0457,-3.0431,-3.0408,-3.0433,-3.0408,-3.0404,-2.9705,-2.9705,-2.9756,-2.9954,-2.9845,-2.9696,-2.9705,-2.9533,-2.9543,-3.0085,-3.0191,-3.0687,-3.2289,-3.2583,-3.2858,-3.3678,-3.5202,-3.6303,-3.6336,-3.8604,-4.0282,-4.0314,-4.0603,-4.0789,-4.0789,-4.0384,-4.0213,-4.0481,0.0,0.0,-3.9304,-3.7661,-3.6712,-3.6712,-3.5923,-3.5519,-3.55,-3.55,-3.55,-3.55,-3.55,-3.55,-3.55,-3.55,-3.554,0.0,0.0,0.0,0.0,-3.5843,-3.5394,-3.4617,-3.4685,-3.4199,-3.3437,-3.3418,-3.3418,-3.3301,-3.248,-3.2207,-3.207,-3.1211,-3.0918,-3.0918,-3.0898,-3.0898,-3.0898,-3.0898,-3.0898,-3.0898,-3.0898,-3.0898,-3.0898,-3.0898,-3.0898,-3.0898,-3.0898,-3.0898,-3.0898,-3.0898,-3.0898,-3.0858,-3.072,-3.0695,-3.0679,-3.0617,-3.0603,-3.0603,-3.0603,-3.0603,-3.0603,-3.0603,-3.0603,-3.0568,-3.0507,-3.0498,-3.0463,-3.0396,-3.0404,-3.0433,-3.0494,-3.0498,-3.0529,-3.06,-3.0533,-3.0533,-3.06,-3.0467,-3.0425,-3.0494,-3.0439,-3.0404,-2.9908,-2.9705,-2.9533,-2.9738,-2.9504,-2.928,-2.9445,-2.9301,-2.9321,-3.0038,-3.0632,-3.1329,-3.2399,-3.3041,-3.388,-3.5275,-3.6427,-3.7309,-3.7863,-3.9145,-3.9897,-3.9505,-3.9771,-3.9984,-3.9984,-4.0053,-3.9881,-3.9382,0.0,0.0,-3.7584,-3.7,-3.6692,-3.6692,-3.5923,-3.55,-3.55,-3.55,-3.55,-3.5481,-3.4911,-3.493,-3.5481,-3.4872,0.0,0.0,0.0,0.0,0.0,-3.513,-3.4818,-3.4536,-3.3967,-3.3609,-3.332,-3.2773,-3.2578,-3.2461,-3.1601,-3.1309,-3.1269,-3.0996,-3.0898,-3.0898,-3.0898,-3.0898,-3.0898,-3.0898,-3.0898,-3.0898,-3.0898,-3.0898,-3.0898,-3.0898,-3.0898,-3.0898,-3.0898,-3.0898,-3.0898,-3.0898,-3.0898,-3.0898,-3.0838,-3.0837,-3.0836,-3.081,-3.0809,-3.0762,-3.0677,-3.0673,-3.0673,-3.0673,-3.0673,-3.065,-3.0571,-3.0565,-3.0551,-3.0537,-3.0537,-3.0552,-3.0565,-3.0565,-3.0578,-3.0603,-3.0578,-3.0578,-3.0603,-3.0567,-3.0552,-3.0565,-3.0552,-3.0537,-2.9908,-2.9705,-2.9532,-2.957,-2.9365,-2.9181,-2.9361,-2.9422,-2.9684,-3.0485,-3.1292,-3.21,-3.2908,-3.3458,-3.4137,-3.5183,-3.6317,-3.7217,-3.7716,-3.9001,-3.9789,-3.9437,-3.9602,-3.9638,-3.9427,-3.9599,-3.9477,-3.8842,0.0,0.0,-3.6769,-3.6404,-3.625,-3.625,-3.5769,-3.55,-3.55,-3.55,-3.55,-3.5481,-3.4949,-3.4968,-3.5481,-3.4949,0.0,0.0,0.0,0.0,0.0,-3.4139,-3.3806,-3.3482,-3.3007,-3.2622,-3.2321,-3.1875,-3.1719,-3.1621,-3.1094,-3.0898,-3.0898,-3.0898,-3.0898,-3.0898,-3.0898,-3.0898,-3.0898,-3.0898,-3.0898,-3.0898,-3.0898,-3.0898,-3.0898,-3.0898,-3.0898,-3.0898,-3.0898,-3.0898,-3.0898,-3.0898,-3.0898,-3.0898,-3.0898,-3.0898,-3.0898,-3.0898,-3.0898,-3.0878,-3.0792,-3.0771,-3.0771,-3.0771,-3.0771,-3.0764,-3.0718,-3.0678,-3.0636,-3.0606,-3.0603,-3.0617,-3.0645,-3.0645,-3.0657,-3.0716,-3.0657,-3.0657,-3.0716,-3.0657,-3.0614,-3.0603,-3.0603,-3.0603,0.0,-2.9678,-2.9625,-2.9424,-2.9372,-2.9372,-2.9372,-2.9799,0.0,-3.1231,-3.2045,-3.2858,-3.3733,-3.3899,-3.3917,-3.4045,-3.5459,-3.6541,-3.6486,-3.8395,-3.9808,-3.9808,-3.9808,-3.9614,-3.9124,-3.9043,-3.8921,0.0,0.0,0.0,-3.6647,-3.5904,-3.55,-3.55,-3.5442,-3.5442,-3.55,-3.5442,-3.5404,-3.5404,-3.5346,-3.5346,-3.5404,-3.5346,0.0,0.0,0.0,0.0,0.0,-3.2966,-3.2536,-3.1818,-3.1878,-3.1394,-3.0718,-3.0837,-3.0898,-3.0898,-3.0898,-3.0898,-3.0898,-3.0898,-3.0898,-3.0898,-3.0898,-3.0898,-3.0898,-3.0898,-3.0898,-3.0898,-3.0898,-3.0898,-3.0898,-3.0898,-3.0898,-3.0898,-3.0898,-3.0898,-3.0898,-3.0898,-3.0898,-3.0898,-3.0898,-3.0898,-3.0898,-3.0898,-3.0898,-3.0898,-3.0898,-3.0898,-3.0898,-3.0898,-3.0898,-3.0898,-3.0898,-3.0792,-3.0682,-3.0625,-3.062,-3.065,-3.0717,-3.0718,-3.077,-3.0898,-3.0771,-3.0771,-3.0898,-3.0771,-3.0679,-3.062,-3.062,-3.062,-2.9474,0.0,-2.9414,-2.9167,-2.9089,-2.9089,0.0,-2.9669,-3.043,-3.1231,-3.2045,-3.3023,-3.4454,-3.4729,-3.5133,-3.6427,-3.7988,-3.8836,-3.823,-3.8615,-3.8982,-3.8982,-3.8982,-3.8921,-3.8807,-3.8414,-3.7997,0.0,0.0,-3.6343,-3.582,-3.5596,-3.55,-3.55,-3.4853,-3.4834,-3.5481,-3.4834,-3.4507,-3.4507,-3.3833,-3.3853,-3.4468,-3.3814,0.0,0.0,0.0,0.0,-3.2859,-3.2266,-3.1939,-3.1742,-3.1103,-3.0795,-3.0696,-3.0743,-3.0815,-3.0898,-3.0898,-3.0898,-3.0898,-3.0898,-3.0898,-3.0898,-3.0898,-3.0898,-3.0898,-3.0898,-3.0898,-3.0898,-3.0898,-3.0898,-3.0898,-3.0898,-3.0898,-3.0898,-3.0898,-3.0898,-3.0898,-3.0898,-3.0898,-3.0898,-3.0898,-3.0898,-3.0898,-3.0898,-3.0898,-3.0898,-3.0898,-3.0898,-3.0898,-3.0898,-3.0898,-3.0898,-3.0898,-3.0878,-3.0857,-3.0834,-3.0833,-3.0835,-3.0858,-3.0858,-3.0878,-3.0898,-3.0878,-3.0878,-3.0898,-3.0878,-3.0837,-3.0833,-3.0833,-3.0833,-2.9443,-2.9588,-2.9725,-2.9584,-2.9831,-3.0099,-3.0099,-3.0723,-3.1421,-3.1861,-3.2596,-3.3518,-3.4766,-3.5004,-3.5555,-3.7235,-3.8227,-3.8796,-3.8707,-3.8707,-3.8707,-3.8707,-3.8707,-3.856,0.0,-3.7884,0.0,0.0,0.0,-3.5882,-3.5354,-3.5055,-3.4911,-3.4911,-3.4064,-3.4026,-3.4911,-3.4045,-3.3603,-3.3603,-3.3122,-3.3141,-3.3583,-3.3122,-3.2968,0.0,0.0,0.0,-3.1712,-3.1269,-3.113,-3.1114,-3.067,-3.0533,-3.0625,-3.068,-3.0745,-3.0816,-3.0879,-3.0898,-3.0898,-3.0898,-3.0898,-3.0898,-3.0898,-3.0898,-3.0898,-3.0898,-3.0898,-3.0898,-3.0898,-3.0898,-3.0898,-3.0898,-3.0898,-3.0898,-3.0898,-3.0898,-3.0898,-3.0898,-3.0898,-3.0898,-3.0898,-3.0898,-3.0898,-3.0898,-3.0898,-3.0898,-3.0898,-3.0898,-3.0898,-3.0898,-3.0898,-3.0898,-3.0898,-3.0898,-3.0898,-3.0898,-3.0898,-3.0898,-3.0898,-3.0898,-3.0898,-3.0898,-3.0898,-3.0898,-3.0898,-3.0898,-3.0898,-3.0898,-3.0898,-3.0898,-2.9533,-2.9946,-3.0356,-3.0228,-3.0797,-3.1397,-3.1397,-3.2027,-3.2601,-3.2601,-3.3238,-3.4082,-3.5023,-3.5298,-3.5922,-3.7603,-3.7878,-3.8098,-3.8799,-3.8781,-3.8707,-3.8707,-3.8597,0.0,-3.7566,0.0,0.0,0.0,0.0,-3.5283,-3.4916,-3.4304,-3.3968,-3.3994,-3.316,-3.3064,-3.3821,-3.3083,-3.2718,-3.2718,-3.2718,-3.2718,-3.2718,-3.2718,-3.2333,0.0,0.0,0.0,-3.0404,-3.0404,-3.0404,-3.0416,-3.0467,-3.0485,-3.0505,-3.0638,-3.0679,-3.0692,-3.0836,-3.0878,-3.0878,-3.0898,-3.0898,-3.0898,-3.0898,-3.0898,-3.0898,-3.0898,-3.0898,-3.0898,-3.0898,-3.0898,-3.0898,-3.0898,-3.0898,-3.0898,-3.0898,-3.0898,-3.0898,-3.0898,-3.0898,-3.0898,-3.0898,-3.0898,-3.0898,-3.0898,-3.0898,-3.0898,-3.0898,-3.0898,-3.0898,-3.0898,-3.0898,-3.0898,-3.0898,-3.0898,-3.0898,-3.0898,-3.0898,-3.0898,-3.0898,-3.0898,-3.0898,-3.0898,-3.0898,-3.0898,-3.0898,-3.0898,-3.0898,-3.0898,-3.0898,-3.0898,-2.9906,-3.0631,-3.1048,-3.0375,-3.0797,-3.1397,-3.1397,-3.2027,-3.2601,-3.2601,-3.3238,-3.4266,-3.5826,-3.6666,-3.7658,-3.9258,-3.953,-3.957,-3.9698,-3.9129,-3.8707,-3.8707,0.0,-3.7639,0.0,0.0,0.0,0.0,0.0,-3.3611,-3.3974,-3.3264,-3.2922,-3.3096,-3.2314,-3.1948,-3.2083,-3.1948,-3.1891,-3.1891,-3.1891,-3.1891,-3.1891,-3.1891,-3.1814,0.0,0.0,-3.0519,-3.0404,-3.0404,-3.0404,-3.0404,-3.0414,-3.0462,-3.0503,-3.0521,-3.0565,-3.0633,-3.071,-3.0722,-3.0746,-3.0858,-3.0898,-3.0898,-3.0898,-3.0898,-3.0898,-3.0898,-3.0898,-3.0898,-3.0898,-3.0898,-3.0898,-3.0898,-3.0898,-3.0898,-3.0898,-3.0898,-3.0898,-3.0898,-3.0898,-3.0898,-3.0898,-3.0898,-3.0898,-3.0898,-3.0898,-3.0898,-3.0898,-3.0898,-3.0898,-3.0898,-3.0898,-3.0898,-3.0898,-3.0898,-3.0898,-3.0898,-3.0898,-3.0898,-3.0898,-3.0898,-3.0898,-3.0898,-3.0898,-3.0898,-3.0898,-3.0898,-3.0898,-3.0898,-3.0898,-3.0898,-2.9445,-3.0467,-3.1323,-3.0944,-3.177,-3.2687,-3.2687,-3.2981,-3.3371,-3.3812,-3.4197,-3.4963,-3.6648,-3.7254,-3.7878,-3.9056,-3.9625,-3.9753,-3.9313,-3.856,-3.8046,0.0,0.0,-3.667,0.0,0.0,0.0,0.0,0.0,0.0,-3.2732,-3.2207,-3.1935,-3.2022,-3.136,-3.1,-3.1,-3.1,-3.1,-3.1,-3.1,-3.1,-3.1,-3.1,-3.1,-3.0981,0.0,-3.0404,-3.0404,-3.0404,-3.0404,-3.0404,-3.0404,-3.0431,-3.0442,-3.0495,-3.0548,-3.0609,-3.0643,-3.0675,-3.0717,-3.077,-3.0838,-3.0898,-3.0898,-3.0898,-3.0898,-3.0898,-3.0898,-3.0898,-3.0898,-3.0898,-3.0898,-3.0898,-3.0898,-3.0898,-3.0898,-3.0898,-3.0898,-3.0898,-3.0898,-3.0898,-3.0898,-3.0898,-3.0898,-3.0898,-3.0898,-3.0898,-3.0898,-3.0898,-3.0898,-3.0898,-3.0898,-3.0898,-3.0898,-3.0898,-3.0898,-3.0898,-3.0898,-3.0898,-3.0898,-3.0898,-3.0898,-3.0898,-3.0898,-3.0898,-3.0898,-3.0898,-3.0898,-3.0898,-3.0898,-3.0898,-2.9225,-3.0173,-3.1158,-3.136,-3.2467,-3.3623,-3.4009,-3.3935,-3.4082,-3.5096,-3.5298,-3.5738,-3.7235,-3.7804,-3.8208,-3.8634,-3.9386,-3.9551,-3.856,-3.7896,-3.7437,-3.7235,-3.6486,0.0,0.0,0.0,0.0,0.0,0.0,0.0,-3.1558,-3.1091,-3.0893,-3.0986,-3.0547,-3.0349,-3.0404,-3.0404,-3.0404,-3.0404,-3.0404,-3.0404,-3.0404,-3.0404,-3.0404,-3.0404,-3.0404,-3.0404,-3.0404,-3.0404,-3.0404,-3.0404,-3.0404,-3.0404,-3.0416,-3.0457,-3.0511,-3.0563,-3.0568,-3.0617,-3.0663,-3.0675,-3.0759,-3.0833,-3.0833,-3.0836,-3.0858,-3.0858,-3.0878,-3.0898,-3.0898,-3.0898,-3.0898,-3.0898,-3.0898,-3.0898,-3.0898,-3.0898,-3.0898,-3.0898,-3.0898,-3.0898,-3.0898,-3.0898,-3.0898,-3.0898,-3.0898,-3.0898,-3.0898,-3.0898,-3.0898,-3.0898,-3.0898,-3.0898,-3.0898,-3.0898,-3.0898,-3.0898,-3.0898,-3.0898,-3.0898,-3.0898,-3.0898,-3.0898,-3.0898,-3.0898,-3.0898,-3.0898,-3.0898,-3.0898,-3.0898,-3.0898,-2.9916,-3.021,-3.0467,-3.1213,-3.2045,-3.3078,-3.4582,-3.4325,-3.4266,-3.5862,-3.6211,-3.6468,-3.7345,-3.8723,-3.9496,-3.8817,-3.9386,-3.9365,-3.7804,0.0,-3.7217,-3.6468,0.0,0.0,0.0,0.0,0.0,0.0,0.0,0.0,-3.0677,-2.9965,0.0,-3.0087,-3.0059,-3.015,-3.0404,-3.0404,-3.0404,-3.0404,-3.0404,-3.0404,-3.0404,-3.0404,-3.0404,-3.0404,-3.0404,-3.0404,-3.0404,-3.0404,-3.0404,-3.0404,-3.0404,-3.0404,-3.0404,-3.0416,-3.0408,-3.0417,-3.0491,-3.052,-3.0521,-3.0587,-3.0617,-3.062,-3.062,-3.0663,-3.0718,-3.0718,-3.0794,-3.0898,-3.0898,-3.0898,-3.0898,-3.0898,-3.0898,-3.0898,-3.0898,-3.0898,-3.0898,-3.0898,-3.0898,-3.0898,-3.0898,-3.0898,-3.0898,-3.0898,-3.0898,-3.0898,-3.0898,-3.0898,-3.0898,-3.0898,-3.0898,-3.0898,-3.0898,-3.0898,-3.0898,-3.0898,-3.0898,-3.0898,-3.0898,-3.0898,-3.0898,-3.0898,-3.0898,-3.0898,-3.0898,-3.0898,-3.0898,-3.0898,-3.0898,-3.0898,-2.9372,-3.0173,-3.1029,-3.1323,-3.2008,-3.2894,-3.3995,-3.4399,-3.5023,-3.6703,-3.7052,-3.7144,-3.7437,-3.8006,-3.8153,-3.7331,-3.7459,-3.7441,-3.685,-3.6285,-3.5844,-3.5518,0.0,0.0,0.0,0.0,0.0,0.0,0.0,0.0,0.0,-2.9477,0.0,-2.9607,-2.9869,-3.0054,-3.015,-3.0311,-3.0404,-3.0404,-3.0404,-3.0404,-3.0404,-3.0404,-3.0404,-3.0404,-3.0404,-3.0404,-3.0404,-3.0404,-3.0404,-3.0404,-3.0404,-3.0404,-3.0404,-3.0404,-3.0404,-3.039,-3.0433,-3.0472,-3.0507,-3.0529,-3.0561,-3.0603,-3.0603,-3.0625,-3.0645,-3.0645,-3.0705,-3.0793,-3.0879,-3.0898,-3.0898,-3.0898,-3.0898,-3.0898,-3.0898,-3.0898,-3.0898,-3.0898,-3.0898,-3.0898,-3.0898,-3.0898,-3.0898,-3.0898,-3.0898,-3.0898,-3.0898,-3.0898,-3.0898,-3.0898,-3.0898,-3.0898,-3.0898,-3.0898,-3.0898,-3.0898,-3.0898,-3.0898,-3.0898,-3.0898,-3.0898,-3.0898,-3.0898,-3.0898,-3.0898,-3.0898,-3.0898,-3.0898,-3.0898,-3.0898,-2.9395,-3.0375,-3.1397,-3.1397,-3.2192,-3.3201,-3.4009,-3.4601,-3.5481,-3.7162,-3.7492,-3.7419,-3.718,-3.7125,-3.6835,-3.6028,-3.6119,-3.6193,-3.5936,-3.5151,-3.4527,0.0,0.0,0.0,0.0,0.0,0.0,0.0,0.0,0.0,0.0,0.0,0.0,0.0,-2.9739,-2.9939,-2.9999,-3.0189,-3.0267,-3.0267,-3.0267,-3.0317,-3.0404,-3.0404,-3.0404,-3.0404,-3.0404,-3.0404,-3.0404,-3.0404,-3.0404,-3.0404,-3.0404,-3.0404,-3.0404,-3.0404,-3.0404,-3.0404,-3.0404,-3.0433,-3.0477,-3.0477,-3.0494,-3.0537,-3.0537,-3.0559,-3.0565,-3.0565,-3.0625,-3.068,-3.0784,-3.0856,-3.0898,-3.0898,-3.0898,-3.0898,-3.0898,-3.0898,-3.0898,-3.0898,-3.0898,-3.0898,-3.0898,-3.0898,-3.0898,-3.0898,-3.0898,-3.0898,-3.0898,-3.0898,-3.0898,-3.0898,-3.0898,-3.0898,-3.0898,-3.0898,-3.0898,-3.0898,-3.0898,-3.0898,-3.0898,-3.0898,-3.0898,-3.0898,-3.0898,-3.0898,-3.0898,-3.0898,-3.0898,-3.0898,-3.0898,-3.0898,-3.0256,-3.0779,-3.1397,-3.1397,-3.2596,-3.4009,-3.4821,-3.5023,-3.5481,-3.7162,-3.7492,-3.7235,-3.6431,-3.6285,-3.6009,-3.5133,-3.5701,-3.5973,-3.5096,-3.4289,0.0,0.0,0.0,0.0,0.0,0.0,0.0,0.0,0.0,0.0,0.0,0.0,0.0,0.0,-2.9598,-2.9788,-2.9999,-2.9999,-2.9999,-2.9999,-2.9999,-3.0136,-3.0398,-3.0404,-3.0404,-3.0404,-3.0404,-3.0404,-3.0404,-3.0404,-3.0404,-3.0404,-3.0404,-3.0404,-3.0404,-3.0404,-3.0404,-3.0404,-3.0404,-3.0404,-3.0404,-3.0404,-3.0404,-3.0404,-3.0404,-3.0451,-3.0498,-3.0498,-3.0556,-3.0603,-3.0603,-3.075,-3.0898,-3.0898,-3.0898,-3.0898,-3.0898,-3.0898,-3.0898,-3.0898,-3.0898,-3.0898,-3.0898,-3.0898,-3.0898,-3.0898,-3.0898,-3.0898,-3.0898,-3.0898,-3.0898,-3.0898,-3.0898,-3.0898,-3.0898,-3.0898,-3.0898,-3.0898,-3.0898,-3.0898,-3.0898,-3.0898,-3.0898,-3.0898,-3.0898,-3.0898,-3.0898,-3.0898,-3.0898,-3.0898,-3.0898,-3.0898,-2.9575,-2.9953,-3.0687,-3.1268,-3.2596,-3.3862,-3.41,-3.5514,-3.689,-3.7401,-3.7052,-3.6395,-3.5536,-3.5389,-3.5114,-3.4302,-3.4376,-3.4247,-3.3426,0.0,0.0,0.0,0.0,0.0,0.0,0.0,0.0,0.0,0.0,0.0,0.0,0.0,0.0,0.0,-2.9363,-2.9523,-2.9579,-2.9722,-2.9788,-2.9788,-2.9788,-2.9901,-3.0129,-3.0311,-3.0404,-3.0404,-3.0404,-3.0404,-3.0404,-3.0404,-3.0404,-3.0404,-3.0404,-3.0404,-3.0404,-3.0404,-3.0404,-3.0404,-3.0404,-3.0404,-3.0404,-3.0404,-3.0404,-3.0404,-3.0404,-3.0419,-3.0433,-3.0433,-3.0477,-3.0529,-3.0529,-3.0619,-3.0693,-3.0743,-3.0729,-3.0723,-3.0878,-3.0784,-3.0695,-3.0744,-3.0728,-3.0696,-3.0744,-3.0768,-3.0793,-3.0898,-3.0816,-3.074,-3.0708,-3.0683,-3.0683,-3.0683,-3.0683,-3.0683,-3.0683,-3.0683,-3.0683,-3.0683,-3.0683,-3.0752,-3.0898,-3.0814,-3.0768,-3.0768,-3.0702,-3.0683,-3.0683,-3.0683,-3.0702,-3.0767,-3.0702,-3.0703,-3.0556,-3.1005,-3.1751,-3.2228,-3.333,-3.4376,-3.4706,-3.5679,-3.6597,-3.696,-3.6358,-3.561,-3.5096,-3.4747,-3.4362,-3.388,-3.3532,-3.3146,-3.2674,0.0,0.0,0.0,0.0,0.0,0.0,0.0,0.0,0.0,0.0,0.0,0.0,0.0,0.0,0.0,-2.9257,-2.9402,-2.9402,-2.9523,-2.9579,-2.9579,-2.9579,-2.9634,-2.9763,-3.0095,-3.0305,-3.0404,-3.0404,-3.0404,-3.0404,-3.0404,-3.0404,-3.0404,-3.0404,-3.0404,-3.0404,-3.0404,-3.0404,-3.0404,-3.0404,-3.0404,-3.0404,-3.0404,-3.0404,-3.0404,-3.0404,-3.0404,-3.0404,-3.0404,-3.0433,-3.0462,-3.0462,-3.05,-3.0548,-3.0645,-3.0638,-3.0628,-3.0753,-3.0681,-3.0617,-3.0659,-3.0636,-3.062,-3.0642,-3.0667,-3.0696,-3.078,-3.0705,-3.0652,-3.0611,-3.0603,-3.0603,-3.0603,-3.0603,-3.0603,-3.0603,-3.0603,-3.0603,-3.0603,-3.0603,-3.0643,-3.0781,-3.0702,-3.0667,-3.0667,-3.0628,-3.0603,-3.0603,-3.0603,-3.0628,-3.0665,-3.0625,-3.0628,-3.2336,-3.2981,-3.3605,-3.3678,-3.4289,-3.5114,-3.5973,-3.55,-3.5133,-3.6009,-3.5481,-3.4876,-3.4802,-3.4179,-3.366,-3.3587,-3.2981,-3.2472,-3.2381,0.0,0.0,0.0,0.0,0.0,0.0,0.0,0.0,0.0,0.0,0.0,0.0,0.0,0.0,-2.9005,-2.9235,-2.9361,-2.9361,-2.9361,-2.9361,0.0,-2.9361,-2.9382,-2.9404,-2.9796,-3.0122,-3.0361,-3.0398,-3.0404,-3.0404,-3.0404,-3.0404,-3.0404,-3.0404,-3.0404,-3.0404,-3.0404,-3.0404,-3.0404,-3.0404,-3.0404,-3.0404,-3.0404,-3.0404,-3.0404,-3.0404,-3.0404,-3.0404,-3.0404,-3.0404,-3.0404,-3.0404,-3.0404,-3.0433,-3.054,-3.0581,-3.0584,-3.06,-3.0591,-3.0584,-3.0591,-3.0587,-3.0584,-3.0591,-3.0594,-3.0594,-3.0594,-3.0594,-3.0591,-3.0581,-3.0581,-3.0581,-3.0581,-3.0581,-3.0581,-3.0581,-3.0581,-3.0581,-3.0581,-3.0581,-3.0581,-3.0581,-3.0587,-3.0594,-3.0594,-3.0584,-3.0581,-3.0581,-3.0581,-3.0584,-3.0594,-3.0584,-3.0584,-3.0983,-3.1292,-3.2063,-3.2706,-3.3445,-3.4284,-3.5096,-3.4637,-3.4302,-3.5114,-3.4619,-3.388,-3.3225,-3.2968,-3.2651,-3.2008,-3.177,-3.1439,0.0,0.0,0.0,0.0,0.0,0.0,0.0,0.0,0.0,0.0,0.0,0.0,0.0,0.0,0.0,-2.9005,-2.9062,-2.9078,-2.9078,-2.9078,-2.9078,0.0,-2.9078,-2.9211,-2.9412,-2.9652,-2.9877,-3.0089,-3.0311,-3.0404,-3.0404,-3.0404,-3.0404,-3.0404,-3.0404,-3.0404,-3.0404,-3.0404,-3.0404,-3.0404,-3.0404,-3.0404,-3.0404,-3.0404,-3.0404,-3.0404,-3.0404,-3.0404,-3.0404,-3.0404,-3.0404,-3.0404,-3.0404,-3.0404,-3.0402,-3.0444,-3.0441,-3.0463,-3.0575,-3.0524,-3.0457,-3.052,-3.0477,-3.0457,-3.0501,-3.0517,-3.0517,-3.0517,-3.0517,-3.0503,-3.0456,-3.0441,-3.0441,-3.0441,-3.0441,-3.0441,-3.0441,-3.0441,-3.0441,-3.0441,-3.0441,-3.0441,-3.0441,-3.0485,-3.0517,-3.0517,-3.0477,-3.0441,-3.0441,-3.0441,-3.0477,-3.0513,-3.0472,-3.0463,-3.1551,-3.1753,-3.2173,-3.2981,-3.3495,-3.3917,-3.4325,-3.41,-3.3807,-3.3848,-3.3518,-3.3096,-3.2674,-3.2302,-3.188,-3.147,-3.1085,-3.0687,0.0,0.0,0.0,0.0,0.0,0.0,0.0,0.0,0.0,0.0,0.0,0.0,0.0,-2.9005,-2.9005,-2.9005,-2.9005,-2.9005,-2.9005,-2.9005,-2.9005,-2.9005,-2.9005,-2.9067,-2.9214,-2.9561,-2.9804,-3.0006,-3.0143,-3.0273,-3.0404,-3.0404,-3.0404,-3.0404,-3.0404,-3.0404,-3.0404,-3.0404,-3.0404,-3.0404,-3.0404,-3.0404,-3.0404,-3.0404,-3.0404,-3.0404,-3.0404,-3.0404,-3.0404,-3.0404,-3.0404,-3.0404,-3.0404,-3.0404,-3.0404,-3.0404,-3.0404,-3.0425,-3.0495,-3.0456,-3.0408,-3.0451,-3.0422,-3.0408,-3.0451,-3.0442,-3.0442,-3.0442,-3.0442,-3.0436,-3.0396,-3.0404,-3.0404,-3.0404,-3.0404,-3.0404,-3.0404,-3.0404,-3.0404,-3.0404,-3.0404,-3.0404,-3.0404,-3.0425,-3.0442,-3.0442,-3.0425,-3.0404,-3.0404,-3.0404,-3.0425,-3.0442,-3.0425,-3.0431,-3.2288,-3.26,-3.2784,-3.3605,-3.3807,-3.3807,-3.3807,-3.3697,-3.3403,-3.2729,-3.2601,-3.2509,-3.2234,-3.1641,-3.1146,-3.0999,-3.043,0.0,0.0,0.0,0.0,0.0,0.0,0.0,0.0,0.0,0.0,0.0,0.0,0.0,-2.9005,-2.9005,-2.9005,-2.9005,-2.9005,-2.9005,-2.9005,-2.9005,-2.9005,-2.9005,-2.9005,-2.9005,-2.8998,-2.9407,-2.9695,-2.9901,-2.9977,-3.0129,-3.0323,-3.0373,-3.0367,-3.0343,-3.0373,-3.0367,-3.0349,-3.0373,-3.0404,-3.0404,-3.0404,-3.0404,-3.0404,-3.0404,-3.0404,-3.0404,-3.0404,-3.0404,-3.0404,-3.0404,-3.0404,-3.0404,-3.0404,-3.0404,-3.0404,-3.0404,-3.0404,-3.0404,-3.0404,-3.0404,-3.0404,-3.0404,-3.0404,-3.0404,-3.0404,-3.0404,-3.0404,-3.0404,-3.0404,-3.0404,-3.0404,-3.0404,-3.0404,-3.0404,-3.0404,-3.0404,-3.0404,-3.0404,-3.0404,-3.0404,-3.0404,-3.0404,-3.0404,-3.0404,-3.0404,-3.0404,-3.0404,-3.0404,-3.0404,-3.0404,-3.0404,-3.0404,-3.0404,-3.0404,-3.098,-3.1732,-3.2784,-3.3605,-3.3807,-3.3807,-3.3807,-3.3256,-3.2729,-3.2619,-3.2601,-3.2161,-3.0779,-3.043,-3.0136,-2.9427,-2.9225,0.0,0.0,0.0,0.0,0.0,0.0,0.0,0.0,0.0,0.0,0.0,0.0,0.0,-2.9005,-2.9005,-2.9005,-2.9005,-2.9005,-2.9005,-2.9005,-2.9005,-2.9005,-2.9005,-2.9005,-2.9005,-2.9005,-2.9067,-2.9228,-2.9494,-2.9853,-3.0021,-3.0075,-3.0305,-3.026,-3.0075,-3.0311,-3.026,-3.0082,-3.0311,-3.0404,-3.0404,-3.0404,-3.0404,-3.0404,-3.0404,-3.0404,-3.0404,-3.0404,-3.0404,-3.0404,-3.0404,-3.0404,-3.0404,-3.0404,-3.0404,-3.0404,-3.0404,-3.0404,-3.0404,-3.0404,-3.0404,-3.0404,-3.0404,-3.0404,-3.0404,-3.0404,-3.0404,-3.0404,-3.0404,-3.0404,-3.0404,-3.0404,-3.0404,-3.0404,-3.0404,-3.0404,-3.0404,-3.0404,-3.0404,-3.0404,-3.0404,-3.0404,-3.0404,-3.0404,-3.0404,-3.0404,-3.0404,-3.0404,-3.0404,-3.0404,-3.0404,-3.0404,-3.0404,-3.0404,-3.0404,-3.114,-3.2027,-3.2982,-3.3645,-3.3807,-3.3678,-3.3238,-3.2839,-3.2344,-3.1445,-3.1262,-3.1035,-3.0338,-2.9831,-2.9409,-2.906,-2.9005,0.0,0.0,0.0,0.0,0.0,0.0,0.0,0.0,0.0,0.0,0.0,0.0,-2.9005,-2.9005,-2.9005,-2.9005,-2.9005,-2.9005,-2.9005,-2.9005,-2.9005,-2.9005,-2.9005,-2.9005,-2.9005,-2.9005,-2.9005,-2.9156,-2.9412,-2.9589,-2.9731,-2.9837,-2.995,-2.9935,-2.9853,-3.0095,-3.0096,-3.0028,-3.0305,-3.0404,-3.0404,-3.0404,-3.0404,-3.0404,-3.0404,-3.0404,-3.0404,-3.0404,-3.0404,-3.0404,-3.0404,-3.0404,-3.0404,-3.0404,-3.0404,-3.0404,-3.0404,-3.0404,-3.0404,-3.0404,-3.0404,-3.0404,-3.0404,-3.0404,-3.0404,-3.0404,-3.0404,-3.0404,-3.0404,-3.0404,-3.0404,-3.0404,-3.0404,-3.0404,-3.0404,-3.0404,-3.0404,-3.0404,-3.0404,-3.0404,-3.0404,-3.0404,-3.0404,-3.0404,-3.0404,-3.0404,-3.0404,-3.0404,-3.0404,-3.0404,-3.0404,-3.0404,-3.0404,-3.0404,-3.0404,-3.1374,-3.2064,-3.2605,-3.3154,-3.3447,-3.3421,-3.2742,-3.2436,-3.194,-3.0742,-3.0173,-2.9898,-2.9898,-2.939,-2.9005,-2.9005,-2.9005,0.0,0.0,0.0,0.0,0.0,0.0,0.0,0.0,0.0,0.0,0.0,0.0,-2.9005,-2.9005,-2.9005,-2.9005,-2.9005,-2.9005,-2.9005,-2.9005,-2.9005,-2.9005,-2.9005,-2.9005,-2.9005,-2.9005,-2.9005,-2.9112,-2.9299,-2.9372,-2.9493,-2.9635,-2.9678,-2.967,-2.9634,-2.9845,-2.9893,-2.9877,-3.0135,-3.0248,-3.0305,-3.0305,-3.0349,-3.0404,-3.0404,-3.0404,-3.0404,-3.0404,-3.0404,-3.0404,-3.0404,-3.0404,-3.0404,-3.0404,-3.0404,-3.0404,-3.0404,-3.0404,-3.0404,-3.0404,-3.0404,-3.0404,-3.0404,-3.0404,-3.0404,-3.0404,-3.0404,-3.0404,-3.0404,-3.0404,-3.0404,-3.0404,-3.0404,-3.0404,-3.0404,-3.0404,-3.0404,-3.0404,-3.0404,-3.0404,-3.0404,-3.0404,-3.0404,-3.0404,-3.0323,-3.0305,-3.0305,-3.0241,-3.028,-3.0404,-3.0404,-3.0404,-3.0404,-3.0404,-3.0404,-3.1085,-3.1168,-3.1148,-3.1744,-3.2485,-3.2949,-3.2665,-3.2008,-3.1452,-3.136,-3.0118,-2.906,-2.906,-2.9023,-2.9005,-2.9005,-2.9005,0.0,0.0,0.0,0.0,0.0,0.0,0.0,0.0,0.0,0.0,0.0,0.0,-2.9005,-2.9005,-2.9005,-2.9005,-2.9005,-2.9005,-2.9005,-2.9005,-2.9005,-2.9005,-2.9005,-2.9005,-2.9005,-2.9005,-2.9005,-2.9005,-2.9021,-2.9289,-2.9412,-2.9424,-2.9626,-2.9589,-2.9434,-2.9644,-2.9598,-2.9464,-2.9652,-2.9853,-3.0021,-3.0021,-3.0189,-3.0404,-3.0404,-3.0404,-3.0404,-3.0404,-3.0404,-3.0404,-3.0404,-3.0404,-3.0404,-3.0404,-3.0404,-3.0404,-3.0404,-3.0404,-3.0404,-3.0404,-3.0404,-3.0404,-3.0404,-3.0404,-3.0404,-3.0404,-3.0404,-3.0404,-3.0404,-3.0404,-3.0404,-3.0404,-3.0404,-3.0404,-3.0404,-3.0404,-3.0404,-3.0404,-3.0404,-3.0404,-3.0404,-3.0404,-3.0404,-3.0404,-3.015,-3.0021,-3.0021,-2.9829,-2.9962,-3.0404,-3.0404,-3.0404,-3.0404,-3.0404,-3.0404,-3.1108,-3.1225,-3.1299,-3.1844,-3.2118,-3.2076,-3.1455,-3.0959,-3.0485,-2.9971,-2.939,-2.9005,-2.9005,-2.9005,-2.9005,-2.9005,-2.9005,0.0,0.0,0.0,0.0,0.0,0.0,0.0,0.0,0.0,0.0,0.0,0.0,0.0,-2.9005,-2.9005,-2.9005,-2.9005,-2.9005,-2.9005,-2.9005,-2.9005,-2.9005,-2.8987,-2.8484,-2.8503,-2.8987,-2.8473,-2.851,-2.9005,-2.91,-2.9145,-2.9156,-2.9217,-2.9206,-2.9178,-2.9405,-2.9464,-2.9414,-2.9635,-2.9756,-2.9829,-2.9962,-3.0068,-3.0163,-3.0329,-3.0404,-3.0404,-3.0404,-3.0404,-3.0404,-3.0404,-3.0404,-3.0404,-3.0404,-3.0404,-3.0361,-3.017,-3.0143,-3.0109,-2.9985,-3.0195,-3.0404,-3.0404,-3.0404,-3.0404,-3.0404,-3.0404,-3.0404,-3.0404,-3.0404,-3.0404,-3.0404,-3.0404,-3.0404,-3.0404,-3.0248,-3.0143,-3.0143,-3.0011,-2.9962,-2.9962,-2.9962,-2.9962,-2.9962,-2.9864,-2.9804,-2.9804,-2.9748,-2.9782,-2.9962,-3.0087,-3.008,-2.9943,-3.0087,-3.008,-3.0884,-3.1002,-3.1065,-3.1318,-3.1506,-3.1454,-3.0756,-3.0461,-3.0162,-2.9524,-2.9189,-2.9005,-2.9005,-2.9005,-2.9005,-2.9005,-2.9005,0.0,0.0,0.0,0.0,0.0,0.0,0.0,0.0,0.0,0.0,0.0,0.0,0.0,-2.9005,-2.873,-2.8473,-2.8198,-2.8198,-2.8326,-2.8583,-2.8601,-2.8601,-2.8583,-2.8062,-2.7934,-2.818,-2.764,-2.7695,-2.8216,-2.8473,-2.8748,-2.9005,-2.9005,-2.9005,-2.9028,-2.9211,-2.9267,-2.9289,-2.9425,-2.9533,-2.9626,-2.9746,-2.9845,-2.9924,-3.0114,-3.0174,-3.0174,-3.0174,-3.0215,-3.026,-3.026,-3.0323,-3.0373,-3.0299,-3.0221,-3.0128,-2.9931,-2.9901,-2.9861,-2.9739,-2.9935,-3.0174,-3.0174,-3.0174,-3.0174,-3.0174,-3.0174,-3.0174,-3.0174,-3.0174,-3.0174,-3.0174,-3.0174,-3.0174,-3.0174,-3.0003,-2.9901,-2.9901,-2.9771,-2.9705,-2.9705,-2.9705,-2.9705,-2.9705,-2.9644,-2.9598,-2.9598,-2.9514,-2.9475,-2.9475,-2.9763,-2.9829,-2.9705,-2.9837,-2.9829,0.0,0.0,0.0,-3.0075,-3.0647,-3.113,-3.0691,-3.0567,-3.049,-3.0226,-2.9549,-2.9005,-2.9005,-2.9005,-2.9005,-2.9005,-2.9005,0.0,0.0,0.0,0.0,0.0,0.0,0.0,0.0,0.0,0.0,0.0,0.0,-2.8975,-2.8957,-2.8198,-2.742,-2.6657,-2.6602,-2.6979,-2.775,-2.775,-2.775,-2.775,-2.7732,-2.7328,-2.6602,-2.6594,-2.6583,-2.6638,-2.742,-2.8209,-2.8932,-2.8987,-2.9005,-2.9005,-2.9005,-2.9005,-2.9005,-2.9005,-2.9149,-2.9392,-2.9402,-2.9532,-2.9696,-2.9705,-2.9705,-2.9705,-2.9705,-2.9837,-2.9991,-2.9991,-3.0182,-3.0311,-3.0061,-2.9845,-2.9705,-2.9696,-2.9696,-2.9687,-2.9687,-2.9678,-2.9687,-2.9705,-2.9705,-2.9705,-2.9705,-2.9705,-2.9705,-2.9705,-2.9705,-2.9705,-2.9705,-2.9705,-2.9705,-2.9705,-2.9696,-2.9696,-2.9696,-2.9687,-2.9678,-2.9678,-2.9678,-2.9678,-2.9678,-2.9494,-2.9392,-2.9392,-2.9134,-2.9005,-2.9005,-2.9475,-2.9687,-2.9678,-2.9678,-2.9687,-3.0404,0.0,0.0,0.0,0.0,0.0,-3.0195,-2.9945,-2.9717,-2.9633,-2.9293,-2.9005,-2.9005,-2.9005,-2.9005,-2.9005,-2.9005,0.0,0.0,0.0,0.0,0.0,0.0,0.0,0.0,0.0,0.0,0.0,-2.8737,-2.8336,-2.7791,-2.701,-2.6854,-2.7457,-2.6906,-2.6722,-2.6924,-2.6924,-2.6924,-2.6924,-2.6347,-2.6256,-2.6583,-2.5988,-2.6043,-2.6602,-2.6851,-2.7071,-2.7354,-2.8528,-2.9005,-2.9005,-2.9005,-2.9005,-2.9005,-2.9005,-2.9051,-2.9145,-2.933,-2.9434,-2.9504,-2.9652,-2.9705,-2.9705,-2.9705,-2.9748,-2.978,-2.978,-2.984,-2.9872,-2.9796,-2.9729,-2.9661,-2.9523,-2.9474,-2.9425,-2.9238,-2.9195,-2.9293,-2.9634,-2.9705,-2.9705,-2.9705,-2.9705,-2.9705,-2.9705,-2.9705,-2.9705,-2.9705,-2.9705,-2.9705,-2.9705,-2.957,-2.9474,-2.9474,-2.9312,-2.9195,-2.9195,-2.9195,-2.9195,-2.9195,-2.9138,-2.9112,-2.9112,-2.9051,-2.9005,-2.9005,-2.9322,-2.9375,-2.9195,-2.9195,-2.9301,-3.0404,-3.0404,-3.0404,-3.0404,0.0,0.0,-3.0021,-2.9821,-2.9635,0.0,-2.9332,-2.9178,-2.9178,-2.9078,-2.9005,-2.9005,-2.9005,0.0,0.0,0.0,0.0,0.0,0.0,0.0,0.0,0.0,0.0,-2.9005,-2.8773,-2.8245,-2.7314,-2.6802,-2.6566,-2.6552,-2.6096,-2.586,-2.5892,-2.6028,-2.6028,-2.5892,-2.5562,-2.5466,-2.5585,-2.5117,-2.5172,-2.5621,-2.5952,-2.6098,-2.619,-2.7464,-2.8198,-2.8503,-2.8503,-2.8693,-2.9005,-2.9005,-2.9005,-2.9028,-2.9189,-2.9225,-2.9257,-2.9375,-2.9407,-2.9407,-2.9407,-2.9485,-2.957,-2.957,-2.957,-2.957,-2.957,-2.9494,-2.9367,-2.9267,-2.9225,-2.9181,-2.9021,-2.9005,-2.9089,-2.9346,-2.9407,-2.9407,-2.9407,-2.9407,-2.9407,-2.9407,-2.9407,-2.9407,-2.9407,-2.9407,-2.9407,-2.9407,-2.9301,-2.9225,-2.9225,-2.9089,-2.9005,-2.9005,-2.9005,-2.9005,-2.9005,-2.9005,-2.9005,-2.9005,-2.9005,-2.9005,-2.9005,-2.9167,-2.9156,-2.9005,-2.9005,-2.9078,-3.0417,-3.0425,-3.0408,-3.0408,-3.0416,0.0,-2.9982,-2.9887,-2.9783,0.0,-2.9383,-2.9293,-2.9293,-2.9172,-2.9078,-2.9044,-2.9033,0.0,0.0,0.0,0.0,0.0,0.0,0.0,-2.9005,-2.9005,-2.9005,-2.9005,-2.889,-2.8372,-2.7324,-2.7113,-2.6351,-2.4919,-2.4794,-2.4727,-2.4712,-2.5022,-2.5014,-2.4768,-2.5064,-2.4849,-2.419,-2.419,-2.419,-2.4245,-2.4952,-2.5264,-2.5319,-2.6043,-2.6869,-2.7658,-2.7658,-2.8099,-2.873,-2.873,-2.8785,-2.8877,-2.8877,-2.8932,-2.9005,-2.9005,-2.9005,-2.9005,-2.9005,-2.9178,-2.9361,-2.9361,-2.9361,-2.9361,-2.9361,-2.9189,-2.9005,-2.9005,-2.9005,-2.9005,-2.9005,-2.9005,-2.9005,-2.9005,-2.9005,-2.9005,-2.9005,-2.9005,-2.9005,-2.9005,-2.9005,-2.9005,-2.9005,-2.9005,-2.9005,-2.9005,-2.9005,-2.9005,-2.9005,-2.9005,-2.9005,-2.9005,-2.9005,-2.9005,-2.9005,-2.9005,-2.9005,-2.9005,-2.9005,-2.9005,-2.9005,-2.9005,-2.9005,-2.9005,-2.9005,-2.9005,-3.0554,-3.0513,-3.0482,-3.0482,-3.0436,0.0,-2.9446,-2.9142,-2.881,0.0,-2.8288,-2.8609,-2.8609,-2.9138,-2.9514,-2.9361,-2.932,0.0,0.0,0.0,0.0,0.0,0.0,0.0,0.0,-2.9005,-2.9005,-2.9005,-2.816,-2.7668,-2.7757,-2.6552,-2.5686,-2.5372,-2.4743,-2.4122,-2.3543,-2.3601,-2.3726,-2.3938,-2.3991,-2.4083,-2.419,-2.419,-2.419,-2.4208,-2.4373,-2.4428,-2.4456,-2.4593,-2.5529,-2.6833,-2.6833,-2.6943,-2.706,-2.706,-2.7475,-2.8026,-2.8026,-2.8466,-2.9005,-2.9005,-2.9005,-2.9005,-2.9005,-2.9051,-2.9078,-2.9078,-2.9078,-2.9078,-2.9078,-2.9051,-2.9005,-2.9005,-2.9005,-2.9005,-2.9005,-2.9005,-2.9005,-2.9005,-2.9005,-2.9005,-2.9005,-2.9005,-2.9005,-2.9005,-2.9005,-2.9005,-2.9005,-2.9005,-2.9005,-2.9005,-2.9005,-2.9005,-2.9005,-2.9005,-2.9005,-2.9005,-2.9005,-2.9005,-2.9005,-2.9005,-2.9005,-2.9005,-2.9005,-2.9005,-2.9005,-2.9005,-2.9005,-2.9005,-2.9005,-2.9005,-3.0603,-3.0575,-3.0559,-3.0559,-3.0498,0.0,0.0,-2.9692,-2.9475,-2.9034,-2.8753,-2.8726,-2.9125,-2.9112,-2.9171,-2.9505,-2.9474,-2.9351,0.0,0.0,0.0,0.0,0.0,0.0,0.0,-2.9005,-2.9005,-2.9005,-2.8276,-2.7859,-2.7908,-2.6936,-2.6051,-2.5281,-2.4869,-2.4099,-2.2947,-2.3117,-2.32,-2.32,-2.3544,-2.3795,-2.3966,-2.4113,-2.419,-2.419,-2.419,-2.419,-2.419,-2.419,-2.4685,-2.5438,-2.5841,-2.6245,-2.6602,-2.6602,-2.6869,-2.7255,-2.7669,-2.8062,-2.8473,-2.8877,-2.9005,-2.9005,-2.9005,-2.9005,-2.9005,-2.9005,-2.9005,-2.9005,-2.9005,-2.9005,-2.9005,-2.9005,-2.9005,-2.9005,-2.9005,-2.9005,-2.9005,-2.9005,-2.9005,-2.9005,-2.9005,-2.9005,-2.9005,-2.9005,-2.9005,-2.9005,-2.9005,-2.9005,-2.9005,-2.9005,-2.9005,-2.9005,-2.9005,-2.9005,-2.9005,-2.9005,-2.9005,-2.9005,-2.9005,-2.9005,-2.9005,-2.9005,-2.9005,-2.9005,-2.9005,-2.9005,-2.9005,-2.9005,-2.9005,-2.9005,-3.0665,-3.0636,-3.0625,-3.0625,-3.0568,-3.047,0.0,0.0,0.0,-2.9948,-2.934,-2.9051,0.0,0.0,0.0,0.0,0.0,0.0,0.0,0.0,0.0,0.0,0.0,0.0,0.0,-2.9005,-2.9005,-2.9005,-2.8694,-2.8347,-2.7926,-2.7589,-2.6638,-2.4956,-2.4905,-2.4163,-2.2639,-2.289,-2.2928,-2.2708,-2.3247,-2.3577,-2.3703,-2.3986,-2.4141,-2.419,-2.419,-2.419,-2.419,-2.419,-2.419,-2.4263,-2.4915,-2.5576,-2.6135,-2.6135,-2.6245,-2.6465,-2.7108,-2.7449,-2.7677,-2.8326,-2.8638,-2.8803,-2.895,-2.9005,-2.9005,-2.9005,-2.9005,-2.9005,-2.9005,-2.9005,-2.9005,-2.9005,-2.9005,-2.9005,-2.9005,-2.9005,-2.9005,-2.9005,-2.9005,-2.9005,-2.9005,-2.9005,-2.9005,-2.9005,-2.9005,-2.9005,-2.9005,-2.9005,-2.9005,-2.9005,-2.9005,-2.9005,-2.9005,-2.9005,-2.9005,-2.9005,-2.9005,-2.9005,-2.9005,-2.9005,-2.9005,-2.9005,-2.9005,-2.9005,-2.9005,-2.8917,-2.8875,-2.8875,-2.8875,-2.8851,-3.0877,-3.0788,0.0,0.0,-3.0648,0.0,0.0,0.0,-2.9119,-2.834,0.0,0.0,0.0,0.0,0.0,0.0,0.0,0.0,0.0,0.0,0.0,0.0,0.0,0.0,0.0,0.0,-2.9005,-2.9005,-2.8952,-2.8639,-2.794,-2.7855,-2.6816,-2.4633,-2.4552,-2.3839,-2.2366,-2.2374,-2.2504,-2.2708,-2.2784,-2.3129,-2.3703,-2.3735,-2.3917,-2.419,-2.419,-2.419,-2.419,-2.419,-2.419,-2.4208,-2.43,-2.4392,-2.4465,-2.4465,-2.4915,-2.554,-2.5631,-2.6146,-2.6759,-2.684,-2.7365,-2.8062,-2.8785,-2.9005,-2.9005,-2.9005,-2.9005,-2.9005,-2.9005,-2.9005,-2.9005,-2.9005,-2.9005,-2.9005,-2.9005,-2.9005,-2.9005,-2.9005,-2.9005,-2.9005,-2.9005,-2.9005,-2.9005,-2.9005,-2.9005,-2.9005,-2.9005,-2.9005,-2.9005,-2.9005,-2.9005,-2.9005,-2.9005,-2.9005,-2.9005,-2.9005,-2.9005,-2.9005,-2.9005,-2.9005,-2.9005,-2.9005,-2.9005,-2.9005,-2.9005,-2.8645,-2.8471,-2.8471,-2.8471,-2.8303,-3.0898,0.0,0.0,0.0,0.0,0.0,-3.0168,0.0,-2.9295,0.0,0.0,0.0,0.0,0.0,0.0,0.0,-2.981,0.0,0.0,0.0,0.0,0.0,0.0,0.0,0.0,0.0,0.0,0.0,0.0,-2.8438,-2.7926,-2.7678,-2.6801,-2.5185,-2.4728,-2.4,-2.2953,-2.2499,-2.2363,-2.2477,-2.2621,-2.296,-2.3403,-2.3403,-2.3692,-2.418,-2.3996,-2.4016,-2.419,-2.419,-2.419,-2.419,-2.419,-2.419,-2.419,-2.419,-2.441,-2.4768,-2.5246,-2.5613,-2.6072,-2.6979,-2.7512,-2.7952,-2.8767,-2.9005,-2.9005,-2.9005,-2.9005,-2.9005,-2.9005,-2.9005,-2.9005,-2.9005,-2.9005,-2.9005,-2.9005,-2.9005,-2.9005,-2.9005,-2.9005,-2.9005,-2.9005,-2.9005,-2.9005,-2.9005,-2.9005,-2.9005,-2.9005,-2.9005,-2.9005,-2.9005,-2.8785,-2.8749,-2.8982,-2.8614,-2.8438,-2.8645,-2.8482,-2.8347,-2.8347,-2.8347,-2.8347,-2.8347,-2.8347,-2.8347,-2.8347,-2.8183,-2.7992,-2.7776,-2.7988,-2.8034,-3.0898,0.0,0.0,0.0,0.0,0.0,0.0,0.0,0.0,0.0,0.0,0.0,0.0,0.0,-2.9417,-3.0293,0.0,-2.9836,0.0,0.0,0.0,0.0,0.0,0.0,0.0,0.0,0.0,0.0,0.0,0.0,-2.8047,-2.7678,-2.6941,-2.58,-2.4942,-2.4152,-2.341,-2.2682,-2.2296,-2.231,-2.2487,-2.2751,-2.3069,-2.3069,-2.3426,-2.4054,-2.3806,-2.3896,-2.419,-2.419,-2.4151,-2.4064,-2.4064,-2.4006,-2.3955,-2.4123,-2.419,-2.4281,-2.4879,-2.5209,-2.5631,-2.7016,-2.7622,-2.7952,-2.8767,-2.9005,-2.9005,-2.9005,-2.9005,-2.9005,-2.9005,-2.9005,-2.8964,-2.8863,-2.8839,-2.8815,-2.8731,-2.8688,-2.8688,-2.8688,-2.8688,-2.8688,-2.8688,-2.8761,-2.8839,-2.8839,-2.8767,-2.8688,-2.8688,-2.8688,-2.8688,-2.8688,-2.8438,-2.8368,-2.8676,-2.8201,-2.7992,-2.825,-2.8034,-2.7897,-2.7897,-2.7897,-2.7897,-2.7897,-2.7897,-2.7897,-2.7897,-2.7797,-2.7592,-2.7319,-2.7589,-2.7681,0.0,0.0,0.0,-3.0898,0.0,0.0,0.0,0.0,-3.0406,0.0,0.0,0.0,0.0,-2.983,-2.9472,-3.0359,-2.9732,0.0,0.0,0.0,0.0,0.0,0.0,0.0,0.0,0.0,0.0,0.0,0.0,0.0,-2.8407,-2.8061,-2.7358,-2.6227,-2.5096,-2.4152,-2.341,-2.2682,-2.2296,-2.2296,-2.231,-2.245,-2.2721,-2.2721,-2.3081,-2.3714,-2.3703,-2.3896,-2.419,-2.419,-2.4006,-2.3714,-2.3714,-2.3522,-2.3311,-2.3966,-2.419,-2.419,-2.4226,-2.475,-2.554,-2.6374,-2.7163,-2.7952,-2.8767,-2.9005,-2.9005,-2.9005,-2.9005,-2.9005,-2.9005,-2.9005,-2.8905,-2.8515,-2.842,-2.8342,-2.801,-2.794,-2.794,-2.794,-2.794,-2.794,-2.794,-2.821,-2.842,-2.842,-2.8143,-2.794,-2.794,-2.794,-2.794,-2.794,-2.7926,-2.7926,-2.794,-2.7911,-2.7911,-2.7926,-2.7911,-2.7897,-2.7897,-2.7897,-2.7897,-2.7897,-2.7897,-2.7897,-2.7897,-2.75,-2.7301,-2.7303,-2.7301,-2.7115,0.0,0.0,-3.0039,-3.0039,0.0,0.0,0.0,0.0,0.0,0.0,0.0,0.0,0.0,-3.0351,-3.0215,-3.0522,-3.0264,-3.0129,0.0,0.0,0.0,0.0,0.0,-2.9696,0.0,0.0,0.0,0.0,-2.9005,0.0,0.0,-2.8075,-2.7601,-2.6937,-2.535,-2.4372,-2.4135,-2.2919,-2.2296,-2.2296,-2.2296,-2.218,-2.1967,-2.2304,-2.2508,-2.266,-2.2929,-2.3357,-2.3847,-2.3639,-2.3599,-2.3682,-2.3466,-2.3311,-2.3247,-2.3703,-2.3724,-2.3566,-2.3795,-2.4198,-2.4842,-2.6172,-2.6778,-2.7255,-2.8583,-2.9005,-2.9005,-2.9005,-2.8815,-2.8602,-2.8602,-2.8438,-2.8242,-2.8088,-2.8061,-2.8034,-2.7926,-2.7897,-2.7897,-2.7897,-2.7897,-2.7897,-2.7897,-2.7779,-2.7762,-2.8034,-2.7982,-2.7897,-2.7897,-2.7897,-2.7897,-2.7897,-2.7648,-2.7604,-2.7883,-2.7666,-2.7378,-2.7131,-2.7099,-2.7099,-2.7099,-2.7099,-2.7099,-2.7099,-2.7099,-2.7099,-2.7099,-2.6971,-2.6906,-2.6906,-2.6906,-2.6824,-2.9297,-2.912,0.0,-2.9099,-2.8666,0.0,-2.8961,0.0,0.0,0.0,0.0,0.0,0.0,-3.0625,-3.0636,-3.0609,-3.0529,-3.0485,0.0,-3.0428,0.0,0.0,0.0,-2.9869,-2.9542,-2.9444,-2.9289,-2.9028,-2.9005,0.0,0.0,0.0,-2.7725,-2.7301,-2.5487,-2.4491,-2.4491,-2.3038,-2.2296,-2.2296,-2.204,-2.1755,-2.1476,-2.1776,-2.1764,-2.1567,-2.2362,-2.2863,-2.3127,-2.3176,-2.3265,-2.3317,-2.3105,-2.2965,-2.2933,-2.3357,-2.338,-2.3247,-2.3577,-2.4218,-2.5077,-2.6232,-2.6893,-2.7424,-2.8475,-2.87,-2.8614,-2.8614,-2.8412,-2.8224,-2.8224,-2.8061,-2.7869,-2.7725,-2.7695,-2.7651,-2.75,-2.747,-2.747,-2.747,-2.747,-2.747,-2.747,-2.7272,-2.7208,-2.7636,-2.756,-2.747,-2.747,-2.747,-2.747,-2.747,-2.7241,-2.7194,-2.7439,-2.7241,-2.6988,-2.6708,-2.6691,-2.6691,-2.6691,-2.6691,-2.6691,-2.6691,-2.6691,-2.6691,-2.6691,-2.6691,-2.6691,-2.6691,-2.6691,-2.6691]},{"header":{"parameterUnit":"m.s-1","parameterCategory":1,"la1":30.6,"la2":29.2853,"lo1":-89.7004,"lo2":-87.6739,"dy":0.0162,"dx":0.0183,"nx":112,"ny":82,"refTime":"2024-06-29T06:00:00:Z","depth":0,"parameterNumber":3,"parameterNumberName":"V-component_of_WINDS"},"data":[0.0,0.0,0.0,0.0,0.0,0.0,0.0,0.0,0.0,0.0,0.0,0.0,0.0,0.0,0.0,0.0,0.0,0.0,0.0,0.0,0.0,0.0,0.0,0.0,0.0,0.0,0.0,0.0,0.0,0.0,0.0,0.0,0.0,0.0,0.0,0.0,0.0,0.0,0.0,0.0,0.0,0.0,0.0,0.0,0.0,0.0,0.0,0.0,0.0,0.0,0.0,0.0,0.0,0.0,0.0,0.0,0.0,0.0,0.0,0.0,0.0,0.0,0.0,0.0,0.0,0.0,0.0,0.0,0.0,0.0,0.0,0.0,0.0,0.0,0.0,0.0,0.0,0.0,0.0,0.0,0.0,0.0,0.0,0.0,0.0,0.0,0.0,0.0,0.0,0.0,-0.8567,-1.0418,-1.2697,-1.4119,-1.419,-1.5117,-1.5237,-1.4155,0.0,0.0,0.0,0.0,0.0,0.0,0.0,0.0,0.0,0.0,0.0,0.0,0.0,0.0,0.0,0.0,0.0,0.0,0.0,0.0,0.0,0.0,0.0,0.0,0.0,0.0,0.0,0.0,0.0,0.0,0.0,0.0,0.0,0.0,0.0,0.0,0.0,0.0,0.0,0.0,0.0,0.0,0.0,0.0,0.0,0.0,0.0,0.0,0.0,0.0,0.0,0.0,0.0,0.0,0.0,0.0,0.0,0.0,0.0,0.0,0.0,0.0,0.0,0.0,0.0,0.0,0.0,0.0,0.0,0.0,0.0,0.0,0.0,0.0,0.0,0.0,0.0,0.0,0.0,0.0,0.0,0.0,0.0,0.0,0.0,0.0,0.0,0.0,0.0,0.0,0.0,0.0,0.0,0.0,0.0,0.0,0.0,0.0,0.0,0.0,0.0,0.0,0.0,0.0,-1.0945,-1.3093,-1.3667,-1.4358,-1.5439,-1.5285,-1.4847,-1.4128,0.0,0.0,0.0,0.0,0.0,0.0,0.0,0.0,0.0,0.0,0.0,0.0,0.0,0.0,0.0,0.0,0.0,0.0,0.0,0.0,0.0,0.0,0.0,0.0,0.0,0.0,0.0,0.0,0.0,0.0,0.0,0.0,0.0,0.0,0.0,0.0,0.0,0.0,0.0,0.0,0.0,0.0,0.0,0.0,0.0,0.0,0.0,0.0,0.0,0.0,0.0,0.0,0.0,0.0,0.0,0.0,0.0,0.0,0.0,0.0,0.0,0.0,0.0,0.0,0.0,0.0,0.0,0.0,0.0,0.0,0.0,0.0,0.0,0.0,0.0,0.0,0.0,0.0,0.0,0.0,0.0,0.0,0.0,0.0,0.0,0.0,0.0,0.0,0.0,0.0,0.0,0.0,0.0,0.0,0.0,0.0,0.0,0.0,0.0,0.0,0.0,0.0,0.0,-1.117,-1.2405,-1.3748,-1.4513,-1.5146,-1.573,-1.5438,-1.4883,-1.4135,-1.35,0.0,0.0,0.0,0.0,0.0,0.0,0.0,0.0,0.0,0.0,0.0,0.0,0.0,0.0,0.0,0.0,0.0,0.0,0.0,0.0,0.0,0.0,0.0,0.0,0.0,0.0,0.0,0.0,0.0,0.0,0.0,0.0,0.0,0.0,0.0,0.0,0.0,0.0,0.0,0.0,0.0,0.0,0.0,0.0,0.0,0.0,0.0,0.0,0.0,0.0,0.0,0.0,0.0,0.0,0.0,0.0,0.0,0.0,0.0,0.0,0.0,0.0,0.0,0.0,0.0,0.0,0.0,0.0,0.0,0.0,0.0,0.0,0.0,0.0,0.0,0.0,0.0,0.0,0.0,0.0,0.0,0.0,0.0,0.0,0.0,0.0,0.0,0.0,0.0,0.0,0.0,0.0,0.0,0.0,0.0,0.0,0.0,0.0,0.0,0.0,0.0,0.0,-1.2911,-1.3815,-1.4321,-1.5242,-1.5751,-1.5732,-1.5398,-1.4843,-1.4035,-1.3112,0.0,0.0,0.0,0.0,0.0,0.0,0.0,0.0,0.0,0.0,0.0,0.0,0.0,0.0,0.0,0.0,0.0,0.0,0.0,0.0,0.0,0.0,0.0,0.0,0.0,0.0,0.0,0.0,0.0,0.0,0.0,0.0,0.0,0.0,0.0,0.0,0.0,0.0,0.0,0.0,0.0,0.0,0.0,0.0,0.0,0.0,0.0,0.0,0.0,0.0,0.0,0.0,0.0,0.0,0.0,0.0,0.0,0.0,0.0,0.0,0.0,0.0,0.0,0.0,0.0,0.0,0.0,0.0,0.0,0.0,0.0,0.0,0.0,0.0,0.0,0.0,0.0,0.0,0.0,0.0,0.0,0.0,0.0,0.0,0.0,0.0,0.0,0.0,0.0,0.0,0.0,0.0,0.0,0.0,0.0,0.0,0.0,0.0,0.0,0.0,0.0,0.0,-1.4909,-1.5636,-1.5676,-1.573,-1.5718,-1.5451,-1.491,-1.4279,-1.3673,-1.2579,0.0,0.0,0.0,0.0,0.0,0.0,0.0,0.0,0.0,0.0,0.0,0.0,0.0,0.0,0.0,0.0,0.0,0.0,0.0,0.0,0.0,0.0,0.0,0.0,0.0,0.0,0.0,0.0,0.0,0.0,0.0,0.0,0.0,0.0,0.0,0.0,0.0,0.0,0.0,0.0,0.0,0.0,0.0,0.0,0.0,0.0,0.0,0.0,0.0,0.0,0.0,0.0,0.0,0.0,0.0,0.0,0.0,0.0,0.0,0.0,0.0,0.0,0.0,0.0,0.0,0.0,0.0,0.0,0.0,0.0,0.0,0.0,0.0,0.0,0.0,0.0,0.0,0.0,0.0,0.0,0.0,0.0,0.0,0.0,0.0,0.0,0.0,0.0,0.0,0.0,0.0,0.0,0.0,0.0,0.0,0.0,0.0,0.0,0.0,0.0,0.0,0.0,-1.4629,-1.515,-1.5518,-1.5558,-1.5444,-1.515,-1.4756,-1.4226,-1.364,0.0,0.0,0.0,0.0,0.0,0.0,0.0,0.0,0.0,0.0,0.0,0.0,0.0,0.0,0.0,0.0,0.0,0.0,0.0,0.0,0.0,0.0,0.0,0.0,0.0,0.0,0.0,0.0,0.0,0.0,0.0,0.0,0.0,0.0,0.0,0.0,0.0,0.0,0.0,0.0,0.0,0.0,0.0,0.0,0.0,0.0,0.0,0.0,0.0,0.0,0.0,0.0,0.0,0.0,0.0,0.0,0.0,0.0,0.0,0.0,0.0,0.0,0.0,0.0,0.0,0.0,0.0,0.0,0.0,0.0,0.0,0.0,0.0,0.0,0.0,0.0,0.0,0.0,0.0,0.0,0.0,0.0,0.0,0.0,0.0,0.0,0.0,0.0,0.0,0.0,0.0,0.0,0.0,0.0,0.0,0.0,0.0,0.0,0.0,0.0,0.0,0.0,-1.3854,-1.4362,-1.4816,-1.5217,-1.5257,-1.5137,-1.485,-1.4469,-1.3988,-1.3394,0.0,0.0,0.0,0.0,0.0,0.0,0.0,0.0,0.0,0.0,0.0,0.0,0.0,0.0,0.0,0.0,0.0,0.0,0.0,0.0,0.0,0.0,0.0,0.0,0.0,0.0,0.0,0.0,0.0,0.0,0.0,0.0,0.0,0.0,0.0,0.0,0.0,0.0,0.0,0.0,0.0,0.0,0.0,0.0,0.0,0.0,0.0,0.0,0.0,0.0,0.0,0.0,0.0,0.0,0.0,0.0,0.0,0.0,0.0,0.0,0.0,0.0,0.0,0.0,0.0,0.0,0.0,0.0,0.0,0.0,0.0,0.0,0.0,0.0,0.0,0.0,0.0,0.0,0.0,0.0,0.0,0.0,0.0,0.0,0.0,0.0,0.0,0.0,0.0,0.0,0.0,0.0,0.0,0.0,0.0,0.0,0.0,0.0,0.0,0.0,0.0,0.0,-1.356,-1.4409,-1.5001,-1.5001,-1.5001,-1.4836,-1.4536,-1.3939,-1.3387,0.0,0.0,0.0,0.0,0.0,0.0,0.0,0.0,0.0,0.0,0.0,0.0,0.0,0.0,0.0,0.0,0.0,0.0,0.0,0.0,0.0,0.0,0.0,0.0,0.0,0.0,0.0,0.0,0.0,0.0,0.0,0.0,0.0,0.0,0.0,0.0,0.0,0.0,0.0,0.0,0.0,0.0,0.0,0.0,0.0,0.0,0.0,0.0,0.0,0.0,0.0,0.0,0.0,0.0,0.0,0.0,0.0,0.0,0.0,0.0,0.0,0.0,0.0,0.0,0.0,0.0,0.0,0.0,0.0,0.0,0.0,0.0,0.0,0.0,0.0,0.0,0.0,0.0,0.0,0.0,0.0,0.0,0.0,0.0,0.0,0.0,0.0,0.0,0.0,0.0,0.0,0.0,0.0,0.0,0.0,0.0,0.0,0.0,0.0,0.0,0.0,0.0,0.0,-1.33,-1.4108,-1.4649,-1.4649,-1.4649,-1.4536,-1.4242,-1.382,-1.3387,-1.2824,0.0,0.0,0.0,0.0,0.0,0.0,0.0,0.0,0.0,0.0,0.0,0.0,0.0,0.0,0.0,0.0,0.0,0.0,0.0,0.0,0.0,0.0,0.0,0.0,0.0,0.0,0.0,0.0,0.0,0.0,0.0,0.0,0.0,0.0,0.0,0.0,0.0,0.0,0.0,0.0,0.0,0.0,0.0,0.0,0.0,0.0,0.0,0.0,0.0,0.0,0.0,0.0,0.0,0.0,0.0,0.0,0.0,0.0,0.0,0.0,0.0,0.0,0.0,0.0,0.0,0.0,0.0,0.0,0.0,0.0,0.0,0.0,0.0,0.0,0.0,0.0,0.0,0.0,0.0,0.0,0.0,0.0,0.0,0.0,0.0,0.0,0.0,0.0,0.0,0.0,0.0,0.0,0.0,0.0,0.0,0.0,0.0,0.0,0.0,0.0,0.0,0.0,-1.2986,-1.3801,-1.4349,-1.4349,-1.4349,-1.4282,-1.4102,-1.3707,-1.3213,-1.2643,0.0,0.0,0.0,0.0,0.0,0.0,0.0,0.0,0.0,0.0,0.0,0.0,0.0,0.0,0.0,0.0,0.0,0.0,0.0,0.0,0.0,0.0,0.0,0.0,0.0,0.0,0.0,0.0,0.0,0.0,0.0,0.0,0.0,0.0,0.0,0.0,0.0,0.0,0.0,0.0,0.0,0.0,0.0,0.0,0.0,0.0,0.0,0.0,0.0,0.0,0.0,0.0,0.0,0.0,0.0,0.0,0.0,0.0,0.0,0.0,0.0,0.0,0.0,0.0,0.0,0.0,0.0,0.0,0.0,0.0,0.0,0.0,0.0,0.0,0.0,0.0,0.0,0.0,0.0,0.0,0.0,0.0,0.0,0.0,0.0,0.0,0.0,0.0,0.0,0.0,0.0,0.0,0.0,0.0,0.0,0.0,0.0,0.0,0.0,0.0,0.0,0.0,-1.2703,-1.3507,-1.4015,-1.4041,-1.4021,-1.4008,-1.4008,-1.3494,-1.2919,-1.2338,0.0,0.0,0.0,0.0,0.0,0.0,0.0,0.0,0.0,0.0,0.0,0.0,0.0,0.0,0.0,0.0,0.0,0.0,0.0,0.0,0.0,0.0,0.0,0.0,0.0,0.0,0.0,0.0,0.0,0.0,0.0,0.0,0.0,0.0,0.0,0.0,0.0,0.0,0.0,0.0,0.0,0.0,0.0,0.0,0.0,0.0,0.0,0.0,0.0,0.0,0.0,0.0,0.0,0.0,0.0,0.0,0.0,0.0,0.0,0.0,-0.034,0.0,0.0,0.0,0.0,0.0,0.0,0.0,0.0,0.0,0.0,0.0,0.0,0.0,0.0,0.0,0.0,0.0,0.0,0.0,0.0,0.0,0.0,0.0,0.0,0.0,0.0,0.0,0.0,0.0,0.0,0.0,0.0,0.0,0.0,0.0,0.0,0.0,0.0,0.0,0.0,0.0,-1.2358,-1.2979,-1.348,-1.3673,-1.3534,-1.3394,-1.3394,-1.3099,-1.2723,-1.2325,-1.1715,0.0,0.0,0.0,0.0,0.0,0.0,0.0,0.0,0.0,0.0,0.0,0.0,0.0,0.0,0.0,0.0,0.0,0.0,0.0,0.0,0.0,0.0,0.0,0.0,0.0,0.0,0.0,0.0,0.0,0.0,0.0,0.0,0.0,0.0,0.0,0.0,0.0,0.0,0.0,0.0,0.0,0.0,0.0,0.0,0.0,0.0,0.0,0.0,0.0,0.0,0.0,0.0,0.0,0.0,0.0,0.0,0.0,0.0,0.0,0.0,0.0,0.0,0.0,0.0,0.0,0.0,0.0,0.0,0.0,0.0,0.0,0.0,0.0,0.0,0.0,0.0,0.0,0.0,0.0,0.0,0.0,0.0,0.0,0.0,0.0,0.0,0.0,0.0,0.0,0.0,0.0,0.0,0.0,0.0,0.0,0.0,0.0,0.0,0.0,0.0,0.0,-1.2265,-1.2832,-1.3267,-1.338,-1.326,-1.3213,-1.3213,-1.2965,-1.2656,-1.2318,-1.1715,0.0,0.0,0.0,0.0,0.0,0.0,0.0,0.0,0.0,0.0,0.0,0.0,0.0,0.0,0.0,0.0,0.0,0.0,0.0,0.0,0.0,0.0,0.0,0.0,0.0,0.0,0.0,0.0,0.0,0.0,0.0,0.0,0.0,0.0,0.0,0.0,0.0,0.0,0.0,0.0,0.0,0.0,0.0,0.0,0.0,0.0,0.0,0.0,0.0,0.0,0.0,0.0,0.0,0.0,0.0,0.0,0.0,0.0,0.0,0.0,0.0,-0.0131,-0.2043,0.0,0.0,0.0,0.0,0.0,0.0,0.0,0.0,0.0,0.0,0.0,0.0,0.0,0.0,0.0,0.0,0.0,0.0,0.0,0.0,0.0,0.0,0.0,0.0,-0.6875,-0.6865,0.0,0.0,0.0,0.0,0.0,0.0,0.0,0.0,0.0,0.0,0.0,0.0,-1.2258,-1.2739,-1.3073,-1.3126,-1.3086,-1.3053,-1.3053,-1.2851,-1.2603,-1.2318,-1.1797,-1.1396,0.0,0.0,0.0,0.0,0.0,0.0,0.0,0.0,0.0,0.0,0.0,0.0,0.0,0.0,0.0,0.0,0.0,0.0,0.0,0.0,0.0,0.0,0.0,0.0,0.0,0.0,0.0,0.0,0.0,0.0,0.0,0.0,0.4092,0.3159,0.0,0.0,0.0,0.0,0.0,0.0,0.0,0.0,0.0,0.0,0.0,0.0,0.0,0.0,0.0,0.0,0.0,0.0,0.0,0.0,0.0,0.0,0.0,0.0,0.0,0.0,-0.0089,-0.1307,0.0,0.0,0.0,0.0,0.0,0.0,0.0,0.0,0.0,0.0,0.0,0.0,0.0,0.0,0.0,0.0,0.0,0.0,0.0,0.0,0.0,0.0,-0.7014,-0.7034,-0.7055,-0.7051,0.0,-0.6719,-0.6443,-0.6296,-0.6934,0.0,0.0,0.0,0.0,0.0,0.0,0.0,-1.2231,-1.2371,-1.2518,-1.2817,-1.2579,-1.2425,-1.2425,-1.2385,-1.2345,-1.2305,-1.1997,-1.1826,-1.1792,-1.1229,0.0,0.0,0.0,0.0,0.0,0.0,0.0,0.0,0.0,0.0,0.0,0.0,0.0,0.0,0.0,0.0,0.0,0.0,0.0,0.0,0.0,0.0,0.0,0.0,0.0,0.0,0.0,0.0,0.0,0.5419,0.4797,0.3274,0.2862,0.2183,0.0,0.0,0.0,0.0,0.0,0.0,0.0,0.0,0.0,0.0,0.0,0.0,0.0,0.0,0.0,0.0,0.0,0.0,0.0,0.0,0.0,0.0,0.0,0.0,-0.0094,-0.117,-0.1862,-0.2353,0.0,0.0,0.0,0.0,-0.5975,-0.6603,-0.6627,-0.662,0.0,0.0,0.0,0.0,0.0,0.0,0.0,0.0,0.0,0.0,0.0,0.0,0.0,-0.6957,-0.7038,-0.7095,-0.7095,-0.6879,-0.6685,0.0,-0.7236,-0.7953,-0.84,0.0,0.0,0.0,0.0,-1.1646,-1.1495,-1.1959,-1.2351,-1.2485,-1.2378,-1.2305,-1.2305,-1.2305,-1.2305,-1.2305,-1.2067,-1.1906,-1.1906,-1.1463,-1.1156,0.0,0.0,0.0,0.0,0.0,0.0,0.0,0.0,0.0,0.0,0.0,0.0,0.0,0.0,0.0,0.0,0.0,0.0,0.0,0.0,0.0,0.0,0.0,0.0,0.0,0.0,0.0,0.0,0.5956,0.5463,0.3679,0.3444,0.2667,0.0,0.0,0.0,0.0,0.0,0.0,0.0,0.0,0.0,0.0,0.0,0.0,0.0,0.0,0.0,0.0,0.0,0.0,0.0,0.0,0.0,0.0,0.0,0.0,-0.0048,-0.0874,-0.1337,-0.1657,-0.243,-0.3409,-0.4481,-0.4777,-0.5505,-0.6344,-0.6717,-0.682,-0.6732,-0.658,0.0,-0.6303,-0.6,0.0,0.0,0.0,0.0,-0.6388,-0.6532,-0.6614,-0.6739,-0.6849,-0.6937,-0.6994,-0.7034,-0.693,-0.6837,0.0,-0.7278,-0.7867,-0.8184,0.0,0.0,0.0,0.0,-1.1641,-1.0902,-1.1694,-1.2305,-1.2305,-1.2305,-1.2305,-1.2305,-1.2305,-1.2305,-1.2305,-1.2098,-1.202,-1.202,-1.1697,-1.1436,-1.1223,0.0,0.0,0.0,0.0,0.0,0.0,0.0,0.0,0.0,0.0,0.0,0.0,0.0,0.0,0.0,0.0,0.0,0.0,0.0,0.0,0.0,0.0,0.0,0.0,0.0,0.0,0.0,0.0,0.0,0.5103,0.4164,0.0,0.0,0.0,0.0,0.0,0.0,0.0,0.0,0.0,0.0,0.0,0.0,0.0,0.0,0.0,0.0,0.0,0.0,0.0,0.0,0.0,0.0,0.0,0.0,0.0,0.0,-0.0046,-0.0684,-0.1605,-0.1658,-0.2304,-0.335,-0.4481,-0.5007,-0.5336,-0.6334,-0.6803,-0.6849,-0.6739,-0.6586,-0.6474,-0.6323,-0.6282,0.0,0.0,-0.6497,-0.6538,-0.6651,-0.6695,-0.6739,-0.6849,-0.6824,-0.6763,-0.6866,-0.682,-0.6709,0.0,-0.6624,-0.686,-0.7676,0.0,-0.8976,-0.9268,-1.0785,-1.1641,-1.0902,-1.1694,-1.2305,-1.2305,-1.2305,-1.2305,-1.2305,-1.2305,-1.2305,-1.2305,-1.2285,-1.2278,-1.2278,-1.2004,-1.1873,-1.1859,-1.1276,0.0,0.0,0.0,0.0,0.0,0.0,0.0,0.0,0.0,0.0,0.0,0.0,0.0,0.0,0.0,0.0,0.0,0.0,0.0,0.0,0.0,0.0,0.0,0.0,0.0,0.0,0.0,0.0,0.5405,0.5058,0.0,0.2101,0.1551,0.0942,0.0045,0.0,0.0,0.0,0.0,0.0,0.0,0.0,0.0,0.0,0.0,0.0,0.0,0.0,0.0,0.0,0.0,0.0,0.0,0.0,0.0,0.0,0.0,-0.0231,-0.0583,-0.0579,-0.1279,-0.2317,-0.2753,-0.3906,-0.5336,-0.5733,-0.6362,-0.698,-0.678,-0.6536,-0.6364,-0.6317,-0.63,-0.631,-0.6361,-0.6375,-0.6388,-0.6443,-0.6525,-0.6566,-0.662,-0.6668,-0.6715,-0.677,-0.6661,-0.6552,-0.6552,-0.6549,-0.6706,-0.738,-0.8379,-0.907,-0.9005,-1.079,-1.1842,-1.0926,-1.1694,-1.2305,-1.2305,-1.2305,-1.2305,-1.2305,-1.2305,-1.2225,-1.2037,-1.2024,-1.1937,-1.1744,-1.1824,-1.1725,-1.1316,-1.1504,-1.131,0.0,0.0,0.0,0.0,0.0,0.0,0.0,0.0,0.0,0.0,0.0,0.0,0.0,0.0,0.0,0.0,0.0,0.0,0.0,0.0,0.0,0.0,0.0,0.0,0.0,0.6542,0.6322,0.5515,0.5502,0.4817,0.2819,0.2249,0.1638,0.0754,0.0239,0.0,0.0,0.0,0.0,0.0,0.0,0.0,0.0,0.0,0.0,0.0,0.0,0.0,0.0,0.0,0.0,0.0,0.0,0.0,0.0,0.0,0.0,0.0,0.0,-0.0494,-0.1254,-0.1657,-0.2816,-0.4287,-0.5134,-0.6104,-0.6916,-0.6763,-0.6532,-0.6371,-0.6371,-0.6371,-0.6371,-0.6371,-0.6337,-0.63,-0.63,-0.6371,-0.6453,-0.6501,-0.6552,-0.6566,-0.6614,-0.6545,-0.6443,-0.6443,-0.6443,-0.6531,-0.6881,-0.7996,-0.8718,-0.8491,-1.0085,-1.1174,-1.082,-1.1391,-1.1922,-1.2261,-1.2305,-1.2305,-1.2305,-1.2305,-1.2218,-1.2067,-1.196,-1.1819,-1.1583,-1.167,-1.1536,-1.1149,-1.1523,-1.1436,-1.0888,0.0,0.0,0.0,0.0,0.0,0.0,0.0,0.0,0.0,0.0,0.0,0.0,0.0,0.0,0.0,0.0,0.0,0.0,0.0,0.0,0.0,0.0,0.0,0.6508,0.6742,0.654,0.5588,0.5576,0.5168,0.3993,0.2789,0.2062,0.2004,0.0735,0.0,0.0,0.0,0.0,0.0,0.0,0.0,0.0,0.0,0.0,0.0,0.0,0.0,0.0,0.0,0.0,0.0,0.0,0.0,0.0,0.0,0.0,0.0,0.0,0.0,-0.0135,-0.1299,-0.179,-0.2148,-0.4554,-0.595,-0.666,-0.6702,-0.6593,-0.6504,-0.6504,-0.6504,-0.6504,-0.6504,-0.6405,-0.63,-0.63,-0.63,-0.6334,-0.6474,-0.6402,-0.6337,-0.6474,-0.6399,-0.63,-0.63,-0.63,-0.63,-0.63,-0.7138,-0.7783,-0.7783,-0.8656,0.0,-1.064,-1.0746,-1.1124,-1.215,-1.2261,-1.2268,-1.2305,-1.2305,-1.2291,-1.2278,-1.2047,-1.1886,-1.1879,-1.1577,-1.1395,-1.1409,-1.1361,-1.1354,-1.1354,0.0,0.0,0.0,0.0,0.0,0.0,0.0,0.0,0.0,0.0,0.0,0.0,0.0,0.0,0.0,0.0,0.0,0.0,0.0,0.0,0.0,0.6339,0.663,0.6783,0.6832,0.6877,0.686,0.6863,0.6461,0.5374,0.4089,0.2938,0.2042,0.0741,0.0,0.0,0.0,0.0,0.0,0.0,0.0,0.0,0.0,0.0,0.0,0.0,0.0,0.0,0.0,0.0,0.0,0.0,0.0,0.0,0.0,0.0,0.0,0.0,0.0,-0.0045,-0.0359,-0.1031,-0.2148,-0.4554,-0.5386,-0.5529,-0.6408,-0.6529,-0.6358,-0.6358,-0.6358,-0.6358,-0.6358,-0.633,-0.63,-0.63,-0.63,-0.631,-0.6351,-0.6327,-0.631,-0.6351,-0.6327,-0.63,-0.63,-0.63,-0.63,-0.63,-0.7138,-0.7783,-0.7783,-0.8656,0.0,-0.9669,-0.9707,-1.0121,-1.1087,-1.1199,-1.1502,-1.2224,-1.2305,-1.2118,-1.169,-1.159,-1.1456,-1.1276,-1.1356,-1.1523,-1.1744,-1.0823,-1.0297,0.0,0.0,0.0,0.0,0.0,0.0,0.0,0.0,0.0,0.0,0.0,0.0,0.0,0.0,0.0,0.0,0.0,0.0,0.0,0.0,0.0,0.0,0.6583,0.6848,0.6953,0.6974,0.7038,0.7255,0.7333,0.7158,0.6517,0.5363,0.4121,0.2829,0.1588,0.0598,0.005,0.0,0.0,0.0,0.0,0.0,0.0,0.0,0.0,0.0,0.0,0.0,0.0,0.0,0.0,0.0,0.0,0.0,0.0,0.0,0.0,0.0,0.0,0.0,0.0,0.0,-0.0758,-0.2075,-0.3879,-0.4673,-0.5079,-0.6232,-0.6487,-0.63,-0.63,-0.63,-0.63,-0.63,-0.63,-0.63,-0.63,-0.63,-0.63,-0.63,-0.63,-0.63,-0.63,-0.63,-0.63,-0.63,0.0,0.0,-0.63,-0.6795,-0.7326,-0.7744,-0.7936,-0.8351,-0.9183,-0.8922,-0.9069,-1.0078,-1.0153,-1.0421,-1.0987,-1.1025,0.0,0.0,0.0,-1.0206,-0.991,-1.0046,0.0,0.0,0.0,0.0,0.0,0.0,0.0,0.0,-1.0962,-1.0373,0.0,0.0,0.0,0.0,0.0,0.0,0.0,0.0,0.0,0.0,0.0,0.0,0.0,0.0,0.0,0.0,0.6844,0.6953,0.7078,0.7095,0.7095,0.7095,0.7261,0.736,0.7439,0.6425,0.5303,0.4116,0.2784,0.1457,0.0303,0.0,0.0,0.0,0.0,0.0,0.0,0.0,0.0,0.0,0.0,0.0,0.0,0.0,0.0,0.0,0.0,0.0,0.0,0.0,0.0,0.0,0.0,0.0,0.0,0.0,-0.0662,0.0,0.0,0.0,0.0,-0.5947,-0.6297,-0.63,-0.63,-0.63,-0.63,-0.63,-0.63,-0.63,-0.63,-0.63,-0.63,-0.63,-0.63,-0.63,-0.63,-0.6286,-0.6272,-0.6272,-0.6259,-0.6248,-0.6248,-0.6276,-0.6606,-0.748,-0.6872,0.0,-0.8727,-0.8199,-0.8008,-0.9031,0.0,0.0,-0.9296,-0.9276,-0.9256,-0.9256,-0.8948,-0.8707,-0.8443,-0.8462,-0.8592,-0.8792,-0.8712,-0.881,-0.9067,-0.9097,-0.9069,-0.8988,-0.9567,-0.8939,0.0,0.0,0.0,0.0,0.0,0.0,0.0,0.0,0.0,0.0,0.0,0.0,0.0,0.0,0.0,0.6692,0.6883,0.7065,0.7092,0.7095,0.7095,0.7095,0.7122,0.7282,0.7533,0.6418,0.5611,0.5577,0.3362,0.1882,0.161,0.0565,0.0,0.0,0.0,0.0,0.0,0.0,0.0,0.0,0.0,0.0,0.0,0.0,0.0,0.0,0.0,0.0,0.0,0.0,0.0,0.0,0.0,0.0,0.0,0.0,-0.0131,-0.052,-0.17,-0.2693,-0.3641,-0.4816,-0.5698,-0.63,-0.63,-0.63,0.0,-0.63,-0.63,-0.63,-0.63,-0.63,-0.63,-0.63,-0.63,-0.63,-0.63,-0.6162,-0.6074,-0.6074,-0.5973,-0.5891,-0.5891,-0.6136,-0.6377,-0.6567,-0.6416,-0.6451,-0.6834,-0.6718,-0.6984,-0.7974,-0.8084,-0.8428,-0.9221,-0.9204,-0.9055,-0.8898,-0.8817,-0.8777,-0.8732,-0.899,-0.902,-0.8797,-0.8272,-0.789,-0.769,-0.7967,-0.7668,-0.6907,-0.8609,-0.8815,0.0,0.0,0.0,0.0,0.0,0.0,0.0,0.0,0.0,0.0,0.0,0.619,0.6339,0.0,0.6837,0.6909,0.7001,0.7095,0.7095,0.7095,0.7095,0.7095,0.7095,0.7156,0.7353,0.6882,0.6391,0.5846,0.4039,0.2687,0.2011,0.0712,0.0,0.0,0.0,0.0,0.0,0.0,0.0,0.0,0.0,0.0,0.0,0.0,0.0,0.0,0.0,0.0,0.0,0.0,0.0,0.0,0.0,0.0,0.0,0.0,0.0,-0.0168,-0.1285,-0.2313,-0.3299,-0.4414,-0.5487,-0.63,-0.63,-0.63,-0.63,-0.63,-0.63,-0.63,-0.63,-0.63,-0.63,-0.63,-0.63,-0.6279,-0.6162,-0.6084,-0.5969,-0.5928,-0.5854,-0.58,-0.58,-0.5928,-0.6067,-0.6067,-0.6067,-0.6067,-0.6067,-0.6067,-0.625,-0.6726,-0.68,-0.7019,-0.7495,-0.7532,-0.7495,-0.7417,-0.7505,-0.7559,-0.7559,-0.769,-0.7736,-0.7559,-0.7202,-0.6981,-0.6814,-0.6981,-0.6795,-0.6338,-0.7326,-0.7518,0.0,0.0,0.0,0.0,0.0,0.0,0.0,0.5633,0.5742,0.5942,0.6196,0.646,0.6658,0.6848,0.6964,0.7078,0.7095,0.7095,0.7095,0.7095,0.7095,0.7095,0.7095,0.7109,0.7139,0.7411,0.7148,0.6097,0.5003,0.3751,0.2464,0.1109,0.0252,0.0,0.0,0.0,0.0,0.0,0.0,0.0,0.0,0.0,0.0,0.0,0.0,0.0,0.0,0.0,0.0,0.0,0.0,0.0,0.0,0.0,0.0,0.0,0.0,-0.0122,-0.097,-0.1949,-0.2969,-0.4062,-0.5118,-0.6025,-0.6219,-0.63,-0.63,-0.63,-0.63,-0.63,-0.63,-0.63,-0.63,-0.63,-0.6276,-0.6183,-0.602,-0.5946,-0.5908,-0.5783,-0.5735,-0.5715,-0.5715,-0.5715,-0.5735,-0.5793,-0.58,-0.58,-0.58,-0.58,-0.58,-0.58,-0.58,-0.5789,-0.5762,-0.5898,-0.5936,-0.5909,-0.6115,-0.6255,-0.6255,-0.6282,-0.63,-0.63,-0.63,-0.63,-0.63,-0.63,-0.63,-0.63,-0.63,-0.63,0.7735,0.7144,0.6363,0.5591,0.5498,0.5569,0.0,0.5793,0.5952,0.5986,0.6363,0.6661,0.6695,0.6886,0.7078,0.7095,0.7095,0.7095,0.7095,0.7095,0.7095,0.7095,0.7095,0.7149,0.7333,0.7422,0.7459,0.7571,0.6349,0.508,0.3862,0.2514,0.1209,0.0051,0.0,0.0,0.0,0.0,0.0,0.0,0.0,0.0,0.0,0.0,0.0,0.0,0.0,0.0,0.0,0.0,0.0,0.0,0.0,0.0,0.0,0.0,0.0,0.0,-0.0119,-0.0865,-0.1919,-0.2969,-0.4021,-0.504,-0.6022,-0.63,-0.63,-0.63,-0.63,-0.63,-0.63,-0.63,-0.63,-0.63,-0.6156,-0.6013,-0.5996,-0.5823,-0.5633,-0.5616,-0.5539,-0.5443,-0.5443,-0.5443,-0.5532,-0.5762,-0.58,-0.58,-0.58,-0.58,-0.58,-0.58,-0.58,-0.5749,-0.5623,-0.5745,-0.5772,-0.5647,-0.5901,-0.602,-0.602,-0.6186,-0.63,-0.63,-0.63,-0.63,-0.63,-0.63,-0.63,-0.63,-0.63,-0.63,0.7464,0.6981,0.6494,0.562,0.5837,0.6142,0.5703,0.6063,0.6626,0.6964,0.7196,0.7396,0.7651,0.7777,0.7686,0.717,0.7095,0.7095,0.7095,0.7024,0.7004,0.7085,0.7024,0.7031,0.7221,0.7319,0.7467,0.7546,0.6389,0.5442,0.4951,0.3,0.1636,0.1042,0.0351,0.0,0.0,0.0,0.0,0.0,0.0,0.0,0.0,0.0,0.0,0.0,0.0,0.0,0.0,0.0,0.0,0.0,0.0,0.0,0.0,0.0,0.0,0.0,0.0,-0.0706,-0.1685,-0.2074,-0.3361,-0.4766,-0.5237,-0.5786,-0.63,-0.63,-0.63,-0.63,-0.63,-0.63,-0.6276,-0.6146,-0.6078,-0.5946,-0.581,-0.5677,-0.5562,-0.5508,-0.544,-0.5395,-0.5395,-0.5395,-0.5436,-0.5562,-0.5579,-0.5579,-0.5579,-0.5579,-0.5579,-0.5579,-0.5579,-0.5556,-0.5494,-0.5593,-0.5654,-0.5593,-0.5783,-0.5895,-0.5895,-0.5959,-0.5993,-0.5993,-0.6081,-0.6125,-0.6125,-0.6255,-0.63,-0.63,-0.63,-0.63,0.7455,0.7046,0.6854,0.598,0.6271,0.6601,0.607,0.6674,0.7373,0.7579,0.7896,0.825,0.8547,0.851,0.8188,0.7581,0.7244,0.7095,0.7095,0.7007,0.698,0.7085,0.7007,0.6984,0.7085,0.7241,0.7326,0.7412,0.6577,0.5938,0.5638,0.3513,0.2186,0.1798,0.0641,0.0,0.0,0.0,0.0,0.0,0.0,0.0,0.0,0.0,0.0,0.0,0.0,0.0,0.0,0.0,0.0,0.0,0.0,0.0,0.0,0.0,0.0,0.0,0.0,-0.051,-0.1215,-0.1489,-0.2621,-0.3908,-0.4178,-0.5002,-0.5867,-0.5867,-0.6064,-0.63,-0.63,-0.6269,-0.6169,-0.602,-0.5932,-0.585,-0.5637,-0.5555,-0.5528,-0.5416,-0.5395,-0.5395,-0.5395,-0.5395,-0.5395,-0.5395,-0.5395,-0.5395,-0.5395,-0.5395,-0.5395,-0.5395,-0.5395,-0.5395,-0.5395,-0.5498,-0.5562,-0.5562,-0.5661,-0.5742,-0.5742,-0.5779,-0.58,-0.58,-0.5911,-0.5929,-0.5929,-0.6122,-0.6235,-0.6238,-0.6279,-0.63,0.8441,0.7962,0.7767,0.6883,0.6793,0.6894,0.6869,0.7623,0.8122,0.7304,0.8144,0.9064,0.9084,0.8725,0.8403,0.8365,0.765,0.7095,0.7095,0.7092,0.7092,0.7095,0.7092,0.7092,0.7095,0.7098,0.721,0.7405,0.7377,0.6833,0.568,0.4415,0.3139,0.1857,0.062,0.0,0.0,0.0,0.0,0.0,0.0,0.0,0.0,0.0,0.0,0.0,0.0,0.0,0.0,0.0,0.0,0.0,0.0,0.0,0.0,0.0,0.0,0.0,0.0,-0.0039,-0.0236,-0.1254,-0.1646,-0.188,-0.2852,-0.3904,-0.4766,-0.4766,-0.5512,-0.63,-0.63,-0.6149,-0.5996,-0.5993,-0.581,-0.5599,-0.5593,-0.5508,-0.5399,-0.5395,-0.5395,-0.5395,-0.5395,-0.5395,-0.5395,-0.5395,-0.5395,-0.5395,-0.5395,-0.5395,-0.5395,-0.5395,-0.5395,-0.5395,-0.5395,-0.5399,-0.5402,-0.5402,-0.5545,-0.5596,-0.5596,-0.5728,-0.58,-0.58,-0.5806,-0.581,-0.581,-0.5962,-0.6,-0.6003,-0.6193,-0.63,0.8318,0.7567,0.7079,0.6785,0.7161,0.7645,0.7645,0.8332,0.897,0.8853,0.9186,0.9619,1.0027,0.9477,0.8851,0.8446,0.769,0.7095,0.7095,0.7014,0.6991,0.7085,0.7014,0.6994,0.7088,0.7095,0.0,0.7214,0.7217,0.7014,0.6602,0.5494,0.4281,0.3026,0.1842,0.081,0.0,0.0,0.0,0.0,0.0,0.0,0.0,0.0,0.0,0.0,0.0,0.0,0.0,0.0,0.0,0.0,0.0,0.0,0.0,0.0,0.0,0.0,0.0,0.0,-0.0079,-0.0432,-0.102,-0.1646,-0.1996,-0.2813,-0.3787,-0.4491,-0.496,-0.5395,-0.6103,-0.6146,-0.5966,-0.5901,-0.5732,-0.5562,-0.5494,-0.5433,-0.5395,-0.5395,-0.5395,-0.5395,-0.5395,-0.5395,-0.5395,-0.5395,-0.5395,-0.5395,-0.5395,-0.5395,-0.5395,-0.5395,-0.5395,-0.5395,-0.5395,-0.5395,-0.5395,-0.5395,-0.5443,-0.5474,-0.5474,-0.5518,-0.5542,-0.5542,-0.561,-0.5661,-0.5661,-0.5806,-0.5878,-0.5881,-0.6037,-0.6108,0.871,0.8059,0.7632,0.7632,0.8059,0.8452,0.8452,0.9134,0.9739,0.9578,0.9889,1.0307,1.0815,1.0282,0.9729,0.9518,0.8406,0.7599,0.7746,0.7276,0.7014,0.7207,0.7143,0.7146,0.7247,0.726,0.7213,0.7105,0.7146,0.7156,0.7098,0.6014,0.5056,0.428,0.2634,0.1444,0.0653,0.0233,0.0,0.0,0.0,0.0,0.0,0.0,0.0,0.0,0.0,0.0,0.0,0.0,0.0,0.0,0.0,0.0,0.0,0.0,0.0,0.0,0.0,0.0,0.0,0.0,-0.0471,-0.1097,-0.1489,-0.2308,-0.3318,-0.4414,-0.496,-0.5422,-0.6036,-0.6064,-0.5911,-0.5762,-0.5613,-0.5515,-0.5416,-0.5395,-0.5395,-0.5395,-0.5395,-0.5395,-0.5395,-0.5395,-0.5395,-0.5395,-0.5395,-0.5395,-0.5395,-0.5395,-0.5395,-0.5395,-0.5395,-0.5395,-0.5395,-0.5395,-0.5395,-0.5395,-0.5395,-0.5395,-0.5395,-0.5395,-0.5395,-0.5395,-0.5491,-0.5542,-0.5542,-0.5654,-0.5725,-0.5728,-0.5878,-0.5939,0.953,0.9242,0.9177,0.9274,0.9306,0.9306,0.937,1.0009,1.0364,0.953,1.0218,1.1056,1.1315,1.0947,1.0808,1.1385,0.9768,0.852,0.8865,0.7841,0.7149,0.7343,0.7412,0.7428,0.7573,0.76,0.7485,0.7142,0.0,0.7309,0.7115,0.6074,0.5447,0.5403,0.3173,0.1924,0.179,0.0583,0.0,0.0,0.0,0.0,0.0,0.0,0.0,0.0,0.0,0.0,0.0,0.0,0.0,0.0,0.0,0.0,0.0,0.0,0.0,0.0,0.0,0.0,0.0,0.0,0.0,-0.0196,-0.1293,-0.2268,-0.324,-0.4375,-0.5428,-0.6175,-0.603,-0.5911,-0.5755,-0.5623,-0.5504,-0.5395,-0.5395,-0.5395,-0.5395,-0.5395,-0.5395,-0.5395,-0.5395,-0.5395,-0.5395,-0.5395,-0.5395,-0.5395,-0.5395,-0.5395,-0.5395,-0.5395,-0.5395,-0.5395,-0.5395,-0.5395,-0.5395,-0.5395,-0.5395,-0.5395,-0.5395,-0.5395,-0.5395,-0.5395,-0.5395,-0.5395,-0.5395,-0.5542,-0.5579,-0.5583,-0.5725,-0.5867,0.9172,0.8355,0.767,0.8973,0.9306,0.9466,1.011,1.0428,1.053,1.0301,1.0487,1.0787,1.1049,1.0824,1.0712,1.1068,0.9798,0.8792,0.8882,0.7841,0.7109,0.7149,0.7299,0.7433,0.7424,0.7628,0.7682,0.0,0.7414,0.7398,0.7316,0.6888,0.6293,0.5447,0.4823,0.3619,0.1835,0.0583,0.0,0.0,0.0,0.0,0.0,0.0,0.0,0.0,0.0,0.0,0.0,0.0,0.0,0.0,0.0,0.0,0.0,0.0,0.0,0.0,0.0,0.0,0.0,0.0,0.0,-0.0196,-0.1293,-0.1762,-0.2347,-0.4181,-0.4819,-0.5124,-0.5813,-0.5837,-0.5633,-0.5599,-0.5504,-0.5395,-0.5395,-0.5395,-0.5395,-0.5395,-0.5395,-0.5395,-0.5395,-0.5395,-0.5395,-0.5395,-0.5395,-0.5395,-0.5395,-0.5395,-0.5395,-0.5395,-0.5395,-0.5395,-0.5395,-0.5395,-0.5395,-0.5395,-0.5395,-0.5395,-0.5395,-0.5395,-0.5395,-0.5395,-0.5395,-0.5395,-0.5395,-0.5433,-0.5453,-0.5457,-0.5576,-0.5664,0.9268,0.8581,0.8091,0.9043,0.9306,0.953,1.0396,1.0593,1.0593,1.0593,1.0593,1.068,1.0942,1.1074,1.131,1.1738,1.0914,1.0105,0.9777,0.8677,0.7764,0.7371,0.736,0.7443,0.7465,0.7621,0.7685,0.7604,0.7519,0.7441,0.7419,0.7224,0.6827,0.616,0.5669,0.4243,0.1835,0.1121,0.0539,0.0,0.0,0.0,0.0,0.0,0.0,0.0,0.0,0.0,0.0,0.0,0.0,0.0,0.0,0.0,0.0,0.0,0.0,0.0,0.0,0.0,0.0,0.0,0.0,-0.0196,-0.1293,-0.1607,-0.2036,-0.4103,-0.4604,-0.4731,-0.5648,-0.5759,-0.5572,-0.5539,-0.5457,-0.5395,-0.5395,-0.5395,-0.5395,-0.5395,-0.5395,-0.5395,-0.5395,-0.5395,-0.5395,-0.5395,-0.5395,-0.5395,-0.5395,-0.5395,-0.5395,-0.5395,-0.5395,-0.5395,-0.5395,-0.5395,-0.5395,-0.5395,-0.5395,-0.5395,-0.5395,-0.5395,-0.5395,-0.5395,-0.5395,-0.5395,-0.5395,-0.5395,-0.5395,-0.5395,-0.5484,-0.5559,0.9498,0.9306,0.9306,0.9306,0.9402,0.9658,1.0428,1.0593,1.0593,1.0593,1.0593,1.068,1.0942,1.1476,1.21,1.269,1.2298,1.1618,1.0884,0.9707,0.8581,0.7672,0.7451,0.7424,0.7556,0.7587,0.76,0.76,0.758,0.7512,0.7426,0.7224,0.7095,0.7095,0.5965,0.4358,0.2272,0.191,0.1244,0.0223,0.0087,0.0,0.0,0.0,0.0,0.0,0.0,0.0,0.0,0.0,0.0,0.0,0.0,0.0,0.0,0.0,0.0,0.0,0.0,0.0,0.0,0.0,0.0,-0.0196,-0.1293,-0.1603,-0.1987,-0.3928,-0.4382,-0.4485,-0.5369,-0.5489,-0.5388,-0.5393,-0.5395,-0.5395,-0.5395,-0.5395,-0.5395,-0.5395,-0.5395,-0.5395,-0.5395,-0.5395,-0.5395,-0.5395,-0.5395,-0.5395,-0.5395,-0.5395,-0.5395,-0.5395,-0.5395,-0.5395,-0.5395,-0.5395,-0.5395,-0.5395,-0.5395,-0.5395,-0.5395,-0.5395,-0.5395,-0.5395,-0.5395,-0.5395,-0.5395,-0.5395,-0.5395,-0.5395,-0.5395,-0.5467,0.9338,0.9306,0.9306,0.9306,0.9849,1.0396,1.0561,1.0593,1.0593,1.0593,1.0593,1.068,1.0942,1.1476,1.21,1.269,1.2298,1.1618,1.0884,0.9707,0.8533,0.757,0.7433,0.7429,0.7453,0.7526,0.76,0.76,0.7482,0.7446,0.7419,0.7224,0.7095,0.7095,0.5834,0.4954,0.4521,0.2608,0.1527,0.1315,0.0416,0.0,0.0,0.0,0.0,0.0,0.0,0.0,0.0,0.0,0.0,0.0,0.0,0.0,0.0,0.0,0.0,0.0,0.0,0.0,0.0,0.0,0.0,-0.0196,-0.1293,-0.1584,-0.1863,-0.3037,-0.3266,-0.3391,-0.4254,-0.4372,-0.4478,-0.5233,-0.5395,-0.5395,-0.5395,-0.5395,-0.5395,-0.5395,-0.5395,-0.5395,-0.5395,-0.5395,-0.5395,-0.5395,-0.5395,-0.5395,-0.5395,-0.5395,-0.5395,-0.5395,-0.5395,-0.5395,-0.5395,-0.5395,-0.5395,-0.5395,-0.5395,-0.5395,-0.5395,-0.5395,-0.5395,-0.5395,-0.5395,-0.5395,-0.5395,-0.5395,-0.5395,-0.5395,-0.5395,-0.5409,0.9434,0.8979,0.8619,0.8619,0.8935,0.9358,0.9817,1.0269,1.0593,1.0593,1.0593,1.068,1.0942,1.1476,1.2047,1.2482,1.2699,1.2302,1.0878,1.0187,0.9213,0.7692,0.735,0.7251,0.7251,0.7316,0.736,0.736,0.7292,0.7285,0.7412,0.7224,0.7061,0.6991,0.6393,0.5721,0.5019,0.3872,0.2723,0.1592,0.1598,0.1339,0.0853,0.0833,0.0824,0.0784,0.0235,0.0,0.0,0.0,0.0,0.0,0.0,0.0,0.0,0.0,0.0,0.0,0.0,0.0,0.0,0.0,0.0,-0.0077,-0.0606,-0.0786,-0.1,-0.2035,-0.2196,-0.2304,-0.3279,-0.3419,-0.3547,-0.4453,-0.4686,-0.4686,-0.4686,-0.4686,-0.4821,-0.5296,-0.5395,-0.5395,-0.5395,-0.5395,-0.5395,-0.5395,-0.5395,-0.5395,-0.5395,-0.5395,-0.5395,-0.5395,-0.5395,-0.5395,-0.5395,-0.5395,-0.5395,-0.5395,-0.5395,-0.5395,-0.5395,-0.5395,-0.5395,-0.5395,-0.5395,-0.5395,-0.5395,-0.5395,-0.5395,-0.5395,-0.5395,-0.5395,0.93,0.8812,0.8415,0.7859,0.7994,0.8452,0.9139,0.9817,1.0364,1.0561,1.0593,1.07,1.1022,1.1463,1.1946,1.2331,1.3046,1.2901,1.1159,1.0722,0.9927,0.8112,0.7441,0.7095,0.7095,0.7095,0.7095,0.7095,0.7095,0.0,0.7316,0.7177,0.7001,0.6889,0.6822,0.6305,0.524,0.4966,0.4004,0.227,0.2837,0.2693,0.1932,0.1936,0.1802,0.1568,0.0706,0.0,0.0,0.0,0.0,0.0,0.0,0.0,0.0,0.0,0.0,0.0,0.0,0.0,0.0,0.0,0.0,0.0,0.0,0.0,-0.0181,-0.1011,-0.1133,-0.1248,-0.2283,-0.2484,-0.2609,-0.3513,-0.3713,-0.3713,-0.3713,-0.3713,-0.3949,-0.4686,-0.4821,-0.4888,-0.5057,-0.509,-0.516,-0.5362,-0.5395,-0.5395,-0.5395,-0.5395,-0.5395,-0.5395,-0.5395,-0.5395,-0.5395,-0.5395,-0.5395,-0.5395,-0.5395,-0.5395,-0.5395,-0.5395,-0.5395,-0.5395,-0.5395,-0.5395,-0.5395,-0.5395,-0.5395,-0.5395,-0.5395,-0.5395,0.8576,0.9224,0.9773,0.74,0.7994,0.9204,0.9274,0.937,0.9658,1.0428,1.0593,1.076,1.1283,1.1395,1.1737,1.261,1.3013,1.2956,1.2085,1.1187,1.0173,0.9111,0.7856,0.7095,0.7095,0.7095,0.7095,0.7095,0.7095,0.0,0.7119,0.6984,0.69,0.6886,0.6658,0.6468,0.6371,0.5283,0.4601,0.4403,0.3528,0.3056,0.2978,0.2971,0.2462,0.1607,0.1489,0.0,0.0,0.0,0.0,0.0,0.0,0.0,0.0,0.0,0.0,0.0,0.0,0.0,0.0,0.0,0.0,0.0,0.0,0.0,-0.0035,-0.0106,-0.0138,-0.0338,-0.1212,-0.1443,-0.1675,-0.2611,-0.2811,-0.2811,-0.2811,-0.2811,-0.2845,-0.2945,-0.2945,-0.3211,-0.3982,-0.4115,-0.4417,-0.5259,-0.5395,-0.5395,-0.5395,-0.5395,-0.5395,-0.5395,-0.5395,-0.5395,-0.5395,-0.5395,-0.5395,-0.5395,-0.5395,-0.5395,-0.5395,-0.5395,-0.5395,-0.5395,-0.5395,-0.5395,-0.5395,-0.5395,-0.5395,-0.5395,-0.5395,-0.5395,0.8188,0.8511,0.8672,0.7074,0.8027,0.9172,0.8646,0.9326,1.0174,1.053,1.0734,1.0949,1.1315,1.157,1.1924,1.267,1.3045,1.2957,1.2184,1.1815,1.0991,0.9311,0.8553,0.7885,0.7183,0.7095,0.7095,0.7095,0.7095,0.0,0.6974,0.6916,0.6846,0.6793,0.6583,0.647,0.6385,0.5892,0.5354,0.4688,0.4924,0.4686,0.4062,0.4062,0.3828,0.3402,0.2154,0.0,0.0,0.0275,0.0,0.0,0.0,0.0,0.0,0.0,0.0,0.0,0.0,0.0,0.0,0.0,0.0,0.0,0.0,0.0,0.0,0.0,0.0,-0.0067,-0.0437,-0.0906,-0.1274,-0.1108,-0.1476,-0.1842,-0.1842,-0.1842,-0.2009,-0.2577,-0.2711,-0.2811,-0.3145,-0.3211,-0.3347,-0.3713,-0.3782,-0.3949,-0.4486,-0.4553,-0.4553,-0.4553,-0.5057,-0.5395,-0.5395,-0.5395,-0.5395,-0.5395,-0.5395,-0.5395,-0.5395,-0.5395,-0.5395,-0.5395,-0.5395,-0.5395,-0.5395,-0.5395,-0.5395,-0.5395,-0.5395,-0.5395,0.7994,0.7994,0.78,0.6915,0.7827,0.8748,0.8124,0.916,1.0327,1.0636,1.0888,1.1109,1.1483,1.173,1.2067,1.2569,1.2953,1.3026,1.2486,1.2432,1.1897,1.038,0.9792,0.9231,0.8347,0.7911,0.7489,0.7139,0.7058,0.0,0.6889,0.6844,0.6746,0.6634,0.6528,0.6402,0.6303,0.63,0.5906,0.5196,0.5944,0.5906,0.5157,0.5157,0.5002,0.4608,0.0,0.0,0.0,0.0902,0.0469,0.0427,0.0117,0.0,0.0,0.0,0.0,0.0,0.0,0.0,0.0,0.0,0.0,0.0,0.0,0.0,0.0,0.0,0.0,0.0,0.0,-0.0471,-0.0772,-0.0135,-0.0471,-0.0906,-0.0906,-0.0906,-0.1107,-0.1776,-0.191,-0.1977,-0.2243,-0.2277,-0.2376,-0.2644,-0.2711,-0.2911,-0.3547,-0.3613,-0.3613,-0.3613,-0.4217,-0.4722,-0.4957,-0.499,-0.509,-0.5395,-0.5395,-0.5259,-0.499,-0.499,-0.4855,-0.4619,-0.4855,-0.4855,-0.4586,-0.5126,-0.5259,-0.499,-0.5259,-0.5395,0.7994,0.7994,0.78,0.6915,0.7372,0.8027,0.7994,0.8678,0.9635,1.0765,1.0989,1.1169,1.1792,1.1899,1.2,1.2258,1.2812,1.3213,1.318,1.2964,1.2797,1.2759,1.1739,1.1073,1.1073,0.9742,0.8364,0.7183,0.0,0.0,0.6886,0.6641,0.6515,0.6515,0.6375,0.6303,0.63,0.63,0.63,0.63,0.63,0.63,0.63,0.63,0.5709,0.0,0.0,0.0,0.0,0.1996,0.1584,0.1474,0.0416,0.0,0.0,0.0,0.0,0.0,0.0,0.0,0.0,0.0,0.0,0.0,0.0,0.0,0.0,0.0,0.0,0.0,0.0,0.0,0.0,0.0,0.0,0.0,0.0,0.0,0.0,-0.0034,-0.0034,-0.0303,-0.1173,-0.1307,-0.1641,-0.2544,-0.2711,-0.2711,-0.2711,-0.2711,-0.2711,-0.2711,-0.2711,-0.3078,-0.3949,-0.4015,-0.4417,-0.5326,-0.5395,-0.499,-0.4048,-0.4015,-0.3613,-0.2744,-0.358,-0.358,-0.2744,-0.4519,-0.4921,-0.4048,-0.4957,-0.5395,0.7111,0.7994,0.8678,0.7795,0.8705,0.962,0.9037,0.9556,1.0347,1.0896,1.1149,1.1403,1.1832,1.2067,1.2331,1.2839,1.3214,1.3533,1.3781,1.391,1.3592,1.2598,1.1451,1.076,1.076,0.9616,0.8705,0.8236,0.0,0.0,0.6627,0.6566,0.6511,0.6511,0.6375,0.63,0.63,0.63,0.63,0.6296,0.6156,0.6159,0.6296,0.6149,0.0,0.0,0.0,0.0,0.0,0.2958,0.213,0.1546,0.1075,0.0513,0.0,0.0,0.0,0.0,0.0,0.0,0.0,0.0,0.0,0.0,0.0,0.0,0.0,0.0,0.0,0.0,0.0,0.0,0.0,0.0,0.0,0.0,0.0,0.0,0.0,0.0,0.0,-0.0101,-0.037,-0.0404,-0.0505,-0.0807,-0.084,-0.1074,-0.1675,-0.1742,-0.1742,-0.1742,-0.1742,-0.211,-0.3045,-0.3111,-0.3245,-0.3547,-0.3547,-0.3413,-0.3111,-0.3111,-0.2978,-0.2711,-0.2978,-0.2978,-0.2711,-0.328,-0.3413,-0.3111,-0.3413,-0.3547,0.7111,0.7994,0.8748,0.8549,0.9294,0.9977,0.9434,1.0059,1.0841,1.1096,1.139,1.1683,1.1977,1.2178,1.2425,1.2806,1.3174,1.35,1.3728,1.4195,1.4139,1.3243,1.2486,1.1835,1.1305,1.0611,0.9751,0.8789,0.0,0.0,0.6525,0.646,0.6433,0.6433,0.6347,0.63,0.63,0.63,0.63,0.6296,0.6162,0.6166,0.6296,0.6162,0.0,0.0,0.0,0.0,0.0,0.3852,0.3069,0.2488,0.1622,0.0961,0.0458,0.0104,0.0,0.0,0.0,0.0,0.0,0.0,0.0,0.0,0.0,0.0,0.0,0.0,0.0,0.0,0.0,0.0,0.0,0.0,0.0,0.0,0.0,0.0,0.0,0.0,0.0,0.0,0.0,0.0,0.0,0.0,0.0,-0.0202,-0.0739,-0.0806,-0.0806,-0.0806,-0.0806,-0.1041,-0.1643,-0.1977,-0.231,-0.2678,-0.2711,-0.2544,-0.2177,-0.2177,-0.2009,-0.1677,-0.2009,-0.2009,-0.1677,-0.2009,-0.2342,-0.2711,-0.2711,-0.2711,0.0,0.8091,0.8285,0.9172,0.9402,0.9402,0.9402,1.0224,0.0,1.1329,1.1663,1.2,1.2278,1.2338,1.2345,1.2392,1.2906,1.33,1.328,1.3975,1.4489,1.4489,1.4489,1.3931,1.2571,1.231,1.1298,0.0,0.0,0.0,0.6544,0.6371,0.63,0.63,0.6289,0.6289,0.63,0.6289,0.6282,0.6282,0.6272,0.6272,0.6282,0.6272,0.0,0.0,0.0,0.0,0.0,0.4706,0.4247,0.4013,0.2194,0.1405,0.1207,0.0404,0.0067,0.0,0.0,0.0,0.0,0.0,0.0,0.0,0.0,0.0,0.0,0.0,0.0,0.0,0.0,0.0,0.0,0.0,0.0,0.0,0.0,0.0,0.0,0.0,0.0,0.0,0.0,0.0,0.0,0.0,0.0,0.0,0.0,0.0,0.0,0.0,0.0,0.0,0.0,-0.0739,-0.1574,-0.2444,-0.2511,-0.211,-0.124,-0.1207,-0.0839,0.0,-0.0806,-0.0806,0.0,-0.0806,-0.1641,-0.2511,-0.2511,-0.2511,0.8941,0.0,0.9204,1.0079,1.0301,1.0301,0.0,1.0652,1.1076,1.1329,1.1663,1.206,1.2583,1.2683,1.2831,1.3214,1.378,1.4135,1.3915,1.4055,1.4188,1.4188,1.4188,1.407,1.3695,1.2667,1.1391,0.0,0.0,0.7601,0.6397,0.6317,0.63,0.63,0.6146,0.6142,0.6296,0.6142,0.6084,0.6084,0.5966,0.5969,0.6078,0.5962,0.0,0.0,0.0,0.0,0.5757,0.5399,0.4845,0.4144,0.3578,0.2525,0.1273,0.1074,0.0572,0.0,0.0,0.0,0.0,0.0,0.0,0.0,0.0,0.0,0.0,0.0,0.0,0.0,0.0,0.0,0.0,0.0,0.0,0.0,0.0,0.0,0.0,0.0,0.0,0.0,0.0,0.0,0.0,0.0,0.0,0.0,0.0,0.0,0.0,0.0,0.0,0.0,0.0,-0.0202,-0.0404,-0.0605,-0.0639,-0.0538,-0.0303,-0.0303,-0.0202,0.0,-0.0202,-0.0202,0.0,-0.0202,-0.0404,-0.0639,-0.0639,-0.0639,0.9177,0.9685,1.0199,1.0658,1.0894,1.0955,1.0955,1.1182,1.1436,1.1597,1.1864,1.2241,1.2697,1.2784,1.2985,1.3507,1.3866,1.4073,1.4088,1.4088,1.4088,1.4088,1.4088,1.4035,0.0,1.3137,0.0,0.0,0.0,0.8243,0.7072,0.6457,0.6156,0.6156,0.6006,0.6,0.6156,0.6003,0.5925,0.5925,0.584,0.5844,0.5922,0.584,0.5813,0.0,0.0,0.0,0.5627,0.5549,0.5209,0.4685,0.4208,0.3411,0.2444,0.1608,0.1006,0.0538,0.0135,0.0,0.0,0.0,0.0,0.0,0.0,0.0,0.0,0.0,0.0,0.0,0.0,0.0,0.0,0.0,0.0,0.0,0.0,0.0,0.0,0.0,0.0,0.0,0.0,0.0,0.0,0.0,0.0,0.0,0.0,0.0,0.0,0.0,0.0,0.0,0.0,0.0,0.0,0.0,0.0,0.0,0.0,0.0,0.0,0.0,0.0,0.0,0.0,0.0,0.0,0.0,0.0,0.0,0.9347,1.0275,1.1049,1.1002,1.1209,1.1389,1.1389,1.1657,1.1906,1.1906,1.2098,1.2405,1.279,1.2891,1.3119,1.364,1.374,1.382,1.4122,1.4115,1.4088,1.4088,1.4048,0.0,1.3626,0.0,0.0,0.0,0.0,0.9207,0.7821,0.6746,0.6104,0.5956,0.5847,0.583,0.5925,0.5833,0.5769,0.5769,0.5769,0.5769,0.5769,0.5769,0.5701,0.0,0.0,0.0,0.5395,0.5395,0.5395,0.5329,0.4519,0.4115,0.3813,0.2277,0.1641,0.1374,0.0505,0.0202,0.0168,0.0034,0.0,0.0,0.0,0.0,0.0,0.0,0.0,0.0,0.0,0.0,0.0,0.0,0.0,0.0,0.0,0.0,0.0,0.0,0.0,0.0,0.0,0.0,0.0,0.0,0.0,0.0,0.0,0.0,0.0,0.0,0.0,0.0,0.0,0.0,0.0,0.0,0.0,0.0,0.0,0.0,0.0,0.0,0.0,0.0,0.0,0.0,0.0,0.0,0.0,0.0,1.0627,1.1035,1.1262,1.1056,1.1209,1.1389,1.1389,1.1657,1.1906,1.1906,1.2098,1.2472,1.3039,1.33,1.366,1.4289,1.4339,1.4402,1.4449,1.4242,1.4088,1.4088,0.0,1.3653,0.0,0.0,0.0,0.0,0.0,0.9479,0.7649,0.7146,0.6586,0.5873,0.5698,0.5633,0.5657,0.5633,0.5623,0.5623,0.5623,0.5623,0.5623,0.5623,0.561,0.0,0.0,0.5416,0.5395,0.5395,0.5395,0.5395,0.5226,0.4688,0.3982,0.368,0.3111,0.2344,0.1408,0.1106,0.0973,0.0236,0.0,0.0,0.0,0.0,0.0,0.0,0.0,0.0,0.0,0.0,0.0,0.0,0.0,0.0,0.0,0.0,0.0,0.0,0.0,0.0,0.0,0.0,0.0,0.0,0.0,0.0,0.0,0.0,0.0,0.0,0.0,0.0,0.0,0.0,0.0,0.0,0.0,0.0,0.0,0.0,0.0,0.0,0.0,0.0,0.0,0.0,0.0,0.0,0.0,0.0,1.0754,1.1089,1.1362,1.1263,1.1563,1.1897,1.1897,1.2004,1.2187,1.2348,1.2489,1.2726,1.3293,1.3513,1.374,1.4215,1.4422,1.4469,1.4309,1.4035,1.3848,0.0,0.0,1.3347,0.0,0.0,0.0,0.0,0.0,0.0,0.8847,0.7658,0.6824,0.6406,0.5812,0.5501,0.5501,0.5501,0.5501,0.5501,0.5501,0.5501,0.5501,0.5501,0.5501,0.5498,0.0,0.5395,0.5395,0.5395,0.5395,0.5395,0.5395,0.5126,0.4686,0.4184,0.3447,0.2644,0.221,0.1708,0.124,0.0839,0.037,0.0,0.0,0.0,0.0,0.0,0.0,0.0,0.0,0.0,0.0,0.0,0.0,0.0,0.0,0.0,0.0,0.0,0.0,0.0,0.0,0.0,0.0,0.0,0.0,0.0,0.0,0.0,0.0,0.0,0.0,0.0,0.0,0.0,0.0,0.0,0.0,0.0,0.0,0.0,0.0,0.0,0.0,0.0,0.0,0.0,0.0,0.0,0.0,0.0,1.0673,1.0982,1.1302,1.1375,1.1817,1.2238,1.2378,1.2351,1.2405,1.2817,1.2891,1.3052,1.3507,1.3713,1.386,1.4062,1.4335,1.4396,1.4035,1.3746,1.358,1.3507,1.328,0.0,0.0,0.0,0.0,0.0,0.0,0.0,0.9874,0.8331,0.7274,0.6869,0.6111,0.5591,0.5395,0.5395,0.5395,0.5395,0.5395,0.5395,0.5395,0.5395,0.5395,0.5395,0.5395,0.5395,0.5395,0.5395,0.5395,0.5395,0.5395,0.5395,0.5329,0.4586,0.3915,0.3313,0.3078,0.2544,0.1909,0.1708,0.1175,0.0639,0.0639,0.0471,0.0303,0.0303,0.0168,0.0,0.0,0.0,0.0,0.0,0.0,0.0,0.0,0.0,0.0,0.0,0.0,0.0,0.0,0.0,0.0,0.0,0.0,0.0,0.0,0.0,0.0,0.0,0.0,0.0,0.0,0.0,0.0,0.0,0.0,0.0,0.0,0.0,0.0,0.0,0.0,0.0,0.0,0.0,0.0,0.0,0.0,0.0,1.0889,1.0995,1.1089,1.1322,1.1663,1.208,1.263,1.2536,1.2472,1.3053,1.318,1.3273,1.3547,1.4046,1.4376,1.4128,1.4335,1.4279,1.3713,0.0,1.35,1.3273,0.0,0.0,0.0,0.0,0.0,0.0,0.0,0.0,0.9746,0.934,0.0,0.6773,0.6629,0.6203,0.5395,0.5395,0.5395,0.5395,0.5395,0.5395,0.5395,0.5395,0.5395,0.5395,0.5395,0.5395,0.5395,0.5395,0.5395,0.5395,0.5395,0.5395,0.5395,0.5329,0.5259,0.509,0.4217,0.3849,0.368,0.2878,0.2544,0.2511,0.2511,0.1909,0.1207,0.1207,0.0638,0.0,0.0,0.0,0.0,0.0,0.0,0.0,0.0,0.0,0.0,0.0,0.0,0.0,0.0,0.0,0.0,0.0,0.0,0.0,0.0,0.0,0.0,0.0,0.0,0.0,0.0,0.0,0.0,0.0,0.0,0.0,0.0,0.0,0.0,0.0,0.0,0.0,0.0,0.0,0.0,0.0,0.0,0.0,1.0727,1.0982,1.1255,1.1362,1.165,1.2013,1.2415,1.2563,1.279,1.3313,1.344,1.3473,1.358,1.3786,1.384,1.3587,1.3634,1.3627,1.3367,1.3206,1.3046,1.2971,0.0,0.0,0.0,0.0,0.0,0.0,0.0,0.0,0.0,0.9649,0.0,0.835,0.7274,0.656,0.6203,0.5686,0.5395,0.5395,0.5395,0.5395,0.5395,0.5395,0.5395,0.5395,0.5395,0.5395,0.5395,0.5395,0.5395,0.5395,0.5395,0.5395,0.5395,0.5395,0.5395,0.5359,0.499,0.4486,0.3949,0.3613,0.3145,0.2711,0.2711,0.2444,0.2177,0.2177,0.1508,0.0672,0.0135,0.0,0.0,0.0,0.0,0.0,0.0,0.0,0.0,0.0,0.0,0.0,0.0,0.0,0.0,0.0,0.0,0.0,0.0,0.0,0.0,0.0,0.0,0.0,0.0,0.0,0.0,0.0,0.0,0.0,0.0,0.0,0.0,0.0,0.0,0.0,0.0,0.0,0.0,0.0,0.0,0.0,1.0663,1.1056,1.1389,1.1389,1.1717,1.2084,1.2378,1.2636,1.2958,1.348,1.36,1.3573,1.3487,1.3467,1.3407,1.3113,1.3146,1.3173,1.308,1.2837,1.261,0.0,0.0,0.0,0.0,0.0,0.0,0.0,0.0,0.0,0.0,0.0,0.0,0.0,0.7864,0.6981,0.6719,0.6108,0.5815,0.5815,0.5815,0.5653,0.5395,0.5395,0.5395,0.5395,0.5395,0.5395,0.5395,0.5395,0.5395,0.5395,0.5395,0.5395,0.5395,0.5395,0.5395,0.5395,0.5395,0.499,0.4453,0.4453,0.4048,0.3547,0.3547,0.3347,0.3111,0.3111,0.2444,0.1608,0.1008,0.0438,0.0,0.0,0.0,0.0,0.0,0.0,0.0,0.0,0.0,0.0,0.0,0.0,0.0,0.0,0.0,0.0,0.0,0.0,0.0,0.0,0.0,0.0,0.0,0.0,0.0,0.0,0.0,0.0,0.0,0.0,0.0,0.0,0.0,0.0,0.0,0.0,0.0,0.0,0.0,0.0,1.0751,1.1202,1.1389,1.1389,1.1864,1.2378,1.2717,1.279,1.2958,1.348,1.36,1.3507,1.326,1.3206,1.3106,1.2831,1.3038,1.3093,1.2817,1.2522,0.0,0.0,0.0,0.0,0.0,0.0,0.0,0.0,0.0,0.0,0.0,0.0,0.0,0.0,0.8452,0.76,0.6719,0.6719,0.6719,0.6719,0.6719,0.6268,0.5428,0.5395,0.5395,0.5395,0.5395,0.5395,0.5395,0.5395,0.5395,0.5395,0.5395,0.5395,0.5395,0.5395,0.5395,0.5395,0.5395,0.5395,0.5395,0.5395,0.5395,0.5395,0.5395,0.4755,0.4015,0.4015,0.338,0.2711,0.2711,0.1376,0.0034,0.0,0.0034,0.0034,0.0,0.0,0.0034,0.0,0.0034,0.0034,0.0,0.0,0.0,0.0,0.0,0.0,0.0034,0.0034,0.0034,0.0034,0.0034,0.0034,0.0034,0.0034,0.0034,0.0034,0.0034,0.0034,0.0,0.0,0.0,0.0,0.0034,0.0034,0.0034,0.0034,0.0034,0.0,0.0034,0.0034,1.0509,1.0902,1.1169,1.1342,1.1864,1.2325,1.2412,1.2926,1.3427,1.3567,1.344,1.3247,1.2978,1.2924,1.2824,1.2485,1.2512,1.2465,1.2208,0.0,0.0,0.0,0.0,0.0,0.0,0.0,0.0,0.0,0.0,0.0,0.0,0.0,0.0,0.0,0.9364,0.878,0.8517,0.7929,0.76,0.76,0.76,0.7144,0.6301,0.5686,0.5395,0.5395,0.5395,0.5395,0.5395,0.5395,0.5395,0.5395,0.5395,0.5395,0.5395,0.5395,0.5395,0.5395,0.5395,0.5395,0.5395,0.5395,0.5395,0.5395,0.5395,0.5193,0.499,0.499,0.4317,0.3613,0.3613,0.2746,0.1743,0.1074,0.1409,0.1543,0.0269,0.1008,0.1709,0.104,0.1442,0.1676,0.104,0.0906,0.0706,0.0101,0.0538,0.1141,0.1811,0.191,0.191,0.191,0.191,0.191,0.191,0.191,0.191,0.191,0.191,0.1343,0.0067,0.0605,0.0906,0.0906,0.1575,0.191,0.191,0.191,0.1575,0.094,0.1575,0.1542,1.0783,1.1323,1.1557,1.173,1.2131,1.2512,1.2632,1.2986,1.332,1.3407,1.3233,1.3005,1.2817,1.269,1.2549,1.2331,1.2204,1.2064,1.1933,0.0,0.0,0.0,0.0,0.0,0.0,0.0,0.0,0.0,0.0,0.0,0.0,0.0,0.0,0.0,0.9754,0.9306,0.9306,0.878,0.8517,0.8517,0.8517,0.8253,0.7697,0.6465,0.5719,0.5395,0.5395,0.5395,0.5395,0.5395,0.5395,0.5395,0.5395,0.5395,0.5395,0.5395,0.5395,0.5395,0.5395,0.5395,0.5395,0.5395,0.5395,0.5395,0.5395,0.5395,0.5395,0.5395,0.499,0.4553,0.4553,0.4151,0.3447,0.2177,0.2277,0.241,0.1309,0.1944,0.2544,0.1976,0.231,0.2511,0.1941,0.1842,0.1676,0.1142,0.1508,0.2076,0.2611,0.2711,0.2711,0.2711,0.2711,0.2711,0.2711,0.2711,0.2711,0.2711,0.2711,0.221,0.1109,0.1575,0.1842,0.1842,0.241,0.2711,0.2711,0.2711,0.241,0.1876,0.2444,0.241,1.1253,1.2004,1.2231,1.2258,1.2522,1.2824,1.3093,1.2965,1.2831,1.3106,1.2958,1.2737,1.271,1.2482,1.2251,1.2225,1.2004,1.1859,1.1826,0.0,0.0,0.0,0.0,0.0,0.0,0.0,0.0,0.0,0.0,0.0,0.0,0.0,0.0,1.0593,0.9817,0.9434,0.9434,0.9434,0.9434,0.0,0.9434,0.937,0.9236,0.7567,0.6334,0.5524,0.5428,0.5395,0.5395,0.5395,0.5395,0.5395,0.5395,0.5395,0.5395,0.5395,0.5395,0.5395,0.5395,0.5395,0.5395,0.5395,0.5395,0.5395,0.5395,0.5395,0.5395,0.5395,0.5395,0.5395,0.5395,0.5395,0.499,0.3345,0.2945,0.2911,0.2744,0.2845,0.2911,0.2845,0.2878,0.2911,0.2845,0.2811,0.2811,0.2811,0.2811,0.2845,0.2945,0.2945,0.2945,0.2945,0.2945,0.2945,0.2945,0.2945,0.2945,0.2945,0.2945,0.2945,0.2945,0.2878,0.2811,0.2811,0.2911,0.2945,0.2945,0.2945,0.2911,0.2811,0.2911,0.2911,1.0744,1.139,1.167,1.1904,1.2214,1.2478,1.2817,1.265,1.2485,1.2824,1.2643,1.2331,1.2134,1.204,1.1884,1.165,1.1563,1.1443,0.0,0.0,0.0,0.0,0.0,0.0,0.0,0.0,0.0,0.0,0.0,0.0,0.0,0.0,0.0,1.0593,1.0434,1.0333,1.0333,1.0333,1.0333,0.0,1.0333,0.9951,0.9274,0.8188,0.7242,0.6396,0.5686,0.5395,0.5395,0.5395,0.5395,0.5395,0.5395,0.5395,0.5395,0.5395,0.5395,0.5395,0.5395,0.5395,0.5395,0.5395,0.5395,0.5395,0.5395,0.5395,0.5395,0.5395,0.5395,0.5395,0.5395,0.5395,0.5292,0.4924,0.4821,0.4417,0.3011,0.3816,0.4586,0.3849,0.4317,0.4586,0.3846,0.3713,0.3713,0.3713,0.3713,0.3982,0.4722,0.4821,0.4821,0.4821,0.4821,0.4821,0.4821,0.4821,0.4821,0.4821,0.4821,0.4821,0.4821,0.4115,0.3713,0.3713,0.4453,0.4821,0.4821,0.4821,0.4453,0.3747,0.4486,0.4417,1.0404,1.1205,1.171,1.2004,1.2191,1.2345,1.2536,1.2412,1.2305,1.2362,1.2241,1.2087,1.1933,1.1757,1.1603,1.1415,1.1275,1.1169,0.0,0.0,0.0,0.0,0.0,0.0,0.0,0.0,0.0,0.0,0.0,0.0,0.0,1.0593,1.0593,1.0593,1.0593,1.0593,1.0593,1.0593,1.0593,1.0593,1.0593,1.0364,0.9881,0.8581,0.7535,0.6687,0.6235,0.5782,0.5395,0.5395,0.5395,0.5395,0.5395,0.5395,0.5395,0.5395,0.5395,0.5395,0.5395,0.5395,0.5395,0.5395,0.5395,0.5395,0.5395,0.5395,0.5395,0.5395,0.5395,0.5395,0.5395,0.5395,0.5395,0.5395,0.5395,0.516,0.4184,0.4722,0.5259,0.4755,0.5057,0.5259,0.4755,0.4686,0.4686,0.4686,0.4686,0.4855,0.5326,0.5395,0.5395,0.5395,0.5395,0.5395,0.5395,0.5395,0.5395,0.5395,0.5395,0.5395,0.5395,0.4921,0.4686,0.4686,0.516,0.5395,0.5395,0.5395,0.516,0.4686,0.516,0.5126,1.0026,1.1146,1.1973,1.2231,1.2305,1.2305,1.2305,1.2265,1.2158,1.1953,1.1906,1.1873,1.1772,1.1516,1.1336,1.1283,1.1076,0.0,0.0,0.0,0.0,0.0,0.0,0.0,0.0,0.0,0.0,0.0,0.0,0.0,1.0593,1.0593,1.0593,1.0593,1.0593,1.0593,1.0593,1.0593,1.0593,1.0593,1.0593,1.0593,1.0555,0.9096,0.7957,0.7144,0.6817,0.6301,0.562,0.5458,0.5491,0.5624,0.5458,0.5491,0.5591,0.5458,0.5395,0.5395,0.5395,0.5395,0.5395,0.5395,0.5395,0.5395,0.5395,0.5395,0.5395,0.5395,0.5395,0.5395,0.5395,0.5395,0.5395,0.5395,0.5395,0.5395,0.5395,0.5395,0.5395,0.5395,0.5395,0.5395,0.5395,0.5395,0.5395,0.5395,0.5395,0.5395,0.5395,0.5395,0.5395,0.5395,0.5395,0.5395,0.5395,0.5395,0.5395,0.5395,0.5395,0.5395,0.5395,0.5395,0.5395,0.5395,0.5395,0.5395,0.5395,0.5395,0.5395,0.5395,0.5395,0.5395,0.9361,1.0849,1.1973,1.2231,1.2305,1.2305,1.2305,1.2104,1.1953,1.1913,1.1906,1.1745,1.1202,1.1076,1.0969,1.0747,1.0673,0.0,0.0,0.0,0.0,0.0,0.0,0.0,0.0,0.0,0.0,0.0,0.0,0.0,1.0593,1.0593,1.0593,1.0593,1.0593,1.0593,1.0593,1.0593,1.0593,1.0593,1.0593,1.0593,1.0593,1.0364,0.9779,0.8877,0.734,0.6621,0.6461,0.5719,0.5848,0.6461,0.5686,0.5848,0.6429,0.5686,0.5395,0.5395,0.5395,0.5395,0.5395,0.5395,0.5395,0.5395,0.5395,0.5395,0.5395,0.5395,0.5395,0.5395,0.5395,0.5395,0.5395,0.5395,0.5395,0.5395,0.5395,0.5395,0.5395,0.5395,0.5395,0.5395,0.5395,0.5395,0.5395,0.5395,0.5395,0.5395,0.5395,0.5395,0.5395,0.5395,0.5395,0.5395,0.5395,0.5395,0.5395,0.5395,0.5395,0.5395,0.5395,0.5395,0.5395,0.5395,0.5395,0.5395,0.5395,0.5395,0.5395,0.5395,0.5395,0.5395,0.9372,1.0522,1.1357,1.2121,1.2305,1.2258,1.2098,1.1993,1.1812,1.1484,1.1417,1.1296,1.1042,1.0894,1.074,1.0613,1.0593,0.0,0.0,0.0,0.0,0.0,0.0,0.0,0.0,0.0,0.0,0.0,0.0,1.0593,1.0593,1.0593,1.0593,1.0593,1.0593,1.0593,1.0593,1.0593,1.0593,1.0593,1.0593,1.0593,1.0593,1.0593,1.011,0.9274,0.8484,0.7897,0.7405,0.7018,0.7083,0.734,0.6465,0.6363,0.6588,0.5719,0.5395,0.5395,0.5395,0.5395,0.5395,0.5395,0.5395,0.5395,0.5395,0.5395,0.5395,0.5395,0.5395,0.5395,0.5395,0.5395,0.5395,0.5395,0.5395,0.5395,0.5395,0.5395,0.5395,0.5395,0.5395,0.5395,0.5395,0.5395,0.5395,0.5395,0.5395,0.5395,0.5395,0.5395,0.5395,0.5395,0.5395,0.5395,0.5395,0.5395,0.5395,0.5395,0.5395,0.5395,0.5395,0.5395,0.5395,0.5395,0.5395,0.5395,0.5395,0.5395,0.5395,0.5395,0.5395,0.5395,0.8848,0.9688,1.0319,1.1456,1.1803,1.1876,1.1917,1.1846,1.1665,1.1189,1.0982,1.0882,1.0882,1.0734,1.0593,1.0593,1.0593,0.0,0.0,0.0,0.0,0.0,0.0,0.0,0.0,0.0,0.0,0.0,0.0,1.0593,1.0593,1.0593,1.0593,1.0593,1.0593,1.0593,1.0593,1.0593,1.0593,1.0593,1.0593,1.0593,1.0593,1.0593,1.0238,0.9626,0.9402,0.8947,0.8323,0.8091,0.8124,0.8253,0.7372,0.7177,0.7242,0.6371,0.5914,0.5719,0.5719,0.5591,0.5395,0.5395,0.5395,0.5395,0.5395,0.5395,0.5395,0.5395,0.5395,0.5395,0.5395,0.5395,0.5395,0.5395,0.5395,0.5395,0.5395,0.5395,0.5395,0.5395,0.5395,0.5395,0.5395,0.5395,0.5395,0.5395,0.5395,0.5395,0.5395,0.5395,0.5395,0.5395,0.5395,0.5395,0.5395,0.5395,0.5395,0.5395,0.5395,0.5395,0.5395,0.562,0.5719,0.5719,0.5947,0.5851,0.5395,0.5395,0.5395,0.5395,0.5395,0.5395,0.7141,0.7879,0.8785,0.9933,1.0438,1.0905,1.1728,1.165,1.1409,1.1375,1.0962,1.0613,1.0613,1.06,1.0593,1.0593,1.0593,0.0,0.0,0.0,0.0,0.0,0.0,0.0,0.0,0.0,0.0,0.0,0.0,1.0593,1.0593,1.0593,1.0593,1.0593,1.0593,1.0593,1.0593,1.0593,1.0593,1.0593,1.0593,1.0593,1.0593,1.0593,1.0593,1.0491,0.9658,0.9274,0.9172,0.8355,0.8484,0.9139,0.8291,0.8452,0.9043,0.8188,0.734,0.6621,0.6621,0.6108,0.5395,0.5395,0.5395,0.5395,0.5395,0.5395,0.5395,0.5395,0.5395,0.5395,0.5395,0.5395,0.5395,0.5395,0.5395,0.5395,0.5395,0.5395,0.5395,0.5395,0.5395,0.5395,0.5395,0.5395,0.5395,0.5395,0.5395,0.5395,0.5395,0.5395,0.5395,0.5395,0.5395,0.5395,0.5395,0.5395,0.5395,0.5395,0.5395,0.5395,0.5395,0.6203,0.6621,0.6621,0.7437,0.7055,0.5395,0.5395,0.5395,0.5395,0.5395,0.5395,0.6861,0.7316,0.784,0.8981,0.9781,1.0306,1.0448,1.0812,1.1096,1.0909,1.0734,1.0593,1.0593,1.0593,1.0593,1.0593,1.0593,0.0,0.0,0.0,0.0,0.0,0.0,0.0,0.0,0.0,0.0,0.0,0.0,0.0,1.0593,1.0593,1.0593,1.0593,1.0593,1.0593,1.0593,1.0593,1.0593,1.0586,1.0367,1.0374,1.0586,1.0399,1.0412,1.0593,1.0269,1.0142,1.011,0.9811,0.9843,1.0047,0.9166,0.9043,0.9204,0.8323,0.78,0.7437,0.6883,0.6494,0.6137,0.5587,0.5395,0.5395,0.5395,0.5395,0.5395,0.5395,0.5395,0.5395,0.5395,0.5395,0.5524,0.6104,0.6235,0.64,0.6957,0.6178,0.5395,0.5395,0.5395,0.5395,0.5395,0.5395,0.5395,0.5395,0.5395,0.5395,0.5395,0.5395,0.5395,0.5395,0.5914,0.6235,0.6235,0.6756,0.7055,0.7055,0.7055,0.7055,0.7055,0.7377,0.7535,0.7535,0.7832,0.7702,0.7055,0.6498,0.6531,0.7051,0.6498,0.6531,0.6318,0.6519,0.678,0.7845,0.859,0.9205,0.9624,1.0155,1.0607,1.0709,1.066,1.0593,1.0593,1.0593,1.0593,1.0593,1.0593,0.0,0.0,0.0,0.0,0.0,0.0,0.0,0.0,0.0,0.0,0.0,0.0,0.0,1.0593,1.0492,1.0399,1.0298,1.0298,1.0345,1.0439,1.0445,1.0445,1.0439,1.0214,1.0167,1.0291,1.006,1.008,1.0305,1.0399,1.0499,1.0593,1.0593,1.0593,1.053,0.9951,0.9722,0.9658,0.9102,0.8678,0.8355,0.7762,0.7372,0.7046,0.647,0.6276,0.6276,0.6276,0.6079,0.5848,0.5848,0.562,0.5458,0.5752,0.6046,0.6404,0.7013,0.7144,0.7307,0.7864,0.7083,0.6276,0.6276,0.6276,0.6276,0.6276,0.6276,0.6276,0.6276,0.6276,0.6276,0.6276,0.6276,0.6276,0.6276,0.6789,0.7144,0.7144,0.7665,0.7994,0.7994,0.7994,0.7994,0.7994,0.8291,0.8452,0.8452,0.8742,0.8871,0.8871,0.7697,0.7437,0.7994,0.7405,0.7437,0.0,0.0,0.0,0.6461,0.6864,0.7545,0.9237,0.9638,0.9944,1.0778,1.0755,1.0593,1.0593,1.0593,1.0593,1.0593,1.0593,0.0,0.0,0.0,0.0,0.0,0.0,0.0,0.0,0.0,0.0,0.0,0.0,1.0618,1.0611,1.0298,0.998,0.9735,0.9715,0.982,1.01,1.01,1.01,1.01,1.0094,0.9947,0.9715,0.9679,0.9708,0.9729,0.998,1.0267,1.0566,1.0586,1.0593,1.0593,1.0593,1.0593,1.0593,1.0593,1.0072,0.9338,0.9306,0.8748,0.8027,0.7994,0.7994,0.7994,0.7994,0.7405,0.6752,0.6752,0.6141,0.5686,0.6527,0.7372,0.7994,0.8027,0.8027,0.8059,0.8059,0.8091,0.8059,0.7994,0.7994,0.7994,0.7994,0.7994,0.7994,0.7994,0.7994,0.7994,0.7994,0.7994,0.7994,0.7994,0.8027,0.8027,0.8027,0.8059,0.8091,0.8091,0.8091,0.8091,0.8091,0.8877,0.9338,0.9338,1.0174,1.0593,1.0593,0.8871,0.8059,0.8091,0.8091,0.8059,0.5395,0.0,0.0,0.0,0.0,0.0,0.7423,0.8516,0.9477,0.9736,1.0194,1.0593,1.0593,1.0593,1.0593,1.0593,1.0593,0.0,0.0,0.0,0.0,0.0,0.0,0.0,0.0,0.0,0.0,0.0,1.1139,1.1305,1.0982,1.0674,1.0376,0.9993,0.9793,0.9726,0.98,0.98,0.98,0.98,0.9557,0.9524,0.9708,0.9459,0.9479,0.9715,0.9773,0.9853,0.999,1.0419,1.0593,1.0593,1.0593,1.0593,1.0593,1.0593,1.0466,1.0142,0.953,0.9139,0.8844,0.8188,0.7994,0.7994,0.7994,0.7832,0.7632,0.7632,0.7474,0.7344,0.7567,0.7827,0.8156,0.878,0.8941,0.9102,0.9748,0.9875,0.9518,0.8253,0.7994,0.7994,0.7994,0.7994,0.7994,0.7994,0.7994,0.7994,0.7994,0.7994,0.7994,0.7994,0.8549,0.8941,0.8941,0.9524,0.9875,0.9875,0.9875,0.9875,0.9875,1.0104,1.0238,1.0238,1.0466,1.0593,1.0593,0.9492,0.9262,0.9875,0.9875,0.9556,0.5395,0.5395,0.5395,0.5395,0.0,0.0,0.6621,0.747,0.8323,0.0,0.946,1.0047,1.0047,1.0333,1.0593,1.0593,1.0593,0.0,0.0,0.0,0.0,0.0,0.0,0.0,0.0,0.0,0.0,1.0593,1.1045,1.1269,1.1175,1.1033,1.0733,1.0292,1.0116,1.0024,0.9939,0.9634,0.9634,0.9939,0.943,0.9237,0.9312,0.9111,0.9131,0.9325,0.9446,0.9499,0.9532,1.003,1.0298,1.0374,1.0374,1.0479,1.0593,1.0593,1.0593,1.053,1.0015,0.9849,0.9754,0.9262,0.9096,0.9096,0.9096,0.8839,0.8549,0.8549,0.8549,0.8549,0.8549,0.8807,0.9224,0.9722,0.9849,0.9977,1.0491,1.0593,1.0301,0.9288,0.9096,0.9096,0.9096,0.9096,0.9096,0.9096,0.9096,0.9096,0.9096,0.9096,0.9096,0.9096,0.9556,0.9849,0.9849,1.0301,1.0593,1.0593,1.0593,1.0593,1.0593,1.0593,1.0593,1.0593,1.0593,1.0593,1.0593,1.0079,1.011,1.0593,1.0593,1.0333,0.509,0.516,0.5259,0.5259,0.5329,0.0,0.6339,0.6592,0.6876,0.0,0.8495,0.9131,0.9131,0.9761,1.0333,1.0428,1.046,0.0,0.0,0.0,0.0,0.0,0.0,0.0,1.0593,1.0593,1.0593,1.0593,1.0622,1.0891,1.1458,1.1404,1.1151,1.0674,1.062,1.0528,1.0363,0.9699,0.9665,1.0228,0.959,0.9106,0.8804,0.8804,0.8804,0.8824,0.9051,0.9164,0.9184,0.9479,0.978,1.0067,1.0067,1.0227,1.0492,1.0492,1.0512,1.0546,1.0546,1.0566,1.0593,1.0593,1.0593,1.0593,1.0593,1.0047,0.9434,0.9434,0.9434,0.9434,0.9434,1.0015,1.0593,1.0593,1.0593,1.0593,1.0593,1.0593,1.0593,1.0593,1.0593,1.0593,1.0593,1.0593,1.0593,1.0593,1.0593,1.0593,1.0593,1.0593,1.0593,1.0593,1.0593,1.0593,1.0593,1.0593,1.0593,1.0593,1.0593,1.0593,1.0593,1.0593,1.0593,1.0593,1.0593,1.0593,1.0593,1.0593,1.0593,1.0593,1.0593,1.0593,0.3211,0.3747,0.4284,0.4284,0.4855,0.0,0.5424,0.5962,0.6486,0.0,0.7316,0.8001,0.8001,0.8286,0.8742,0.9434,0.9562,0.0,0.0,0.0,0.0,0.0,0.0,0.0,0.0,1.0593,1.0593,1.0593,1.0845,1.1496,1.2613,1.2101,1.174,1.163,1.1407,1.1121,1.0698,1.0569,1.0286,0.9885,0.9754,0.9365,0.8804,0.8804,0.8804,0.8811,0.8871,0.8891,0.8871,0.8951,0.9292,0.9766,0.9766,0.9806,0.9883,0.9883,1.0,1.02,1.02,1.0361,1.0593,1.0593,1.0593,1.0593,1.0593,1.0466,1.0333,1.0333,1.0333,1.0333,1.0333,1.0466,1.0593,1.0593,1.0593,1.0593,1.0593,1.0593,1.0593,1.0593,1.0593,1.0593,1.0593,1.0593,1.0593,1.0593,1.0593,1.0593,1.0593,1.0593,1.0593,1.0593,1.0593,1.0593,1.0593,1.0593,1.0593,1.0593,1.0593,1.0593,1.0593,1.0593,1.0593,1.0593,1.0593,1.0593,1.0593,1.0593,1.0593,1.0593,1.0593,1.0593,0.2711,0.3011,0.3347,0.3347,0.4015,0.0,0.0,0.5269,0.5896,0.5808,0.6473,0.7096,0.7194,0.7563,0.8021,0.8565,0.9011,0.9466,0.0,0.0,0.0,0.0,0.0,0.0,0.0,1.0593,1.0593,1.0593,1.1138,1.1897,1.294,1.3029,1.2882,1.2501,1.2365,1.1983,1.1316,1.0965,1.0788,1.0788,1.0115,0.9614,0.929,0.8956,0.8804,0.8804,0.8804,0.8804,0.8804,0.8804,0.8985,0.9259,0.9406,0.9552,0.9715,0.9715,0.978,0.992,1.0037,1.0214,1.0399,1.0546,1.0593,1.0593,1.0593,1.0593,1.0593,1.0593,1.0593,1.0593,1.0593,1.0593,1.0593,1.0593,1.0593,1.0593,1.0593,1.0593,1.0593,1.0593,1.0593,1.0593,1.0593,1.0593,1.0593,1.0593,1.0593,1.0593,1.0593,1.0593,1.0593,1.0593,1.0593,1.0593,1.0593,1.0593,1.0593,1.0593,1.0593,1.0593,1.0593,1.0593,1.0593,1.0593,1.0593,1.0593,1.0593,1.0593,1.0593,1.0593,1.0593,1.0593,0.2178,0.231,0.2444,0.2444,0.3078,0.3775,0.0,0.0,0.0,0.5281,0.577,0.6208,0.0,0.0,0.0,0.0,0.0,0.0,0.0,0.0,0.0,0.0,0.0,0.0,0.0,1.0593,1.0593,1.0593,1.1195,1.1996,1.2948,1.3606,1.3756,1.3304,1.3277,1.2882,1.2005,1.1475,1.14,1.1789,1.0686,1.0038,0.9788,0.9237,0.8936,0.8804,0.8804,0.8804,0.8804,0.8804,0.8804,0.8831,0.9038,0.9277,0.9512,0.9512,0.9552,0.9633,0.9866,0.9957,1.0074,1.0345,1.0459,1.0519,1.0573,1.0593,1.0593,1.0593,1.0593,1.0593,1.0593,1.0593,1.0593,1.0593,1.0593,1.0593,1.0593,1.0593,1.0593,1.0593,1.0593,1.0593,1.0593,1.0593,1.0593,1.0593,1.0593,1.0593,1.0593,1.0593,1.0593,1.0593,1.0593,1.0593,1.0593,1.0593,1.0593,1.0593,1.0593,1.0593,1.0593,1.0593,1.0593,1.0593,1.0593,1.0593,1.0593,1.0776,1.0832,1.0832,1.0832,1.0895,0.0303,0.0873,0.0,0.0,0.2143,0.0,0.0,0.0,0.4157,0.4838,0.0,0.0,0.0,0.0,0.0,0.0,0.0,0.0,0.0,0.0,0.0,0.0,0.0,0.0,0.0,0.0,1.0593,1.0593,1.0681,1.1389,1.2917,1.31,1.3406,1.3972,1.3997,1.3591,1.2783,1.2691,1.2378,1.1789,1.1641,1.0939,0.9788,0.971,0.9361,0.8804,0.8804,0.8804,0.8804,0.8804,0.8804,0.8811,0.8844,0.8878,0.8905,0.8905,0.9038,0.9264,0.9297,0.9484,0.974,0.9802,0.996,1.0214,1.0512,1.0593,1.0593,1.0593,1.0593,1.0593,1.0593,1.0593,1.0593,1.0593,1.0593,1.0593,1.0593,1.0593,1.0593,1.0593,1.0593,1.0593,1.0593,1.0593,1.0593,1.0593,1.0593,1.0593,1.0593,1.0593,1.0593,1.0593,1.0593,1.0593,1.0593,1.0593,1.0593,1.0593,1.0593,1.0593,1.0593,1.0593,1.0593,1.0593,1.0593,1.0593,1.0593,1.132,1.1648,1.1648,1.1648,1.205,0.0,0.0,0.0,0.0,0.0,0.0,0.2275,0.0,0.3403,0.0,0.0,0.0,0.0,0.0,0.0,0.0,0.6302,0.0,0.0,0.0,0.0,0.0,0.0,0.0,0.0,0.0,0.0,0.0,0.0,1.1779,1.2948,1.3425,1.3952,1.4504,1.4241,1.3821,1.3252,1.3023,1.2749,1.2427,1.1996,1.1291,1.0389,1.0389,0.9814,0.8831,0.9211,0.9159,0.8804,0.8804,0.8804,0.8804,0.8804,0.8804,0.8804,0.8804,0.8884,0.8984,0.9158,0.9291,0.9457,0.982,1.0013,1.0174,1.0506,1.0593,1.0593,1.0593,1.0593,1.0593,1.0593,1.0593,1.0593,1.0593,1.0593,1.0593,1.0593,1.0593,1.0593,1.0593,1.0593,1.0593,1.0593,1.0593,1.0593,1.0593,1.0593,1.0593,1.0593,1.0593,1.0593,1.0593,1.1014,1.1108,1.0656,1.1452,1.1779,1.132,1.1725,1.1996,1.1996,1.1996,1.1996,1.1996,1.1996,1.1996,1.1996,1.2328,1.2757,1.3174,1.2718,1.2665,0.0,0.0,0.0,0.0,0.0,0.0,0.0,0.0,0.0,0.0,0.0,0.0,0.0,0.0,0.4791,0.5001,0.0,0.6274,0.0,0.0,0.0,0.0,0.0,0.0,0.0,0.0,0.0,0.0,0.0,0.0,1.2634,1.3425,1.4062,1.4449,1.422,1.3909,1.3516,1.3096,1.2905,1.2881,1.2369,1.1749,1.1065,1.1065,1.0338,0.9113,0.9588,0.9413,0.8804,0.8804,0.891,0.9087,0.9087,0.9185,0.9316,0.8929,0.8804,0.8838,0.9024,0.9144,0.9297,0.9833,1.0053,1.0174,1.0506,1.0593,1.0593,1.0593,1.0593,1.0593,1.0593,1.0593,1.0649,1.0863,1.0926,1.0989,1.1209,1.1264,1.1264,1.1264,1.1264,1.1264,1.1264,1.1076,1.0926,1.0926,1.1115,1.1264,1.1264,1.1264,1.1264,1.1264,1.1779,1.1896,1.1296,1.2336,1.2757,1.2174,1.2665,1.3009,1.3009,1.3009,1.3009,1.3009,1.3009,1.3009,1.3009,1.3221,1.3644,1.4183,1.3606,1.3463,0.0,0.0,0.0,0.0,0.0,0.0,0.0,0.0,0.1627,0.0,0.0,0.0,0.0,0.3366,0.388,0.403,0.4676,0.0,0.0,0.0,0.0,0.0,0.0,0.0,0.0,0.0,0.0,0.0,0.0,0.0,1.1803,1.2604,1.3233,1.3616,1.3947,1.3909,1.3516,1.3096,1.2905,1.2905,1.2881,1.2476,1.1765,1.1765,1.104,0.9762,0.9788,0.9413,0.8804,0.8804,0.9185,0.9762,0.9762,1.0167,1.0593,0.929,0.8804,0.8804,0.8818,0.8978,0.9264,0.9599,0.9886,1.0174,1.0506,1.0593,1.0593,1.0593,1.0593,1.0593,1.0593,1.0593,1.0807,1.1593,1.1772,1.1958,1.2765,1.2917,1.2917,1.2917,1.2917,1.2917,1.2917,1.2266,1.1772,1.1772,1.242,1.2917,1.2917,1.2917,1.2917,1.2917,1.2948,1.2948,1.2917,1.2978,1.2978,1.2948,1.2978,1.3009,1.3009,1.3009,1.3009,1.3009,1.3009,1.3009,1.3009,1.3786,1.4174,1.4213,1.4174,1.4569,0.0,0.0,0.0,0.0,0.0,0.0,0.0,0.0,0.0,0.0,0.0,0.0,0.0,0.2889,0.3076,0.3141,0.385,0.4402,0.0,0.0,0.0,0.0,0.0,0.8027,0.0,0.0,0.0,0.0,1.0593,0.0,0.0,1.2573,1.3313,1.3985,1.4052,1.4036,1.3899,1.3232,1.2905,1.2905,1.2905,1.2358,1.1435,1.2173,1.1623,1.0089,1.0814,1.0491,0.9484,0.9943,0.9987,0.984,1.0295,1.0593,1.0686,0.9788,0.9736,1.0064,0.9614,0.9228,0.9011,0.9526,0.9746,0.992,1.0439,1.0593,1.0593,1.0593,1.0989,1.1375,1.1375,1.1779,1.2243,1.2543,1.2604,1.2665,1.2948,1.3009,1.3009,1.3009,1.3009,1.3009,1.3009,1.3213,1.3205,1.2665,1.2826,1.3009,1.3009,1.3009,1.3009,1.3009,1.3485,1.3575,1.3039,1.3494,1.4025,1.454,1.4599,1.4599,1.4599,1.4599,1.4599,1.4599,1.4599,1.4599,1.4599,1.4874,1.4991,1.4991,1.4991,1.5138,0.0,0.0191,0.0,0.0381,0.0594,0.0,0.0442,0.0,0.0,0.0,0.0,0.0,0.0,0.2444,0.231,0.2644,0.3445,0.4115,0.0,0.5024,0.0,0.0,0.0,0.7274,0.8716,0.9107,0.9658,1.053,1.0593,0.0,0.0,0.0,1.3373,1.4174,1.4128,1.4104,1.4104,1.3301,1.2905,1.2905,1.2725,1.2277,1.157,1.232,1.1817,1.0403,1.1394,1.1089,0.9996,1.0562,1.0695,1.0534,1.099,1.1325,1.1434,1.0491,1.044,1.0686,1.0038,0.9662,0.9501,0.9645,1.0055,1.0527,1.0895,1.1233,1.1452,1.1452,1.1841,1.2235,1.2235,1.2604,1.307,1.3373,1.3433,1.3524,1.3786,1.3846,1.3846,1.3846,1.3846,1.3846,1.3846,1.4273,1.4353,1.3554,1.3666,1.3846,1.3846,1.3846,1.3846,1.3846,1.4332,1.4421,1.3906,1.4332,1.4844,1.5381,1.541,1.541,1.541,1.541,1.541,1.541,1.541,1.541,1.541,1.541,1.541,1.541,1.541,1.541]}]]